<?xml version='1.0' encoding='UTF-8'?><gpx version="1.1" creator="JPX - https://github.com/jenetics/jpx" xmlns="http://www.topografix.com/GPX/1/1"><trk><trkseg><trkpt lat="44.7947721" lon="7.9869853"><ele>192.99999999999997</ele><time>2026-04-08T12:27:45.952Z</time></trkpt><trkpt lat="44.794698" lon="7.9869607"><ele>193.0</ele><time>2026-04-08T12:27:46.952Z</time></trkpt><trkpt lat="44.7946349" lon="7.9869452"><ele>193.0</ele><time>2026-04-08T12:27:47.952Z</time></trkpt><trkpt lat="44.7945047" lon="7.9869042"><ele>193.0</ele><time>2026-04-08T12:27:49.952Z</time></trkpt><trkpt lat="44.7944247" lon="7.9868788"><ele>192.99999999999997</ele><time>2026-04-08T12:27:50.952Z</time></trkpt><trkpt lat="44.7943385" lon="7.9868373"><ele>193.0</ele><time>2026-04-08T12:27:51.952Z</time></trkpt><trkpt lat="44.7942566" lon="7.9868103"><ele>193.0</ele><time>2026-04-08T12:27:52.952Z</time></trkpt><trkpt lat="44.7941647" lon="7.986781"><ele>193.0</ele><time>2026-04-08T12:27:53.952Z</time></trkpt><trkpt lat="44.7940685" lon="7.9867486"><ele>193.0</ele><time>2026-04-08T12:27:54.952Z</time></trkpt><trkpt lat="44.7939669" lon="7.9867106"><ele>193.0</ele><time>2026-04-08T12:27:55.952Z</time></trkpt><trkpt lat="44.7938585" lon="7.9866753"><ele>193.0</ele><time>2026-04-08T12:27:56.952Z</time></trkpt><trkpt lat="44.7937602" lon="7.9866487"><ele>193.4</ele><time>2026-04-08T12:27:57.952Z</time></trkpt><trkpt lat="44.793653" lon="7.9866139"><ele>193.8</ele><time>2026-04-08T12:27:58.952Z</time></trkpt><trkpt lat="44.7935493" lon="7.986577"><ele>194.2</ele><time>2026-04-08T12:27:59.952Z</time></trkpt><trkpt lat="44.7934451" lon="7.9865276"><ele>194.6</ele><time>2026-04-08T12:28:00.952Z</time></trkpt><trkpt lat="44.7933444" lon="7.986485"><ele>195.0</ele><time>2026-04-08T12:28:01.952Z</time></trkpt><trkpt lat="44.7932394" lon="7.9864407"><ele>195.0</ele><time>2026-04-08T12:28:02.952Z</time></trkpt><trkpt lat="44.7931331" lon="7.9864071"><ele>195.0</ele><time>2026-04-08T12:28:03.952Z</time></trkpt><trkpt lat="44.7930318" lon="7.9863704"><ele>195.0</ele><time>2026-04-08T12:28:04.952Z</time></trkpt><trkpt lat="44.7929287" lon="7.98634"><ele>195.0</ele><time>2026-04-08T12:28:05.952Z</time></trkpt><trkpt lat="44.7928186" lon="7.9863034"><ele>195.0</ele><time>2026-04-08T12:28:06.952Z</time></trkpt><trkpt lat="44.7927079" lon="7.9862715"><ele>194.25</ele><time>2026-04-08T12:28:07.952Z</time></trkpt><trkpt lat="44.7925865" lon="7.9862287"><ele>193.5</ele><time>2026-04-08T12:28:08.952Z</time></trkpt><trkpt lat="44.7924609" lon="7.9861827"><ele>192.75</ele><time>2026-04-08T12:28:09.952Z</time></trkpt><trkpt lat="44.7923457" lon="7.9861414"><ele>192.0</ele><time>2026-04-08T12:28:10.952Z</time></trkpt><trkpt lat="44.792233" lon="7.9861003"><ele>192.0</ele><time>2026-04-08T12:28:11.952Z</time></trkpt><trkpt lat="44.7921111" lon="7.9860574"><ele>192.0</ele><time>2026-04-08T12:28:12.952Z</time></trkpt><trkpt lat="44.7919901" lon="7.9860197"><ele>192.0</ele><time>2026-04-08T12:28:13.952Z</time></trkpt><trkpt lat="44.7918789" lon="7.9859778"><ele>192.0</ele><time>2026-04-08T12:28:14.952Z</time></trkpt><trkpt lat="44.7917694" lon="7.9859415"><ele>191.75</ele><time>2026-04-08T12:28:15.952Z</time></trkpt><trkpt lat="44.7916613" lon="7.9859182"><ele>191.5</ele><time>2026-04-08T12:28:16.952Z</time></trkpt><trkpt lat="44.7915526" lon="7.9858751"><ele>191.25</ele><time>2026-04-08T12:28:17.952Z</time></trkpt><trkpt lat="44.7914405" lon="7.9858268"><ele>191.0</ele><time>2026-04-08T12:28:18.952Z</time></trkpt><trkpt lat="44.7913264" lon="7.9857842"><ele>191.75</ele><time>2026-04-08T12:28:19.952Z</time></trkpt><trkpt lat="44.7912115" lon="7.985747"><ele>192.5</ele><time>2026-04-08T12:28:20.952Z</time></trkpt><trkpt lat="44.7910967" lon="7.9857125"><ele>193.25</ele><time>2026-04-08T12:28:21.952Z</time></trkpt><trkpt lat="44.7909804" lon="7.9856722"><ele>194.0</ele><time>2026-04-08T12:28:22.952Z</time></trkpt><trkpt lat="44.7908658" lon="7.9856256"><ele>194.5</ele><time>2026-04-08T12:28:23.952Z</time></trkpt><trkpt lat="44.7907498" lon="7.9855897"><ele>195.0</ele><time>2026-04-08T12:28:24.952Z</time></trkpt><trkpt lat="44.7906312" lon="7.9855597"><ele>195.5</ele><time>2026-04-08T12:28:25.952Z</time></trkpt><trkpt lat="44.7905082" lon="7.9855298"><ele>196.0</ele><time>2026-04-08T12:28:26.952Z</time></trkpt><trkpt lat="44.7903853" lon="7.9854927"><ele>196.0</ele><time>2026-04-08T12:28:27.952Z</time></trkpt><trkpt lat="44.7902592" lon="7.9854508"><ele>196.0</ele><time>2026-04-08T12:28:28.952Z</time></trkpt><trkpt lat="44.7901361" lon="7.9854213"><ele>196.0</ele><time>2026-04-08T12:28:29.952Z</time></trkpt><trkpt lat="44.7900185" lon="7.9853792"><ele>196.0</ele><time>2026-04-08T12:28:30.952Z</time></trkpt><trkpt lat="44.7898991" lon="7.9853463"><ele>196.0</ele><time>2026-04-08T12:28:31.952Z</time></trkpt><trkpt lat="44.7897891" lon="7.9853154"><ele>196.0</ele><time>2026-04-08T12:28:32.952Z</time></trkpt><trkpt lat="44.7896841" lon="7.9852786"><ele>196.0</ele><time>2026-04-08T12:28:33.952Z</time></trkpt><trkpt lat="44.7895839" lon="7.985255"><ele>196.0</ele><time>2026-04-08T12:28:34.952Z</time></trkpt><trkpt lat="44.7894905" lon="7.985232"><ele>196.0</ele><time>2026-04-08T12:28:35.952Z</time></trkpt><trkpt lat="44.789399" lon="7.9852396"><ele>196.20000000000002</ele><time>2026-04-08T12:28:36.952Z</time></trkpt><trkpt lat="44.7893094" lon="7.9852454"><ele>196.4</ele><time>2026-04-08T12:28:37.952Z</time></trkpt><trkpt lat="44.7892155" lon="7.9852336"><ele>196.6</ele><time>2026-04-08T12:28:38.952Z</time></trkpt><trkpt lat="44.7891184" lon="7.9852272"><ele>196.8</ele><time>2026-04-08T12:28:39.952Z</time></trkpt><trkpt lat="44.7890166" lon="7.9852042"><ele>197.0</ele><time>2026-04-08T12:28:40.952Z</time></trkpt><trkpt lat="44.7889076" lon="7.9851739"><ele>197.0</ele><time>2026-04-08T12:28:41.952Z</time></trkpt><trkpt lat="44.7887962" lon="7.9851397"><ele>197.0</ele><time>2026-04-08T12:28:42.952Z</time></trkpt><trkpt lat="44.7886826" lon="7.9850973"><ele>197.0</ele><time>2026-04-08T12:28:43.952Z</time></trkpt><trkpt lat="44.7885755" lon="7.9850541"><ele>197.0</ele><time>2026-04-08T12:28:44.952Z</time></trkpt><trkpt lat="44.7884546" lon="7.9850126"><ele>197.0</ele><time>2026-04-08T12:28:45.952Z</time></trkpt><trkpt lat="44.7883378" lon="7.9849657"><ele>197.0</ele><time>2026-04-08T12:28:46.952Z</time></trkpt><trkpt lat="44.7882286" lon="7.9849175"><ele>197.0</ele><time>2026-04-08T12:28:47.952Z</time></trkpt><trkpt lat="44.7881289" lon="7.9848723"><ele>197.0</ele><time>2026-04-08T12:28:48.952Z</time></trkpt><trkpt lat="44.7880299" lon="7.984825"><ele>197.0</ele><time>2026-04-08T12:28:49.952Z</time></trkpt><trkpt lat="44.7879339" lon="7.984784"><ele>197.0</ele><time>2026-04-08T12:28:50.952Z</time></trkpt><trkpt lat="44.7878367" lon="7.9847387"><ele>197.0</ele><time>2026-04-08T12:28:51.952Z</time></trkpt><trkpt lat="44.7877301" lon="7.9846882"><ele>197.0</ele><time>2026-04-08T12:28:52.952Z</time></trkpt><trkpt lat="44.7876246" lon="7.984625"><ele>197.0</ele><time>2026-04-08T12:28:53.952Z</time></trkpt><trkpt lat="44.7875121" lon="7.984575"><ele>197.0</ele><time>2026-04-08T12:28:54.952Z</time></trkpt><trkpt lat="44.7874014" lon="7.9845507"><ele>196.75</ele><time>2026-04-08T12:28:55.952Z</time></trkpt><trkpt lat="44.7872909" lon="7.9845779"><ele>196.5</ele><time>2026-04-08T12:28:56.952Z</time></trkpt><trkpt lat="44.7871729" lon="7.984643"><ele>196.25</ele><time>2026-04-08T12:28:57.952Z</time></trkpt><trkpt lat="44.7870565" lon="7.9847173"><ele>196.0</ele><time>2026-04-08T12:28:58.952Z</time></trkpt><trkpt lat="44.7869453" lon="7.9848007"><ele>196.0</ele><time>2026-04-08T12:28:59.952Z</time></trkpt><trkpt lat="44.7868486" lon="7.9849142"><ele>196.0</ele><time>2026-04-08T12:29:00.952Z</time></trkpt><trkpt lat="44.786758" lon="7.9850489"><ele>196.0</ele><time>2026-04-08T12:29:01.952Z</time></trkpt><trkpt lat="44.7866683" lon="7.985186"><ele>196.0</ele><time>2026-04-08T12:29:02.952Z</time></trkpt><trkpt lat="44.7865719" lon="7.9853243"><ele>196.25</ele><time>2026-04-08T12:29:03.952Z</time></trkpt><trkpt lat="44.786473" lon="7.9854501"><ele>196.5</ele><time>2026-04-08T12:29:04.952Z</time></trkpt><trkpt lat="44.7863604" lon="7.9855691"><ele>196.75</ele><time>2026-04-08T12:29:05.952Z</time></trkpt><trkpt lat="44.7862405" lon="7.9856829"><ele>197.0</ele><time>2026-04-08T12:29:06.952Z</time></trkpt><trkpt lat="44.7861216" lon="7.9857987"><ele>201.0</ele><time>2026-04-08T12:29:07.952Z</time></trkpt><trkpt lat="44.7859954" lon="7.9859089"><ele>205.0</ele><time>2026-04-08T12:29:08.952Z</time></trkpt><trkpt lat="44.7858761" lon="7.9860043"><ele>209.0</ele><time>2026-04-08T12:29:09.952Z</time></trkpt><trkpt lat="44.7857645" lon="7.9860904"><ele>213.0</ele><time>2026-04-08T12:29:10.952Z</time></trkpt><trkpt lat="44.7856632" lon="7.9861598"><ele>213.0</ele><time>2026-04-08T12:29:11.952Z</time></trkpt><trkpt lat="44.7855689" lon="7.9862051"><ele>213.0</ele><time>2026-04-08T12:29:12.952Z</time></trkpt><trkpt lat="44.7854751" lon="7.9862441"><ele>213.0</ele><time>2026-04-08T12:29:13.952Z</time></trkpt><trkpt lat="44.7853817" lon="7.9862789"><ele>213.0</ele><time>2026-04-08T12:29:14.952Z</time></trkpt><trkpt lat="44.7852854" lon="7.9863179"><ele>213.0</ele><time>2026-04-08T12:29:15.952Z</time></trkpt><trkpt lat="44.7851919" lon="7.9863602"><ele>214.0</ele><time>2026-04-08T12:29:16.952Z</time></trkpt><trkpt lat="44.7850998" lon="7.9863984"><ele>215.0</ele><time>2026-04-08T12:29:17.952Z</time></trkpt><trkpt lat="44.7850033" lon="7.9864261"><ele>216.0</ele><time>2026-04-08T12:29:18.952Z</time></trkpt><trkpt lat="44.7849214" lon="7.9864294"><ele>217.0</ele><time>2026-04-08T12:29:19.952Z</time></trkpt><trkpt lat="44.784836" lon="7.9864304"><ele>218.0</ele><time>2026-04-08T12:29:20.952Z</time></trkpt><trkpt lat="44.7847581" lon="7.9864179"><ele>219.0</ele><time>2026-04-08T12:29:21.952Z</time></trkpt><trkpt lat="44.7846786" lon="7.9864019"><ele>219.0</ele><time>2026-04-08T12:29:22.952Z</time></trkpt><trkpt lat="44.7846032" lon="7.986388"><ele>219.0</ele><time>2026-04-08T12:29:23.952Z</time></trkpt><trkpt lat="44.7845274" lon="7.9863779"><ele>219.0</ele><time>2026-04-08T12:29:24.952Z</time></trkpt><trkpt lat="44.7844508" lon="7.9863659"><ele>219.0</ele><time>2026-04-08T12:29:25.952Z</time></trkpt><trkpt lat="44.7843783" lon="7.9863568"><ele>219.0</ele><time>2026-04-08T12:29:26.952Z</time></trkpt><trkpt lat="44.7843053" lon="7.9863392"><ele>219.0</ele><time>2026-04-08T12:29:27.952Z</time></trkpt><trkpt lat="44.7842277" lon="7.9863181"><ele>218.85714285714286</ele><time>2026-04-08T12:29:28.952Z</time></trkpt><trkpt lat="44.7841469" lon="7.9862993"><ele>218.7142857142857</ele><time>2026-04-08T12:29:29.952Z</time></trkpt><trkpt lat="44.7840747" lon="7.9862692"><ele>218.57142857142856</ele><time>2026-04-08T12:29:30.952Z</time></trkpt><trkpt lat="44.7840054" lon="7.9862498"><ele>218.42857142857144</ele><time>2026-04-08T12:29:31.952Z</time></trkpt><trkpt lat="44.7839381" lon="7.9862233"><ele>218.28571428571428</ele><time>2026-04-08T12:29:32.952Z</time></trkpt><trkpt lat="44.7838676" lon="7.9862025"><ele>218.14285714285714</ele><time>2026-04-08T12:29:33.952Z</time></trkpt><trkpt lat="44.7838009" lon="7.9861911"><ele>218.0</ele><time>2026-04-08T12:29:34.952Z</time></trkpt><trkpt lat="44.783732" lon="7.9861649"><ele>218.00000000000003</ele><time>2026-04-08T12:29:35.952Z</time></trkpt><trkpt lat="44.7836625" lon="7.986151"><ele>218.0</ele><time>2026-04-08T12:29:36.952Z</time></trkpt><trkpt lat="44.7835974" lon="7.9861425"><ele>218.0</ele><time>2026-04-08T12:29:37.952Z</time></trkpt><trkpt lat="44.7835323" lon="7.9861465"><ele>218.0</ele><time>2026-04-08T12:29:38.952Z</time></trkpt><trkpt lat="44.7834156" lon="7.9861466"><ele>218.00000000000003</ele><time>2026-04-08T12:29:40.952Z</time></trkpt><trkpt lat="44.7833241" lon="7.9861276"><ele>218.0</ele><time>2026-04-08T12:29:42.952Z</time></trkpt><trkpt lat="44.7832493" lon="7.9861017"><ele>217.4</ele><time>2026-04-08T12:29:44.952Z</time></trkpt><trkpt lat="44.7831885" lon="7.9860551"><ele>216.8</ele><time>2026-04-08T12:29:46.952Z</time></trkpt><trkpt lat="44.7831207" lon="7.9859762"><ele>216.2</ele><time>2026-04-08T12:29:48.952Z</time></trkpt><trkpt lat="44.7830431" lon="7.9858826"><ele>215.6</ele><time>2026-04-08T12:29:50.952Z</time></trkpt><trkpt lat="44.7829661" lon="7.9857603"><ele>215.0</ele><time>2026-04-08T12:29:52.952Z</time></trkpt><trkpt lat="44.7828831" lon="7.9856423"><ele>214.83333333333334</ele><time>2026-04-08T12:29:54.952Z</time></trkpt><trkpt lat="44.7828292" lon="7.9855755"><ele>214.66666666666669</ele><time>2026-04-08T12:29:55.952Z</time></trkpt><trkpt lat="44.7827638" lon="7.9855148"><ele>214.5</ele><time>2026-04-08T12:29:56.952Z</time></trkpt><trkpt lat="44.7826926" lon="7.9854593"><ele>214.33333333333331</ele><time>2026-04-08T12:29:57.952Z</time></trkpt><trkpt lat="44.7826131" lon="7.9854017"><ele>214.16666666666666</ele><time>2026-04-08T12:29:58.952Z</time></trkpt><trkpt lat="44.7825279" lon="7.9853238"><ele>214.0</ele><time>2026-04-08T12:29:59.952Z</time></trkpt><trkpt lat="44.7824434" lon="7.9852604"><ele>213.99999999999997</ele><time>2026-04-08T12:30:00.952Z</time></trkpt><trkpt lat="44.7823628" lon="7.9852"><ele>214.0</ele><time>2026-04-08T12:30:01.952Z</time></trkpt><trkpt lat="44.7822855" lon="7.9851486"><ele>214.0</ele><time>2026-04-08T12:30:02.952Z</time></trkpt><trkpt lat="44.7822121" lon="7.9850921"><ele>214.0</ele><time>2026-04-08T12:30:03.952Z</time></trkpt><trkpt lat="44.7821349" lon="7.9850337"><ele>213.99999999999997</ele><time>2026-04-08T12:30:04.952Z</time></trkpt><trkpt lat="44.7820593" lon="7.9849814"><ele>214.0</ele><time>2026-04-08T12:30:05.952Z</time></trkpt><trkpt lat="44.7819841" lon="7.9849287"><ele>213.6</ele><time>2026-04-08T12:30:06.952Z</time></trkpt><trkpt lat="44.7819059" lon="7.9848787"><ele>213.2</ele><time>2026-04-08T12:30:07.952Z</time></trkpt><trkpt lat="44.7818165" lon="7.9848265"><ele>212.79999999999998</ele><time>2026-04-08T12:30:08.952Z</time></trkpt><trkpt lat="44.7817285" lon="7.9847827"><ele>212.39999999999998</ele><time>2026-04-08T12:30:09.952Z</time></trkpt><trkpt lat="44.7816449" lon="7.9847257"><ele>212.0</ele><time>2026-04-08T12:30:10.952Z</time></trkpt><trkpt lat="44.7815696" lon="7.9846762"><ele>212.00000000000003</ele><time>2026-04-08T12:30:11.952Z</time></trkpt><trkpt lat="44.781493" lon="7.9846213"><ele>212.0</ele><time>2026-04-08T12:30:12.952Z</time></trkpt><trkpt lat="44.7814297" lon="7.9845447"><ele>212.0</ele><time>2026-04-08T12:30:13.952Z</time></trkpt><trkpt lat="44.781387" lon="7.9844437"><ele>212.0</ele><time>2026-04-08T12:30:14.952Z</time></trkpt><trkpt lat="44.781348" lon="7.9843308"><ele>212.00000000000003</ele><time>2026-04-08T12:30:15.952Z</time></trkpt><trkpt lat="44.7813129" lon="7.9842135"><ele>212.0</ele><time>2026-04-08T12:30:16.951Z</time></trkpt><trkpt lat="44.7812829" lon="7.9840978"><ele>211.66666666666669</ele><time>2026-04-08T12:30:17.952Z</time></trkpt><trkpt lat="44.781234" lon="7.9839905"><ele>211.33333333333334</ele><time>2026-04-08T12:30:18.952Z</time></trkpt><trkpt lat="44.7811888" lon="7.9839014"><ele>211.0</ele><time>2026-04-08T12:30:19.952Z</time></trkpt><trkpt lat="44.7811268" lon="7.9838122"><ele>210.66666666666669</ele><time>2026-04-08T12:30:20.952Z</time></trkpt><trkpt lat="44.7810573" lon="7.9837276"><ele>210.33333333333334</ele><time>2026-04-08T12:30:21.952Z</time></trkpt><trkpt lat="44.7809839" lon="7.9836492"><ele>210.0</ele><time>2026-04-08T12:30:22.952Z</time></trkpt><trkpt lat="44.7809106" lon="7.9835533"><ele>210.8</ele><time>2026-04-08T12:30:23.952Z</time></trkpt><trkpt lat="44.7808408" lon="7.9834538"><ele>211.6</ele><time>2026-04-08T12:30:24.952Z</time></trkpt><trkpt lat="44.78078" lon="7.9833408"><ele>212.39999999999998</ele><time>2026-04-08T12:30:25.952Z</time></trkpt><trkpt lat="44.7807269" lon="7.9832198"><ele>213.2</ele><time>2026-04-08T12:30:26.952Z</time></trkpt><trkpt lat="44.7806706" lon="7.9830972"><ele>214.0</ele><time>2026-04-08T12:30:27.952Z</time></trkpt><trkpt lat="44.7806285" lon="7.9829772"><ele>214.0</ele><time>2026-04-08T12:30:28.952Z</time></trkpt><trkpt lat="44.7805822" lon="7.982862"><ele>213.99999999999997</ele><time>2026-04-08T12:30:29.952Z</time></trkpt><trkpt lat="44.7805411" lon="7.9827464"><ele>213.99999999999997</ele><time>2026-04-08T12:30:30.952Z</time></trkpt><trkpt lat="44.7804943" lon="7.9826361"><ele>214.0</ele><time>2026-04-08T12:30:31.952Z</time></trkpt><trkpt lat="44.7804449" lon="7.9825299"><ele>214.0</ele><time>2026-04-08T12:30:32.952Z</time></trkpt><trkpt lat="44.7804002" lon="7.9824301"><ele>213.71428571428572</ele><time>2026-04-08T12:30:33.952Z</time></trkpt><trkpt lat="44.7803578" lon="7.9823378"><ele>213.42857142857144</ele><time>2026-04-08T12:30:34.952Z</time></trkpt><trkpt lat="44.7803287" lon="7.9822404"><ele>213.14285714285717</ele><time>2026-04-08T12:30:35.952Z</time></trkpt><trkpt lat="44.780322" lon="7.9821459"><ele>212.85714285714286</ele><time>2026-04-08T12:30:36.952Z</time></trkpt><trkpt lat="44.7803386" lon="7.9820556"><ele>212.57142857142856</ele><time>2026-04-08T12:30:37.952Z</time></trkpt><trkpt lat="44.7803726" lon="7.981967"><ele>212.2857142857143</ele><time>2026-04-08T12:30:38.952Z</time></trkpt><trkpt lat="44.7804083" lon="7.981873"><ele>212.0</ele><time>2026-04-08T12:30:39.952Z</time></trkpt><trkpt lat="44.7804507" lon="7.9817188"><ele>212.6</ele><time>2026-04-08T12:30:41.952Z</time></trkpt><trkpt lat="44.7803906" lon="7.9815851"><ele>213.2</ele><time>2026-04-08T12:30:43.952Z</time></trkpt><trkpt lat="44.7803226" lon="7.9815431"><ele>213.8</ele><time>2026-04-08T12:30:44.952Z</time></trkpt><trkpt lat="44.780237" lon="7.9814793"><ele>214.4</ele><time>2026-04-08T12:30:45.952Z</time></trkpt><trkpt lat="44.7801619" lon="7.9814224"><ele>215.0</ele><time>2026-04-08T12:30:46.952Z</time></trkpt><trkpt lat="44.7800966" lon="7.9813456"><ele>215.00000000000003</ele><time>2026-04-08T12:30:47.952Z</time></trkpt><trkpt lat="44.7800289" lon="7.9812685"><ele>215.0</ele><time>2026-04-08T12:30:48.952Z</time></trkpt><trkpt lat="44.7799712" lon="7.981195"><ele>215.0</ele><time>2026-04-08T12:30:49.952Z</time></trkpt><trkpt lat="44.7799076" lon="7.9811233"><ele>215.0</ele><time>2026-04-08T12:30:50.952Z</time></trkpt><trkpt lat="44.7798337" lon="7.9810747"><ele>215.00000000000003</ele><time>2026-04-08T12:30:51.952Z</time></trkpt><trkpt lat="44.7797464" lon="7.9810643"><ele>215.0</ele><time>2026-04-08T12:30:52.952Z</time></trkpt><trkpt lat="44.7796583" lon="7.9810948"><ele>215.0</ele><time>2026-04-08T12:30:53.952Z</time></trkpt><trkpt lat="44.7795686" lon="7.9811393"><ele>215.0</ele><time>2026-04-08T12:30:54.952Z</time></trkpt><trkpt lat="44.7794772" lon="7.9811954"><ele>215.0</ele><time>2026-04-08T12:30:55.952Z</time></trkpt><trkpt lat="44.7793791" lon="7.9812563"><ele>215.0</ele><time>2026-04-08T12:30:56.952Z</time></trkpt><trkpt lat="44.7792812" lon="7.9813278"><ele>215.0</ele><time>2026-04-08T12:30:57.952Z</time></trkpt><trkpt lat="44.7791852" lon="7.9814083"><ele>215.6</ele><time>2026-04-08T12:30:58.952Z</time></trkpt><trkpt lat="44.7790885" lon="7.9814839"><ele>216.2</ele><time>2026-04-08T12:30:59.952Z</time></trkpt><trkpt lat="44.7789969" lon="7.9815504"><ele>216.8</ele><time>2026-04-08T12:31:00.952Z</time></trkpt><trkpt lat="44.778905" lon="7.9816235"><ele>217.4</ele><time>2026-04-08T12:31:01.952Z</time></trkpt><trkpt lat="44.7788101" lon="7.9816936"><ele>218.0</ele><time>2026-04-08T12:31:02.952Z</time></trkpt><trkpt lat="44.7787238" lon="7.9817452"><ele>219.33333333333334</ele><time>2026-04-08T12:31:03.952Z</time></trkpt><trkpt lat="44.7786334" lon="7.9817747"><ele>220.66666666666669</ele><time>2026-04-08T12:31:04.952Z</time></trkpt><trkpt lat="44.7785496" lon="7.9817877"><ele>222.0</ele><time>2026-04-08T12:31:05.952Z</time></trkpt><trkpt lat="44.7784783" lon="7.9817988"><ele>223.33333333333331</ele><time>2026-04-08T12:31:06.952Z</time></trkpt><trkpt lat="44.7784108" lon="7.9818063"><ele>224.66666666666666</ele><time>2026-04-08T12:31:07.952Z</time></trkpt><trkpt lat="44.7783161" lon="7.9817871"><ele>226.0</ele><time>2026-04-08T12:31:09.952Z</time></trkpt><trkpt lat="44.7783928" lon="7.9818077"><ele>226.0</ele><time>2026-04-08T12:31:15.952Z</time></trkpt><trkpt lat="44.7785255" lon="7.9817975"><ele>226.00000000000003</ele><time>2026-04-08T12:31:17.952Z</time></trkpt><trkpt lat="44.7786068" lon="7.9817813"><ele>226.00000000000003</ele><time>2026-04-08T12:31:18.952Z</time></trkpt><trkpt lat="44.7786908" lon="7.9817529"><ele>226.0</ele><time>2026-04-08T12:31:19.952Z</time></trkpt><trkpt lat="44.7787716" lon="7.9817107"><ele>226.0</ele><time>2026-04-08T12:31:20.952Z</time></trkpt><trkpt lat="44.7788631" lon="7.9816491"><ele>224.4</ele><time>2026-04-08T12:31:21.952Z</time></trkpt><trkpt lat="44.7789552" lon="7.9815845"><ele>222.8</ele><time>2026-04-08T12:31:22.952Z</time></trkpt><trkpt lat="44.7790422" lon="7.9815109"><ele>221.20000000000002</ele><time>2026-04-08T12:31:23.952Z</time></trkpt><trkpt lat="44.779138" lon="7.9814364"><ele>219.60000000000002</ele><time>2026-04-08T12:31:24.952Z</time></trkpt><trkpt lat="44.7792382" lon="7.9813589"><ele>218.0</ele><time>2026-04-08T12:31:25.952Z</time></trkpt><trkpt lat="44.7793261" lon="7.9812892"><ele>217.50000000000003</ele><time>2026-04-08T12:31:26.952Z</time></trkpt><trkpt lat="44.7794131" lon="7.9812217"><ele>217.0</ele><time>2026-04-08T12:31:27.952Z</time></trkpt><trkpt lat="44.7794998" lon="7.9811648"><ele>216.5</ele><time>2026-04-08T12:31:28.952Z</time></trkpt><trkpt lat="44.7795776" lon="7.9811076"><ele>216.0</ele><time>2026-04-08T12:31:29.952Z</time></trkpt><trkpt lat="44.7796542" lon="7.9810757"><ele>215.50000000000003</ele><time>2026-04-08T12:31:30.952Z</time></trkpt><trkpt lat="44.7797176" lon="7.9810428"><ele>215.0</ele><time>2026-04-08T12:31:31.952Z</time></trkpt><trkpt lat="44.7798036" lon="7.9810016"><ele>215.0</ele><time>2026-04-08T12:31:33.952Z</time></trkpt><trkpt lat="44.7797833" lon="7.9808608"><ele>215.0</ele><time>2026-04-08T12:31:36.952Z</time></trkpt><trkpt lat="44.7797381" lon="7.9807911"><ele>215.0</ele><time>2026-04-08T12:31:37.952Z</time></trkpt><trkpt lat="44.7796505" lon="7.9806742"><ele>215.0</ele><time>2026-04-08T12:31:39.952Z</time></trkpt><trkpt lat="44.7795525" lon="7.9805647"><ele>215.0</ele><time>2026-04-08T12:31:41.952Z</time></trkpt><trkpt lat="44.7794954" lon="7.9805055"><ele>215.66666666666669</ele><time>2026-04-08T12:31:42.952Z</time></trkpt><trkpt lat="44.7794332" lon="7.9804396"><ele>216.33333333333334</ele><time>2026-04-08T12:31:43.952Z</time></trkpt><trkpt lat="44.7793767" lon="7.9803583"><ele>217.0</ele><time>2026-04-08T12:31:44.952Z</time></trkpt><trkpt lat="44.7793208" lon="7.9802705"><ele>217.66666666666669</ele><time>2026-04-08T12:31:45.952Z</time></trkpt><trkpt lat="44.779269" lon="7.9801671"><ele>218.33333333333334</ele><time>2026-04-08T12:31:46.952Z</time></trkpt><trkpt lat="44.7792202" lon="7.9800674"><ele>219.0</ele><time>2026-04-08T12:31:47.952Z</time></trkpt><trkpt lat="44.7791714" lon="7.9799639"><ele>219.16666666666666</ele><time>2026-04-08T12:31:48.952Z</time></trkpt><trkpt lat="44.7791173" lon="7.9798709"><ele>219.33333333333331</ele><time>2026-04-08T12:31:49.952Z</time></trkpt><trkpt lat="44.7790598" lon="7.9797782"><ele>219.5</ele><time>2026-04-08T12:31:50.952Z</time></trkpt><trkpt lat="44.7789956" lon="7.979692"><ele>219.66666666666666</ele><time>2026-04-08T12:31:51.952Z</time></trkpt><trkpt lat="44.7789319" lon="7.9796084"><ele>219.83333333333331</ele><time>2026-04-08T12:31:52.952Z</time></trkpt><trkpt lat="44.7788627" lon="7.9795272"><ele>220.0</ele><time>2026-04-08T12:31:53.952Z</time></trkpt><trkpt lat="44.7788012" lon="7.9794305"><ele>220.0</ele><time>2026-04-08T12:31:54.952Z</time></trkpt><trkpt lat="44.7787364" lon="7.979346"><ele>220.0</ele><time>2026-04-08T12:31:55.952Z</time></trkpt><trkpt lat="44.7786688" lon="7.9792585"><ele>220.0</ele><time>2026-04-08T12:31:56.952Z</time></trkpt><trkpt lat="44.7785997" lon="7.9791565"><ele>220.0</ele><time>2026-04-08T12:31:57.952Z</time></trkpt><trkpt lat="44.7785423" lon="7.9790631"><ele>220.0</ele><time>2026-04-08T12:31:58.952Z</time></trkpt><trkpt lat="44.7784897" lon="7.9789668"><ele>220.49999999999997</ele><time>2026-04-08T12:31:59.952Z</time></trkpt><trkpt lat="44.7784461" lon="7.9788652"><ele>221.0</ele><time>2026-04-08T12:32:00.952Z</time></trkpt><trkpt lat="44.7784077" lon="7.9787591"><ele>221.5</ele><time>2026-04-08T12:32:01.952Z</time></trkpt><trkpt lat="44.7783635" lon="7.9786538"><ele>222.0</ele><time>2026-04-08T12:32:02.952Z</time></trkpt><trkpt lat="44.7783179" lon="7.978567"><ele>222.49999999999997</ele><time>2026-04-08T12:32:03.952Z</time></trkpt><trkpt lat="44.7782721" lon="7.978479"><ele>223.0</ele><time>2026-04-08T12:32:04.952Z</time></trkpt><trkpt lat="44.7782378" lon="7.9784004"><ele>223.49999999999997</ele><time>2026-04-08T12:32:05.952Z</time></trkpt><trkpt lat="44.7781981" lon="7.978327"><ele>224.0</ele><time>2026-04-08T12:32:06.952Z</time></trkpt><trkpt lat="44.7781537" lon="7.9782533"><ele>224.5</ele><time>2026-04-08T12:32:07.952Z</time></trkpt><trkpt lat="44.7781013" lon="7.9781853"><ele>225.0</ele><time>2026-04-08T12:32:08.952Z</time></trkpt><trkpt lat="44.7780608" lon="7.978116"><ele>225.49999999999997</ele><time>2026-04-08T12:32:09.952Z</time></trkpt><trkpt lat="44.7779822" lon="7.9779827"><ele>226.0</ele><time>2026-04-08T12:32:11.952Z</time></trkpt><trkpt lat="44.7779111" lon="7.9778679"><ele>226.0</ele><time>2026-04-08T12:32:13.952Z</time></trkpt><trkpt lat="44.7778487" lon="7.9777473"><ele>226.00000000000003</ele><time>2026-04-08T12:32:15.952Z</time></trkpt><trkpt lat="44.7777649" lon="7.9776271"><ele>226.00000000000003</ele><time>2026-04-08T12:32:17.952Z</time></trkpt><trkpt lat="44.7776918" lon="7.9775374"><ele>226.0</ele><time>2026-04-08T12:32:19.952Z</time></trkpt><trkpt lat="44.7776171" lon="7.9775359"><ele>226.0</ele><time>2026-04-08T12:32:22.952Z</time></trkpt><trkpt lat="44.7775544" lon="7.9776328"><ele>225.99999999999997</ele><time>2026-04-08T12:32:24.952Z</time></trkpt><trkpt lat="44.7775113" lon="7.9777004"><ele>226.0</ele><time>2026-04-08T12:32:25.952Z</time></trkpt><trkpt lat="44.777442" lon="7.9778139"><ele>226.0</ele><time>2026-04-08T12:32:27.952Z</time></trkpt><trkpt lat="44.7773734" lon="7.9779159"><ele>226.0</ele><time>2026-04-08T12:32:29.952Z</time></trkpt><trkpt lat="44.7773329" lon="7.9780015"><ele>225.99999999999997</ele><time>2026-04-08T12:32:31.952Z</time></trkpt><trkpt lat="44.7772965" lon="7.9781258"><ele>226.0</ele><time>2026-04-08T12:32:33.952Z</time></trkpt><trkpt lat="44.7772462" lon="7.9782523"><ele>226.0</ele><time>2026-04-08T12:32:35.952Z</time></trkpt><trkpt lat="44.7771905" lon="7.9783272"><ele>226.00000000000003</ele><time>2026-04-08T12:32:37.952Z</time></trkpt><trkpt lat="44.7771083" lon="7.9783928"><ele>226.00000000000003</ele><time>2026-04-08T12:32:39.952Z</time></trkpt><trkpt lat="44.7770145" lon="7.9784537"><ele>226.0</ele><time>2026-04-08T12:32:41.952Z</time></trkpt><trkpt lat="44.7769457" lon="7.9785901"><ele>226.0</ele><time>2026-04-08T12:32:43.952Z</time></trkpt><trkpt lat="44.7769459" lon="7.9786859"><ele>226.49999999999997</ele><time>2026-04-08T12:32:44.952Z</time></trkpt><trkpt lat="44.7769671" lon="7.9787844"><ele>227.0</ele><time>2026-04-08T12:32:45.952Z</time></trkpt><trkpt lat="44.776983" lon="7.9788991"><ele>227.5</ele><time>2026-04-08T12:32:46.952Z</time></trkpt><trkpt lat="44.7769859" lon="7.9790139"><ele>228.0</ele><time>2026-04-08T12:32:47.952Z</time></trkpt><trkpt lat="44.7769915" lon="7.9791253"><ele>228.49999999999997</ele><time>2026-04-08T12:32:48.952Z</time></trkpt><trkpt lat="44.7769969" lon="7.9792232"><ele>229.0</ele><time>2026-04-08T12:32:49.952Z</time></trkpt><trkpt lat="44.7770042" lon="7.9793133"><ele>231.6</ele><time>2026-04-08T12:32:50.952Z</time></trkpt><trkpt lat="44.7769635" lon="7.9794338"><ele>234.2</ele><time>2026-04-08T12:32:52.952Z</time></trkpt><trkpt lat="44.7769017" lon="7.9794575"><ele>236.79999999999998</ele><time>2026-04-08T12:32:53.952Z</time></trkpt><trkpt lat="44.7768123" lon="7.9795436"><ele>239.39999999999998</ele><time>2026-04-08T12:32:55.952Z</time></trkpt><trkpt lat="44.7767589" lon="7.9797107"><ele>242.0</ele><time>2026-04-08T12:32:57.952Z</time></trkpt><trkpt lat="44.7767262" lon="7.9798071"><ele>243.83333333333334</ele><time>2026-04-08T12:32:58.952Z</time></trkpt><trkpt lat="44.7766921" lon="7.9799233"><ele>245.66666666666669</ele><time>2026-04-08T12:32:59.952Z</time></trkpt><trkpt lat="44.7766582" lon="7.9800296"><ele>247.5</ele><time>2026-04-08T12:33:00.952Z</time></trkpt><trkpt lat="44.7766192" lon="7.980108"><ele>249.33333333333331</ele><time>2026-04-08T12:33:01.952Z</time></trkpt><trkpt lat="44.7765139" lon="7.9801937"><ele>251.16666666666666</ele><time>2026-04-08T12:33:03.952Z</time></trkpt><trkpt lat="44.7764488" lon="7.9801986"><ele>253.0</ele><time>2026-04-08T12:33:04.952Z</time></trkpt><trkpt lat="44.7763465" lon="7.9801118"><ele>252.99999999999997</ele><time>2026-04-08T12:33:06.952Z</time></trkpt><trkpt lat="44.7762971" lon="7.9800415"><ele>253.0</ele><time>2026-04-08T12:33:07.952Z</time></trkpt><trkpt lat="44.77625" lon="7.97997"><ele>253.0</ele><time>2026-04-08T12:33:08.952Z</time></trkpt><trkpt lat="44.7762035" lon="7.9799084"><ele>253.0</ele><time>2026-04-08T12:33:09.952Z</time></trkpt><trkpt lat="44.7761083" lon="7.9798805"><ele>252.99999999999997</ele><time>2026-04-08T12:33:11.952Z</time></trkpt><trkpt lat="44.7760854" lon="7.9800114"><ele>253.0</ele><time>2026-04-08T12:33:14.952Z</time></trkpt><trkpt lat="44.7761458" lon="7.9801472"><ele>254.8</ele><time>2026-04-08T12:33:16.952Z</time></trkpt><trkpt lat="44.776203" lon="7.9802907"><ele>256.6</ele><time>2026-04-08T12:33:18.952Z</time></trkpt><trkpt lat="44.7762577" lon="7.9804224"><ele>258.4</ele><time>2026-04-08T12:33:20.952Z</time></trkpt><trkpt lat="44.776303" lon="7.9805295"><ele>260.2</ele><time>2026-04-08T12:33:22.952Z</time></trkpt><trkpt lat="44.7763228" lon="7.9806225"><ele>262.0</ele><time>2026-04-08T12:33:24.952Z</time></trkpt><trkpt lat="44.7762486" lon="7.9806629"><ele>262.0</ele><time>2026-04-08T12:33:27.952Z</time></trkpt><trkpt lat="44.7762224" lon="7.9805719"><ele>262.0</ele><time>2026-04-08T12:33:28.952Z</time></trkpt><trkpt lat="44.7761593" lon="7.9804487"><ele>262.0</ele><time>2026-04-08T12:33:30.952Z</time></trkpt><trkpt lat="44.7761201" lon="7.9803689"><ele>262.0</ele><time>2026-04-08T12:33:31.952Z</time></trkpt><trkpt lat="44.7760815" lon="7.9802871"><ele>262.0</ele><time>2026-04-08T12:33:32.952Z</time></trkpt><trkpt lat="44.7760426" lon="7.9801982"><ele>262.0</ele><time>2026-04-08T12:33:33.952Z</time></trkpt><trkpt lat="44.7759974" lon="7.9801048"><ele>262.8</ele><time>2026-04-08T12:33:34.952Z</time></trkpt><trkpt lat="44.7759523" lon="7.9800129"><ele>263.6</ele><time>2026-04-08T12:33:35.952Z</time></trkpt><trkpt lat="44.7759028" lon="7.9799235"><ele>264.40000000000003</ele><time>2026-04-08T12:33:36.952Z</time></trkpt><trkpt lat="44.7758484" lon="7.9798184"><ele>265.2</ele><time>2026-04-08T12:33:37.952Z</time></trkpt><trkpt lat="44.7757912" lon="7.9797074"><ele>266.0</ele><time>2026-04-08T12:33:38.952Z</time></trkpt><trkpt lat="44.7757335" lon="7.9795893"><ele>266.0</ele><time>2026-04-08T12:33:39.952Z</time></trkpt><trkpt lat="44.7756744" lon="7.9794702"><ele>266.0</ele><time>2026-04-08T12:33:40.952Z</time></trkpt><trkpt lat="44.7756173" lon="7.9793579"><ele>266.0</ele><time>2026-04-08T12:33:41.952Z</time></trkpt><trkpt lat="44.7755686" lon="7.9792529"><ele>266.0</ele><time>2026-04-08T12:33:42.952Z</time></trkpt><trkpt lat="44.7755272" lon="7.9791503"><ele>266.0</ele><time>2026-04-08T12:33:43.952Z</time></trkpt><trkpt lat="44.7754914" lon="7.9790552"><ele>265.0</ele><time>2026-04-08T12:33:44.952Z</time></trkpt><trkpt lat="44.7754583" lon="7.97896"><ele>264.0</ele><time>2026-04-08T12:33:45.952Z</time></trkpt><trkpt lat="44.7754415" lon="7.9788549"><ele>263.0</ele><time>2026-04-08T12:33:46.952Z</time></trkpt><trkpt lat="44.7754402" lon="7.9787431"><ele>262.0</ele><time>2026-04-08T12:33:47.952Z</time></trkpt><trkpt lat="44.7754383" lon="7.9786256"><ele>261.0</ele><time>2026-04-08T12:33:48.952Z</time></trkpt><trkpt lat="44.7754307" lon="7.9785159"><ele>260.0</ele><time>2026-04-08T12:33:49.952Z</time></trkpt><trkpt lat="44.7754048" lon="7.9783981"><ele>260.8</ele><time>2026-04-08T12:33:50.952Z</time></trkpt><trkpt lat="44.7753522" lon="7.9782842"><ele>261.6</ele><time>2026-04-08T12:33:51.952Z</time></trkpt><trkpt lat="44.7752958" lon="7.9781709"><ele>262.4</ele><time>2026-04-08T12:33:52.952Z</time></trkpt><trkpt lat="44.7752297" lon="7.9780472"><ele>263.2</ele><time>2026-04-08T12:33:53.952Z</time></trkpt><trkpt lat="44.7751651" lon="7.9779165"><ele>264.0</ele><time>2026-04-08T12:33:54.952Z</time></trkpt><trkpt lat="44.7751102" lon="7.9777831"><ele>264.59999999999997</ele><time>2026-04-08T12:33:55.952Z</time></trkpt><trkpt lat="44.7750466" lon="7.9776492"><ele>265.2</ele><time>2026-04-08T12:33:56.952Z</time></trkpt><trkpt lat="44.7749732" lon="7.9775283"><ele>265.79999999999995</ele><time>2026-04-08T12:33:57.952Z</time></trkpt><trkpt lat="44.7748819" lon="7.9774328"><ele>266.4</ele><time>2026-04-08T12:33:58.952Z</time></trkpt><trkpt lat="44.7747876" lon="7.9773667"><ele>267.0</ele><time>2026-04-08T12:33:59.952Z</time></trkpt><trkpt lat="44.7746989" lon="7.9773119"><ele>266.1666666666667</ele><time>2026-04-08T12:34:00.952Z</time></trkpt><trkpt lat="44.7746189" lon="7.9772542"><ele>265.3333333333333</ele><time>2026-04-08T12:34:01.952Z</time></trkpt><trkpt lat="44.7745479" lon="7.977188"><ele>264.5</ele><time>2026-04-08T12:34:02.952Z</time></trkpt><trkpt lat="44.7744855" lon="7.9770988"><ele>263.66666666666663</ele><time>2026-04-08T12:34:03.952Z</time></trkpt><trkpt lat="44.7744217" lon="7.9770112"><ele>262.8333333333333</ele><time>2026-04-08T12:34:04.952Z</time></trkpt><trkpt lat="44.7743707" lon="7.9769471"><ele>262.0</ele><time>2026-04-08T12:34:06.138Z</time></trkpt><trkpt lat="44.7742761" lon="7.9768508"><ele>262.0</ele><time>2026-04-08T12:34:07.319Z</time></trkpt><trkpt lat="44.7741646" lon="7.976767"><ele>262.0</ele><time>2026-04-08T12:34:07.948Z</time></trkpt><trkpt lat="44.77406" lon="7.9767126"><ele>262.0</ele><time>2026-04-08T12:34:08.949Z</time></trkpt><trkpt lat="44.7739546" lon="7.9766588"><ele>262.0</ele><time>2026-04-08T12:34:09.946Z</time></trkpt><trkpt lat="44.7738515" lon="7.9766061"><ele>263.6</ele><time>2026-04-08T12:34:10.945Z</time></trkpt><trkpt lat="44.7737547" lon="7.9765611"><ele>265.2</ele><time>2026-04-08T12:34:11.949Z</time></trkpt><trkpt lat="44.7736617" lon="7.9765127"><ele>266.8</ele><time>2026-04-08T12:34:12.952Z</time></trkpt><trkpt lat="44.7735702" lon="7.9764614"><ele>268.4</ele><time>2026-04-08T12:34:13.952Z</time></trkpt><trkpt lat="44.7734866" lon="7.9764004"><ele>270.0</ele><time>2026-04-08T12:34:14.952Z</time></trkpt><trkpt lat="44.773413" lon="7.976326"><ele>270.0</ele><time>2026-04-08T12:34:15.952Z</time></trkpt><trkpt lat="44.7733456" lon="7.9762468"><ele>270.0</ele><time>2026-04-08T12:34:16.952Z</time></trkpt><trkpt lat="44.7732869" lon="7.9761601"><ele>270.0</ele><time>2026-04-08T12:34:17.952Z</time></trkpt><trkpt lat="44.773245" lon="7.9760553"><ele>270.0</ele><time>2026-04-08T12:34:18.952Z</time></trkpt><trkpt lat="44.7731982" lon="7.9759568"><ele>270.0</ele><time>2026-04-08T12:34:19.952Z</time></trkpt><trkpt lat="44.7732158" lon="7.975832"><ele>270.0</ele><time>2026-04-08T12:34:20.952Z</time></trkpt><trkpt lat="44.7732125" lon="7.9757226"><ele>270.57142857142856</ele><time>2026-04-08T12:34:21.952Z</time></trkpt><trkpt lat="44.7732292" lon="7.9756235"><ele>271.1428571428571</ele><time>2026-04-08T12:34:22.952Z</time></trkpt><trkpt lat="44.7732654" lon="7.9755377"><ele>271.7142857142857</ele><time>2026-04-08T12:34:23.952Z</time></trkpt><trkpt lat="44.7732997" lon="7.9754542"><ele>272.2857142857143</ele><time>2026-04-08T12:34:24.952Z</time></trkpt><trkpt lat="44.7733331" lon="7.9753712"><ele>272.8571428571429</ele><time>2026-04-08T12:34:25.952Z</time></trkpt><trkpt lat="44.7733147" lon="7.9752669"><ele>273.42857142857144</ele><time>2026-04-08T12:34:26.952Z</time></trkpt><trkpt lat="44.773268" lon="7.9751939"><ele>274.0</ele><time>2026-04-08T12:34:27.952Z</time></trkpt><trkpt lat="44.7732089" lon="7.9751395"><ele>274.0</ele><time>2026-04-08T12:34:28.952Z</time></trkpt><trkpt lat="44.7731213" lon="7.9751009"><ele>274.0</ele><time>2026-04-08T12:34:29.952Z</time></trkpt><trkpt lat="44.773051" lon="7.9750566"><ele>274.0</ele><time>2026-04-08T12:34:30.952Z</time></trkpt><trkpt lat="44.772987" lon="7.9750191"><ele>274.0</ele><time>2026-04-08T12:34:31.952Z</time></trkpt><trkpt lat="44.7729199" lon="7.9749743"><ele>274.0</ele><time>2026-04-08T12:34:32.952Z</time></trkpt><trkpt lat="44.7728595" lon="7.9749428"><ele>274.0</ele><time>2026-04-08T12:34:33.952Z</time></trkpt><trkpt lat="44.7727558" lon="7.9748677"><ele>272.8333333333333</ele><time>2026-04-08T12:34:35.952Z</time></trkpt><trkpt lat="44.7727297" lon="7.9746996"><ele>271.66666666666663</ele><time>2026-04-08T12:34:37.952Z</time></trkpt><trkpt lat="44.7727287" lon="7.9746022"><ele>270.5</ele><time>2026-04-08T12:34:38.952Z</time></trkpt><trkpt lat="44.7727346" lon="7.974511"><ele>269.3333333333333</ele><time>2026-04-08T12:34:39.952Z</time></trkpt><trkpt lat="44.7727273" lon="7.9743713"><ele>268.1666666666667</ele><time>2026-04-08T12:34:40.952Z</time></trkpt><trkpt lat="44.7727083" lon="7.9742507"><ele>267.0</ele><time>2026-04-08T12:34:41.952Z</time></trkpt><trkpt lat="44.7726894" lon="7.9741045"><ele>267.0</ele><time>2026-04-08T12:34:42.952Z</time></trkpt><trkpt lat="44.7726714" lon="7.9739628"><ele>267.0</ele><time>2026-04-08T12:34:43.952Z</time></trkpt><trkpt lat="44.7726619" lon="7.9738052"><ele>267.0</ele><time>2026-04-08T12:34:44.952Z</time></trkpt><trkpt lat="44.7726679" lon="7.973662"><ele>267.0</ele><time>2026-04-08T12:34:45.952Z</time></trkpt><trkpt lat="44.7726802" lon="7.9735048"><ele>267.0</ele><time>2026-04-08T12:34:46.952Z</time></trkpt><trkpt lat="44.7726768" lon="7.9733606"><ele>267.6</ele><time>2026-04-08T12:34:47.952Z</time></trkpt><trkpt lat="44.7726644" lon="7.9732185"><ele>268.2</ele><time>2026-04-08T12:34:48.952Z</time></trkpt><trkpt lat="44.7726056" lon="7.9731097"><ele>268.8</ele><time>2026-04-08T12:34:49.952Z</time></trkpt><trkpt lat="44.7725716" lon="7.9729986"><ele>269.4</ele><time>2026-04-08T12:34:50.952Z</time></trkpt><trkpt lat="44.7725519" lon="7.9728744"><ele>270.0</ele><time>2026-04-08T12:34:51.952Z</time></trkpt><trkpt lat="44.7725331" lon="7.9727522"><ele>270.0</ele><time>2026-04-08T12:34:52.952Z</time></trkpt><trkpt lat="44.7725163" lon="7.9726227"><ele>270.0</ele><time>2026-04-08T12:34:53.952Z</time></trkpt><trkpt lat="44.772498" lon="7.9725003"><ele>270.0</ele><time>2026-04-08T12:34:54.952Z</time></trkpt><trkpt lat="44.7724655" lon="7.9723927"><ele>270.0</ele><time>2026-04-08T12:34:55.952Z</time></trkpt><trkpt lat="44.7724237" lon="7.9722941"><ele>270.0</ele><time>2026-04-08T12:34:56.952Z</time></trkpt><trkpt lat="44.7723645" lon="7.9721971"><ele>270.0</ele><time>2026-04-08T12:34:57.952Z</time></trkpt><trkpt lat="44.7722996" lon="7.9721006"><ele>269.6</ele><time>2026-04-08T12:34:58.952Z</time></trkpt><trkpt lat="44.7722316" lon="7.9719937"><ele>269.2</ele><time>2026-04-08T12:34:59.952Z</time></trkpt><trkpt lat="44.7721706" lon="7.9718866"><ele>268.8</ele><time>2026-04-08T12:35:00.952Z</time></trkpt><trkpt lat="44.7721053" lon="7.9717498"><ele>268.4</ele><time>2026-04-08T12:35:01.952Z</time></trkpt><trkpt lat="44.7720452" lon="7.9716034"><ele>268.0</ele><time>2026-04-08T12:35:02.952Z</time></trkpt><trkpt lat="44.7719952" lon="7.9714541"><ele>266.25</ele><time>2026-04-08T12:35:03.952Z</time></trkpt><trkpt lat="44.7719465" lon="7.9713071"><ele>264.5</ele><time>2026-04-08T12:35:04.952Z</time></trkpt><trkpt lat="44.7718944" lon="7.9711542"><ele>262.75</ele><time>2026-04-08T12:35:05.952Z</time></trkpt><trkpt lat="44.7718328" lon="7.971015"><ele>261.0</ele><time>2026-04-08T12:35:06.952Z</time></trkpt><trkpt lat="44.7717738" lon="7.9708951"><ele>261.8</ele><time>2026-04-08T12:35:07.952Z</time></trkpt><trkpt lat="44.7717135" lon="7.9707825"><ele>262.6</ele><time>2026-04-08T12:35:08.952Z</time></trkpt><trkpt lat="44.7716538" lon="7.9706682"><ele>263.4</ele><time>2026-04-08T12:35:09.952Z</time></trkpt><trkpt lat="44.7715901" lon="7.9705628"><ele>264.2</ele><time>2026-04-08T12:35:10.952Z</time></trkpt><trkpt lat="44.7715251" lon="7.9704647"><ele>265.0</ele><time>2026-04-08T12:35:11.952Z</time></trkpt><trkpt lat="44.7714679" lon="7.9703759"><ele>264.99999999999994</ele><time>2026-04-08T12:35:12.952Z</time></trkpt><trkpt lat="44.771409" lon="7.970303"><ele>265.0</ele><time>2026-04-08T12:35:13.952Z</time></trkpt><trkpt lat="44.7713536" lon="7.9702356"><ele>265.0</ele><time>2026-04-08T12:35:14.952Z</time></trkpt><trkpt lat="44.7713149" lon="7.9701594"><ele>265.0</ele><time>2026-04-08T12:35:15.952Z</time></trkpt><trkpt lat="44.7712833" lon="7.9700664"><ele>265.0</ele><time>2026-04-08T12:35:16.952Z</time></trkpt><trkpt lat="44.7712615" lon="7.9699666"><ele>264.99999999999994</ele><time>2026-04-08T12:35:17.952Z</time></trkpt><trkpt lat="44.771234" lon="7.9698821"><ele>265.0</ele><time>2026-04-08T12:35:18.952Z</time></trkpt><trkpt lat="44.7712009" lon="7.9698026"><ele>264.6</ele><time>2026-04-08T12:35:19.952Z</time></trkpt><trkpt lat="44.7711002" lon="7.9697191"><ele>264.2</ele><time>2026-04-08T12:35:21.952Z</time></trkpt><trkpt lat="44.77099" lon="7.969636"><ele>263.8</ele><time>2026-04-08T12:35:23.952Z</time></trkpt><trkpt lat="44.7709334" lon="7.9695626"><ele>263.4</ele><time>2026-04-08T12:35:24.952Z</time></trkpt><trkpt lat="44.7708788" lon="7.9694852"><ele>263.0</ele><time>2026-04-08T12:35:25.952Z</time></trkpt><trkpt lat="44.7708252" lon="7.9694069"><ele>263.0</ele><time>2026-04-08T12:35:26.952Z</time></trkpt><trkpt lat="44.7707752" lon="7.9693138"><ele>263.0</ele><time>2026-04-08T12:35:27.952Z</time></trkpt><trkpt lat="44.7707314" lon="7.9692254"><ele>263.0</ele><time>2026-04-08T12:35:28.952Z</time></trkpt><trkpt lat="44.7706928" lon="7.9691236"><ele>263.0</ele><time>2026-04-08T12:35:29.952Z</time></trkpt><trkpt lat="44.7706542" lon="7.9690301"><ele>263.0</ele><time>2026-04-08T12:35:30.952Z</time></trkpt><trkpt lat="44.7706242" lon="7.9689454"><ele>263.0</ele><time>2026-04-08T12:35:31.952Z</time></trkpt><trkpt lat="44.7705944" lon="7.9688578"><ele>263.0</ele><time>2026-04-08T12:35:32.952Z</time></trkpt><trkpt lat="44.7705644" lon="7.9687674"><ele>263.0</ele><time>2026-04-08T12:35:33.952Z</time></trkpt><trkpt lat="44.7705329" lon="7.9686772"><ele>263.0</ele><time>2026-04-08T12:35:34.952Z</time></trkpt><trkpt lat="44.7705038" lon="7.9685724"><ele>263.0</ele><time>2026-04-08T12:35:35.952Z</time></trkpt><trkpt lat="44.7704772" lon="7.9684549"><ele>263.0</ele><time>2026-04-08T12:35:36.952Z</time></trkpt><trkpt lat="44.7704468" lon="7.9683398"><ele>263.0</ele><time>2026-04-08T12:35:37.952Z</time></trkpt><trkpt lat="44.7703958" lon="7.9682162"><ele>261.8</ele><time>2026-04-08T12:35:38.952Z</time></trkpt><trkpt lat="44.7703369" lon="7.9680986"><ele>260.6</ele><time>2026-04-08T12:35:39.952Z</time></trkpt><trkpt lat="44.7702735" lon="7.9679679"><ele>259.4</ele><time>2026-04-08T12:35:40.952Z</time></trkpt><trkpt lat="44.7702218" lon="7.9678242"><ele>258.2</ele><time>2026-04-08T12:35:41.952Z</time></trkpt><trkpt lat="44.770197" lon="7.9676887"><ele>257.0</ele><time>2026-04-08T12:35:42.952Z</time></trkpt><trkpt lat="44.7701727" lon="7.9675784"><ele>259.8</ele><time>2026-04-08T12:35:43.952Z</time></trkpt><trkpt lat="44.7701367" lon="7.9674743"><ele>262.6</ele><time>2026-04-08T12:35:44.952Z</time></trkpt><trkpt lat="44.7700724" lon="7.9673872"><ele>265.40000000000003</ele><time>2026-04-08T12:35:45.952Z</time></trkpt><trkpt lat="44.7699971" lon="7.9673191"><ele>268.2</ele><time>2026-04-08T12:35:46.952Z</time></trkpt><trkpt lat="44.7699168" lon="7.9672481"><ele>271.0</ele><time>2026-04-08T12:35:47.952Z</time></trkpt><trkpt lat="44.7698424" lon="7.9671619"><ele>271.0</ele><time>2026-04-08T12:35:48.952Z</time></trkpt><trkpt lat="44.7697739" lon="7.9670687"><ele>271.0</ele><time>2026-04-08T12:35:49.952Z</time></trkpt><trkpt lat="44.7697121" lon="7.9669661"><ele>271.0</ele><time>2026-04-08T12:35:50.952Z</time></trkpt><trkpt lat="44.7696662" lon="7.9668414"><ele>271.0</ele><time>2026-04-08T12:35:51.952Z</time></trkpt><trkpt lat="44.7696304" lon="7.9667075"><ele>271.0</ele><time>2026-04-08T12:35:52.952Z</time></trkpt><trkpt lat="44.7696037" lon="7.9665778"><ele>269.6</ele><time>2026-04-08T12:35:53.952Z</time></trkpt><trkpt lat="44.7695796" lon="7.9664433"><ele>268.20000000000005</ele><time>2026-04-08T12:35:54.952Z</time></trkpt><trkpt lat="44.7695561" lon="7.9663214"><ele>266.79999999999995</ele><time>2026-04-08T12:35:55.952Z</time></trkpt><trkpt lat="44.7695131" lon="7.9662078"><ele>265.4</ele><time>2026-04-08T12:35:56.952Z</time></trkpt><trkpt lat="44.769453" lon="7.9660991"><ele>264.0</ele><time>2026-04-08T12:35:57.952Z</time></trkpt><trkpt lat="44.7693756" lon="7.9659891"><ele>264.59999999999997</ele><time>2026-04-08T12:35:58.952Z</time></trkpt><trkpt lat="44.7693053" lon="7.9658742"><ele>265.2</ele><time>2026-04-08T12:35:59.952Z</time></trkpt><trkpt lat="44.7692441" lon="7.9657562"><ele>265.79999999999995</ele><time>2026-04-08T12:36:00.952Z</time></trkpt><trkpt lat="44.7691824" lon="7.9656241"><ele>266.4</ele><time>2026-04-08T12:36:01.952Z</time></trkpt><trkpt lat="44.7691243" lon="7.9654807"><ele>267.0</ele><time>2026-04-08T12:36:02.952Z</time></trkpt><trkpt lat="44.7690694" lon="7.9653328"><ele>266.75</ele><time>2026-04-08T12:36:03.952Z</time></trkpt><trkpt lat="44.7690193" lon="7.9651915"><ele>266.5</ele><time>2026-04-08T12:36:04.952Z</time></trkpt><trkpt lat="44.7689644" lon="7.9650428"><ele>266.25</ele><time>2026-04-08T12:36:05.952Z</time></trkpt><trkpt lat="44.7689005" lon="7.9649142"><ele>266.0</ele><time>2026-04-08T12:36:06.952Z</time></trkpt><trkpt lat="44.7688274" lon="7.9647983"><ele>266.0</ele><time>2026-04-08T12:36:07.952Z</time></trkpt><trkpt lat="44.7687447" lon="7.9647005"><ele>266.0</ele><time>2026-04-08T12:36:08.952Z</time></trkpt><trkpt lat="44.7686481" lon="7.964605"><ele>266.0</ele><time>2026-04-08T12:36:09.952Z</time></trkpt><trkpt lat="44.7685459" lon="7.9644937"><ele>266.0</ele><time>2026-04-08T12:36:10.952Z</time></trkpt><trkpt lat="44.7684431" lon="7.9643736"><ele>267.25</ele><time>2026-04-08T12:36:11.952Z</time></trkpt><trkpt lat="44.7683324" lon="7.9642494"><ele>268.5</ele><time>2026-04-08T12:36:12.952Z</time></trkpt><trkpt lat="44.7682068" lon="7.9641243"><ele>269.75</ele><time>2026-04-08T12:36:13.952Z</time></trkpt><trkpt lat="44.7680804" lon="7.9640189"><ele>271.0</ele><time>2026-04-08T12:36:14.952Z</time></trkpt><trkpt lat="44.767946" lon="7.9639337"><ele>271.0</ele><time>2026-04-08T12:36:15.952Z</time></trkpt><trkpt lat="44.7678286" lon="7.9638643"><ele>271.0</ele><time>2026-04-08T12:36:16.952Z</time></trkpt><trkpt lat="44.7677261" lon="7.9637913"><ele>271.0</ele><time>2026-04-08T12:36:17.952Z</time></trkpt><trkpt lat="44.7676542" lon="7.9637262"><ele>271.0</ele><time>2026-04-08T12:36:18.952Z</time></trkpt><trkpt lat="44.7675948" lon="7.9636567"><ele>271.0</ele><time>2026-04-08T12:36:19.952Z</time></trkpt><trkpt lat="44.7675472" lon="7.963578"><ele>270.5</ele><time>2026-04-08T12:36:20.952Z</time></trkpt><trkpt lat="44.7675036" lon="7.9634906"><ele>270.0</ele><time>2026-04-08T12:36:21.952Z</time></trkpt><trkpt lat="44.7674635" lon="7.9633933"><ele>269.5</ele><time>2026-04-08T12:36:22.952Z</time></trkpt><trkpt lat="44.7674264" lon="7.9633021"><ele>269.0</ele><time>2026-04-08T12:36:23.952Z</time></trkpt><trkpt lat="44.7673915" lon="7.9632076"><ele>268.5</ele><time>2026-04-08T12:36:24.952Z</time></trkpt><trkpt lat="44.7673536" lon="7.9631285"><ele>268.0</ele><time>2026-04-08T12:36:25.952Z</time></trkpt><trkpt lat="44.7672888" lon="7.9630125"><ele>268.0</ele><time>2026-04-08T12:36:27.952Z</time></trkpt><trkpt lat="44.7672172" lon="7.9629827"><ele>268.0</ele><time>2026-04-08T12:36:38.952Z</time></trkpt><trkpt lat="44.7671549" lon="7.9630181"><ele>268.0</ele><time>2026-04-08T12:36:40.952Z</time></trkpt><trkpt lat="44.767071" lon="7.9631047"><ele>268.0</ele><time>2026-04-08T12:36:42.952Z</time></trkpt><trkpt lat="44.7669389" lon="7.9631375"><ele>268.0</ele><time>2026-04-08T12:36:44.952Z</time></trkpt><trkpt lat="44.7668516" lon="7.9631453"><ele>264.0</ele><time>2026-04-08T12:36:45.952Z</time></trkpt><trkpt lat="44.7667624" lon="7.9631549"><ele>260.0</ele><time>2026-04-08T12:36:46.952Z</time></trkpt><trkpt lat="44.7666703" lon="7.9631588"><ele>256.0</ele><time>2026-04-08T12:36:47.952Z</time></trkpt><trkpt lat="44.7665757" lon="7.9631561"><ele>252.0</ele><time>2026-04-08T12:36:48.952Z</time></trkpt><trkpt lat="44.7664903" lon="7.9631234"><ele>248.0</ele><time>2026-04-08T12:36:49.952Z</time></trkpt><trkpt lat="44.7664058" lon="7.9630466"><ele>248.0</ele><time>2026-04-08T12:36:50.952Z</time></trkpt><trkpt lat="44.7663475" lon="7.9629644"><ele>248.0</ele><time>2026-04-08T12:36:51.952Z</time></trkpt><trkpt lat="44.7663" lon="7.962833"><ele>248.0</ele><time>2026-04-08T12:36:52.952Z</time></trkpt><trkpt lat="44.7662576" lon="7.9626874"><ele>248.0</ele><time>2026-04-08T12:36:53.952Z</time></trkpt><trkpt lat="44.766214" lon="7.9625341"><ele>248.0</ele><time>2026-04-08T12:36:54.952Z</time></trkpt><trkpt lat="44.7661645" lon="7.9623663"><ele>249.0</ele><time>2026-04-08T12:36:55.952Z</time></trkpt><trkpt lat="44.7661113" lon="7.9621914"><ele>250.0</ele><time>2026-04-08T12:36:56.952Z</time></trkpt><trkpt lat="44.7660645" lon="7.9620134"><ele>251.0</ele><time>2026-04-08T12:36:57.952Z</time></trkpt><trkpt lat="44.7660206" lon="7.9618359"><ele>252.0</ele><time>2026-04-08T12:36:58.952Z</time></trkpt><trkpt lat="44.7659756" lon="7.9616488"><ele>248.25</ele><time>2026-04-08T12:36:59.952Z</time></trkpt><trkpt lat="44.7659337" lon="7.9614532"><ele>244.5</ele><time>2026-04-08T12:37:00.952Z</time></trkpt><trkpt lat="44.7658808" lon="7.9612612"><ele>240.75</ele><time>2026-04-08T12:37:01.952Z</time></trkpt><trkpt lat="44.7658286" lon="7.9610772"><ele>237.0</ele><time>2026-04-08T12:37:02.952Z</time></trkpt><trkpt lat="44.7657672" lon="7.9609015"><ele>237.75</ele><time>2026-04-08T12:37:03.952Z</time></trkpt><trkpt lat="44.7656968" lon="7.9607349"><ele>238.5</ele><time>2026-04-08T12:37:04.952Z</time></trkpt><trkpt lat="44.7656185" lon="7.9605715"><ele>239.25</ele><time>2026-04-08T12:37:05.952Z</time></trkpt><trkpt lat="44.7655432" lon="7.9604122"><ele>240.0</ele><time>2026-04-08T12:37:06.952Z</time></trkpt><trkpt lat="44.7654715" lon="7.9602602"><ele>240.0</ele><time>2026-04-08T12:37:07.952Z</time></trkpt><trkpt lat="44.7654004" lon="7.9601219"><ele>240.0</ele><time>2026-04-08T12:37:08.952Z</time></trkpt><trkpt lat="44.7653307" lon="7.9599964"><ele>240.0</ele><time>2026-04-08T12:37:09.952Z</time></trkpt><trkpt lat="44.7652692" lon="7.9598763"><ele>240.0</ele><time>2026-04-08T12:37:10.952Z</time></trkpt><trkpt lat="44.7652128" lon="7.959774"><ele>240.0</ele><time>2026-04-08T12:37:11.952Z</time></trkpt><trkpt lat="44.7651595" lon="7.9596896"><ele>240.0</ele><time>2026-04-08T12:37:12.952Z</time></trkpt><trkpt lat="44.7651103" lon="7.9596192"><ele>240.0</ele><time>2026-04-08T12:37:13.952Z</time></trkpt><trkpt lat="44.7650461" lon="7.9594929"><ele>240.0</ele><time>2026-04-08T12:37:15.952Z</time></trkpt><trkpt lat="44.7650692" lon="7.959351"><ele>240.0</ele><time>2026-04-08T12:37:17.952Z</time></trkpt><trkpt lat="44.765113" lon="7.95918"><ele>240.0</ele><time>2026-04-08T12:37:19.952Z</time></trkpt><trkpt lat="44.7651202" lon="7.959076"><ele>240.0</ele><time>2026-04-08T12:37:20.952Z</time></trkpt><trkpt lat="44.7651238" lon="7.9589671"><ele>240.0</ele><time>2026-04-08T12:37:21.952Z</time></trkpt><trkpt lat="44.7651318" lon="7.9588515"><ele>240.0</ele><time>2026-04-08T12:37:22.952Z</time></trkpt><trkpt lat="44.7651423" lon="7.9587405"><ele>240.0</ele><time>2026-04-08T12:37:23.952Z</time></trkpt><trkpt lat="44.7651576" lon="7.9586404"><ele>240.0</ele><time>2026-04-08T12:37:24.952Z</time></trkpt><trkpt lat="44.7651811" lon="7.9585396"><ele>240.0</ele><time>2026-04-08T12:37:25.952Z</time></trkpt><trkpt lat="44.7652245" lon="7.9584328"><ele>242.16666666666666</ele><time>2026-04-08T12:37:26.952Z</time></trkpt><trkpt lat="44.7652756" lon="7.9583493"><ele>244.33333333333331</ele><time>2026-04-08T12:37:27.952Z</time></trkpt><trkpt lat="44.7653352" lon="7.9582696"><ele>246.5</ele><time>2026-04-08T12:37:28.952Z</time></trkpt><trkpt lat="44.7653901" lon="7.958205"><ele>248.66666666666666</ele><time>2026-04-08T12:37:29.952Z</time></trkpt><trkpt lat="44.7654402" lon="7.9580999"><ele>250.83333333333331</ele><time>2026-04-08T12:37:31.952Z</time></trkpt><trkpt lat="44.7654094" lon="7.9579876"><ele>253.0</ele><time>2026-04-08T12:37:33.952Z</time></trkpt><trkpt lat="44.7653162" lon="7.9578615"><ele>252.99999999999997</ele><time>2026-04-08T12:37:35.952Z</time></trkpt><trkpt lat="44.7652565" lon="7.9577746"><ele>253.0</ele><time>2026-04-08T12:37:36.952Z</time></trkpt><trkpt lat="44.7651983" lon="7.9576996"><ele>253.0</ele><time>2026-04-08T12:37:37.952Z</time></trkpt><trkpt lat="44.7651488" lon="7.9575938"><ele>253.0</ele><time>2026-04-08T12:37:38.952Z</time></trkpt><trkpt lat="44.765097" lon="7.9574979"><ele>252.99999999999997</ele><time>2026-04-08T12:37:39.952Z</time></trkpt><trkpt lat="44.7650345" lon="7.9574077"><ele>253.0</ele><time>2026-04-08T12:37:40.952Z</time></trkpt><trkpt lat="44.7649712" lon="7.9573119"><ele>251.0</ele><time>2026-04-08T12:37:41.952Z</time></trkpt><trkpt lat="44.7649083" lon="7.9572025"><ele>249.0</ele><time>2026-04-08T12:37:42.952Z</time></trkpt><trkpt lat="44.764848" lon="7.9570977"><ele>247.0</ele><time>2026-04-08T12:37:43.952Z</time></trkpt><trkpt lat="44.7647858" lon="7.9569965"><ele>245.0</ele><time>2026-04-08T12:37:44.952Z</time></trkpt><trkpt lat="44.7647208" lon="7.9568989"><ele>243.0</ele><time>2026-04-08T12:37:45.952Z</time></trkpt><trkpt lat="44.7646686" lon="7.9568042"><ele>243.0</ele><time>2026-04-08T12:37:46.952Z</time></trkpt><trkpt lat="44.7646159" lon="7.9567036"><ele>243.0</ele><time>2026-04-08T12:37:47.952Z</time></trkpt><trkpt lat="44.7645562" lon="7.9566093"><ele>243.0</ele><time>2026-04-08T12:37:48.952Z</time></trkpt><trkpt lat="44.7645022" lon="7.9565103"><ele>243.0</ele><time>2026-04-08T12:37:49.952Z</time></trkpt><trkpt lat="44.7644451" lon="7.9564029"><ele>243.0</ele><time>2026-04-08T12:37:50.952Z</time></trkpt><trkpt lat="44.7643988" lon="7.9563059"><ele>243.0</ele><time>2026-04-08T12:37:51.952Z</time></trkpt><trkpt lat="44.7643539" lon="7.9562049"><ele>243.8</ele><time>2026-04-08T12:37:52.952Z</time></trkpt><trkpt lat="44.7643092" lon="7.956096"><ele>244.60000000000002</ele><time>2026-04-08T12:37:53.952Z</time></trkpt><trkpt lat="44.7642642" lon="7.955981"><ele>245.39999999999998</ele><time>2026-04-08T12:37:54.952Z</time></trkpt><trkpt lat="44.7642189" lon="7.9558532"><ele>246.2</ele><time>2026-04-08T12:37:55.952Z</time></trkpt><trkpt lat="44.7641705" lon="7.9557208"><ele>247.0</ele><time>2026-04-08T12:37:56.952Z</time></trkpt><trkpt lat="44.7641213" lon="7.9556014"><ele>247.16666666666666</ele><time>2026-04-08T12:37:57.952Z</time></trkpt><trkpt lat="44.7640741" lon="7.9554934"><ele>247.33333333333331</ele><time>2026-04-08T12:37:58.952Z</time></trkpt><trkpt lat="44.7640348" lon="7.9553908"><ele>247.5</ele><time>2026-04-08T12:37:59.952Z</time></trkpt><trkpt lat="44.7639914" lon="7.955291"><ele>247.66666666666669</ele><time>2026-04-08T12:38:00.951Z</time></trkpt><trkpt lat="44.7639438" lon="7.9551943"><ele>247.83333333333334</ele><time>2026-04-08T12:38:01.952Z</time></trkpt><trkpt lat="44.7638955" lon="7.9550852"><ele>248.0</ele><time>2026-04-08T12:38:02.952Z</time></trkpt><trkpt lat="44.7638457" lon="7.9549745"><ele>247.4</ele><time>2026-04-08T12:38:03.952Z</time></trkpt><trkpt lat="44.763787" lon="7.95487"><ele>246.8</ele><time>2026-04-08T12:38:04.952Z</time></trkpt><trkpt lat="44.7637198" lon="7.954775"><ele>246.2</ele><time>2026-04-08T12:38:05.952Z</time></trkpt><trkpt lat="44.7636365" lon="7.954688"><ele>245.6</ele><time>2026-04-08T12:38:06.952Z</time></trkpt><trkpt lat="44.7635581" lon="7.9546024"><ele>245.0</ele><time>2026-04-08T12:38:07.952Z</time></trkpt><trkpt lat="44.7634841" lon="7.9545156"><ele>245.00000000000003</ele><time>2026-04-08T12:38:08.952Z</time></trkpt><trkpt lat="44.7634252" lon="7.9544287"><ele>245.0</ele><time>2026-04-08T12:38:09.952Z</time></trkpt><trkpt lat="44.7633795" lon="7.9543383"><ele>245.0</ele><time>2026-04-08T12:38:10.952Z</time></trkpt><trkpt lat="44.7633315" lon="7.95425"><ele>245.0</ele><time>2026-04-08T12:38:11.952Z</time></trkpt><trkpt lat="44.7632817" lon="7.9541491"><ele>245.00000000000003</ele><time>2026-04-08T12:38:12.952Z</time></trkpt><trkpt lat="44.7632368" lon="7.9540505"><ele>245.0</ele><time>2026-04-08T12:38:13.952Z</time></trkpt><trkpt lat="44.7631861" lon="7.9539444"><ele>245.33333333333334</ele><time>2026-04-08T12:38:14.952Z</time></trkpt><trkpt lat="44.7631358" lon="7.9538432"><ele>245.66666666666669</ele><time>2026-04-08T12:38:15.952Z</time></trkpt><trkpt lat="44.7630852" lon="7.9537497"><ele>246.0</ele><time>2026-04-08T12:38:16.952Z</time></trkpt><trkpt lat="44.7630349" lon="7.953654"><ele>246.33333333333331</ele><time>2026-04-08T12:38:17.952Z</time></trkpt><trkpt lat="44.762991" lon="7.953573"><ele>246.66666666666666</ele><time>2026-04-08T12:38:18.952Z</time></trkpt><trkpt lat="44.7629418" lon="7.9534807"><ele>247.0</ele><time>2026-04-08T12:38:19.952Z</time></trkpt><trkpt lat="44.7629015" lon="7.9533946"><ele>247.16666666666666</ele><time>2026-04-08T12:38:20.952Z</time></trkpt><trkpt lat="44.7628641" lon="7.9533154"><ele>247.33333333333331</ele><time>2026-04-08T12:38:21.952Z</time></trkpt><trkpt lat="44.7628137" lon="7.9532376"><ele>247.5</ele><time>2026-04-08T12:38:22.952Z</time></trkpt><trkpt lat="44.762771" lon="7.953149"><ele>247.66666666666669</ele><time>2026-04-08T12:38:23.952Z</time></trkpt><trkpt lat="44.7627172" lon="7.9530608"><ele>247.83333333333334</ele><time>2026-04-08T12:38:24.952Z</time></trkpt><trkpt lat="44.762674" lon="7.9529686"><ele>248.0</ele><time>2026-04-08T12:38:25.952Z</time></trkpt><trkpt lat="44.7626429" lon="7.9528761"><ele>248.00000000000003</ele><time>2026-04-08T12:38:26.952Z</time></trkpt><trkpt lat="44.7626009" lon="7.9527712"><ele>248.0</ele><time>2026-04-08T12:38:27.952Z</time></trkpt><trkpt lat="44.7625512" lon="7.9526775"><ele>248.0</ele><time>2026-04-08T12:38:28.952Z</time></trkpt><trkpt lat="44.7624977" lon="7.9525769"><ele>248.0</ele><time>2026-04-08T12:38:29.952Z</time></trkpt><trkpt lat="44.7624439" lon="7.9524806"><ele>248.00000000000003</ele><time>2026-04-08T12:38:30.952Z</time></trkpt><trkpt lat="44.762378" lon="7.9523881"><ele>248.0</ele><time>2026-04-08T12:38:31.952Z</time></trkpt><trkpt lat="44.762315" lon="7.9522903"><ele>248.60000000000002</ele><time>2026-04-08T12:38:32.952Z</time></trkpt><trkpt lat="44.7622486" lon="7.9521981"><ele>249.20000000000002</ele><time>2026-04-08T12:38:33.952Z</time></trkpt><trkpt lat="44.7621922" lon="7.9521098"><ele>249.8</ele><time>2026-04-08T12:38:34.952Z</time></trkpt><trkpt lat="44.7621275" lon="7.9520189"><ele>250.4</ele><time>2026-04-08T12:38:35.952Z</time></trkpt><trkpt lat="44.7620525" lon="7.9519182"><ele>251.0</ele><time>2026-04-08T12:38:36.952Z</time></trkpt><trkpt lat="44.7619877" lon="7.9518272"><ele>251.00000000000003</ele><time>2026-04-08T12:38:37.952Z</time></trkpt><trkpt lat="44.7619267" lon="7.9517406"><ele>251.0</ele><time>2026-04-08T12:38:38.952Z</time></trkpt><trkpt lat="44.761857" lon="7.9516503"><ele>251.0</ele><time>2026-04-08T12:38:39.952Z</time></trkpt><trkpt lat="44.761793" lon="7.9515712"><ele>251.0</ele><time>2026-04-08T12:38:40.952Z</time></trkpt><trkpt lat="44.7617226" lon="7.9515086"><ele>251.00000000000003</ele><time>2026-04-08T12:38:41.952Z</time></trkpt><trkpt lat="44.761664" lon="7.951445"><ele>251.0</ele><time>2026-04-08T12:38:42.952Z</time></trkpt><trkpt lat="44.7616119" lon="7.9513835"><ele>251.33333333333334</ele><time>2026-04-08T12:38:43.952Z</time></trkpt><trkpt lat="44.7615347" lon="7.9512982"><ele>251.66666666666669</ele><time>2026-04-08T12:38:45.952Z</time></trkpt><trkpt lat="44.7614739" lon="7.9512403"><ele>252.0</ele><time>2026-04-08T12:38:48.952Z</time></trkpt><trkpt lat="44.7614074" lon="7.9511713"><ele>252.33333333333331</ele><time>2026-04-08T12:38:50.952Z</time></trkpt><trkpt lat="44.7613402" lon="7.9510888"><ele>252.66666666666666</ele><time>2026-04-08T12:38:52.952Z</time></trkpt><trkpt lat="44.7612669" lon="7.9510048"><ele>253.0</ele><time>2026-04-08T12:38:54.952Z</time></trkpt><trkpt lat="44.7612106" lon="7.9508886"><ele>253.66666666666666</ele><time>2026-04-08T12:38:56.952Z</time></trkpt><trkpt lat="44.7612387" lon="7.9507724"><ele>254.33333333333331</ele><time>2026-04-08T12:38:58.952Z</time></trkpt><trkpt lat="44.7613047" lon="7.9506807"><ele>255.0</ele><time>2026-04-08T12:39:00.952Z</time></trkpt><trkpt lat="44.7613753" lon="7.9506145"><ele>255.66666666666669</ele><time>2026-04-08T12:39:02.952Z</time></trkpt><trkpt lat="44.7614664" lon="7.9505409"><ele>256.33333333333337</ele><time>2026-04-08T12:39:04.952Z</time></trkpt><trkpt lat="44.7615232" lon="7.9504951"><ele>257.0</ele><time>2026-04-08T12:39:05.952Z</time></trkpt><trkpt lat="44.7615876" lon="7.9504613"><ele>257.0</ele><time>2026-04-08T12:39:06.952Z</time></trkpt><trkpt lat="44.7617104" lon="7.9504226"><ele>257.0</ele><time>2026-04-08T12:39:08.952Z</time></trkpt><trkpt lat="44.7617828" lon="7.9504038"><ele>257.0</ele><time>2026-04-08T12:39:09.952Z</time></trkpt><trkpt lat="44.7618511" lon="7.9504042"><ele>257.0</ele><time>2026-04-08T12:39:10.952Z</time></trkpt><trkpt lat="44.7619249" lon="7.9504007"><ele>257.0</ele><time>2026-04-08T12:39:11.952Z</time></trkpt><trkpt lat="44.7620107" lon="7.9504128"><ele>257.0</ele><time>2026-04-08T12:39:12.952Z</time></trkpt><trkpt lat="44.7620943" lon="7.9504369"><ele>259.1666666666667</ele><time>2026-04-08T12:39:13.952Z</time></trkpt><trkpt lat="44.7621822" lon="7.9504086"><ele>261.33333333333337</ele><time>2026-04-08T12:39:14.952Z</time></trkpt><trkpt lat="44.7622497" lon="7.9503909"><ele>263.5</ele><time>2026-04-08T12:39:15.952Z</time></trkpt><trkpt lat="44.7623186" lon="7.9503544"><ele>265.6666666666667</ele><time>2026-04-08T12:39:16.952Z</time></trkpt><trkpt lat="44.7623816" lon="7.9503135"><ele>267.8333333333333</ele><time>2026-04-08T12:39:17.952Z</time></trkpt><trkpt lat="44.7624401" lon="7.9502513"><ele>270.0</ele><time>2026-04-08T12:39:18.952Z</time></trkpt><trkpt lat="44.7625271" lon="7.9501322"><ele>270.0</ele><time>2026-04-08T12:39:20.952Z</time></trkpt><trkpt lat="44.7625798" lon="7.9500546"><ele>270.0</ele><time>2026-04-08T12:39:21.952Z</time></trkpt><trkpt lat="44.762626" lon="7.9499681"><ele>270.0</ele><time>2026-04-08T12:39:22.952Z</time></trkpt><trkpt lat="44.7626835" lon="7.9498928"><ele>270.0</ele><time>2026-04-08T12:39:24.952Z</time></trkpt><trkpt lat="44.7626185" lon="7.9497737"><ele>270.0</ele><time>2026-04-08T12:39:28.952Z</time></trkpt><trkpt lat="44.7625327" lon="7.9497371"><ele>270.0</ele><time>2026-04-08T12:39:30.952Z</time></trkpt><trkpt lat="44.7624091" lon="7.9496692"><ele>271.3333333333333</ele><time>2026-04-08T12:39:32.952Z</time></trkpt><trkpt lat="44.7623463" lon="7.9496404"><ele>272.6666666666667</ele><time>2026-04-08T12:39:33.952Z</time></trkpt><trkpt lat="44.7622851" lon="7.9495952"><ele>274.0</ele><time>2026-04-08T12:39:34.952Z</time></trkpt><trkpt lat="44.7622205" lon="7.949533"><ele>275.33333333333337</ele><time>2026-04-08T12:39:35.952Z</time></trkpt><trkpt lat="44.7621563" lon="7.949468"><ele>276.6666666666667</ele><time>2026-04-08T12:39:36.952Z</time></trkpt><trkpt lat="44.7620941" lon="7.9493911"><ele>278.0</ele><time>2026-04-08T12:39:37.952Z</time></trkpt><trkpt lat="44.7620307" lon="7.9492991"><ele>278.0</ele><time>2026-04-08T12:39:38.952Z</time></trkpt><trkpt lat="44.7619622" lon="7.9492181"><ele>278.0</ele><time>2026-04-08T12:39:39.952Z</time></trkpt><trkpt lat="44.7618972" lon="7.9491435"><ele>278.0</ele><time>2026-04-08T12:39:40.952Z</time></trkpt><trkpt lat="44.7618427" lon="7.9490797"><ele>278.0</ele><time>2026-04-08T12:39:41.952Z</time></trkpt><trkpt lat="44.761787" lon="7.9490048"><ele>278.0</ele><time>2026-04-08T12:39:42.952Z</time></trkpt><trkpt lat="44.7617264" lon="7.9489332"><ele>278.0</ele><time>2026-04-08T12:39:43.952Z</time></trkpt><trkpt lat="44.7616609" lon="7.9488724"><ele>278.0</ele><time>2026-04-08T12:39:44.952Z</time></trkpt><trkpt lat="44.7615873" lon="7.9488103"><ele>278.0</ele><time>2026-04-08T12:39:45.952Z</time></trkpt><trkpt lat="44.7615101" lon="7.9487533"><ele>278.0</ele><time>2026-04-08T12:39:46.952Z</time></trkpt><trkpt lat="44.7614374" lon="7.9486908"><ele>278.0</ele><time>2026-04-08T12:39:47.952Z</time></trkpt><trkpt lat="44.7613576" lon="7.9486241"><ele>278.0</ele><time>2026-04-08T12:39:48.952Z</time></trkpt><trkpt lat="44.7612757" lon="7.9485653"><ele>278.0</ele><time>2026-04-08T12:39:49.952Z</time></trkpt><trkpt lat="44.7611975" lon="7.9485146"><ele>278.0</ele><time>2026-04-08T12:39:50.952Z</time></trkpt><trkpt lat="44.7611175" lon="7.9484641"><ele>278.0</ele><time>2026-04-08T12:39:51.952Z</time></trkpt><trkpt lat="44.7610375" lon="7.9484202"><ele>278.0</ele><time>2026-04-08T12:39:52.952Z</time></trkpt><trkpt lat="44.7609589" lon="7.9483745"><ele>278.0</ele><time>2026-04-08T12:39:53.952Z</time></trkpt><trkpt lat="44.7608785" lon="7.9483332"><ele>278.0</ele><time>2026-04-08T12:39:54.952Z</time></trkpt><trkpt lat="44.7607955" lon="7.9483042"><ele>278.0</ele><time>2026-04-08T12:39:55.952Z</time></trkpt><trkpt lat="44.760711" lon="7.9482802"><ele>279.6666666666667</ele><time>2026-04-08T12:39:56.952Z</time></trkpt><trkpt lat="44.7606152" lon="7.9482691"><ele>281.33333333333337</ele><time>2026-04-08T12:39:57.952Z</time></trkpt><trkpt lat="44.7605334" lon="7.9482464"><ele>283.0</ele><time>2026-04-08T12:39:58.952Z</time></trkpt><trkpt lat="44.760455" lon="7.9482153"><ele>284.6666666666667</ele><time>2026-04-08T12:39:59.952Z</time></trkpt><trkpt lat="44.7603781" lon="7.9481618"><ele>286.3333333333333</ele><time>2026-04-08T12:40:00.952Z</time></trkpt><trkpt lat="44.7603082" lon="7.9480881"><ele>288.0</ele><time>2026-04-08T12:40:01.952Z</time></trkpt><trkpt lat="44.7602308" lon="7.9480031"><ele>287.6</ele><time>2026-04-08T12:40:02.952Z</time></trkpt><trkpt lat="44.7601549" lon="7.9479163"><ele>287.20000000000005</ele><time>2026-04-08T12:40:03.952Z</time></trkpt><trkpt lat="44.7600742" lon="7.9478325"><ele>286.8</ele><time>2026-04-08T12:40:04.952Z</time></trkpt><trkpt lat="44.7599889" lon="7.9477575"><ele>286.40000000000003</ele><time>2026-04-08T12:40:05.952Z</time></trkpt><trkpt lat="44.7598961" lon="7.9476905"><ele>286.0</ele><time>2026-04-08T12:40:06.952Z</time></trkpt><trkpt lat="44.7598021" lon="7.9476242"><ele>286.0</ele><time>2026-04-08T12:40:07.952Z</time></trkpt><trkpt lat="44.7597088" lon="7.9475594"><ele>286.0</ele><time>2026-04-08T12:40:08.952Z</time></trkpt><trkpt lat="44.7596234" lon="7.9475001"><ele>286.0</ele><time>2026-04-08T12:40:09.952Z</time></trkpt><trkpt lat="44.7595381" lon="7.9474373"><ele>286.0</ele><time>2026-04-08T12:40:10.952Z</time></trkpt><trkpt lat="44.7594662" lon="7.9473792"><ele>286.0</ele><time>2026-04-08T12:40:11.952Z</time></trkpt><trkpt lat="44.7593968" lon="7.9472948"><ele>288.8</ele><time>2026-04-08T12:40:12.952Z</time></trkpt><trkpt lat="44.7593414" lon="7.9472068"><ele>291.6</ele><time>2026-04-08T12:40:13.952Z</time></trkpt><trkpt lat="44.7592872" lon="7.9471034"><ele>294.4</ele><time>2026-04-08T12:40:14.952Z</time></trkpt><trkpt lat="44.7592258" lon="7.9470011"><ele>297.2</ele><time>2026-04-08T12:40:15.952Z</time></trkpt><trkpt lat="44.7591562" lon="7.9469176"><ele>300.0</ele><time>2026-04-08T12:40:16.952Z</time></trkpt><trkpt lat="44.7590785" lon="7.9468378"><ele>300.0</ele><time>2026-04-08T12:40:17.952Z</time></trkpt><trkpt lat="44.759001" lon="7.9467453"><ele>300.0</ele><time>2026-04-08T12:40:18.952Z</time></trkpt><trkpt lat="44.7589225" lon="7.946653"><ele>300.0</ele><time>2026-04-08T12:40:19.952Z</time></trkpt><trkpt lat="44.758842" lon="7.946551"><ele>300.0</ele><time>2026-04-08T12:40:20.952Z</time></trkpt><trkpt lat="44.7587618" lon="7.9464504"><ele>300.0</ele><time>2026-04-08T12:40:21.952Z</time></trkpt><trkpt lat="44.7586908" lon="7.9463618"><ele>300.0</ele><time>2026-04-08T12:40:22.952Z</time></trkpt><trkpt lat="44.7586096" lon="7.9463004"><ele>300.0</ele><time>2026-04-08T12:40:23.952Z</time></trkpt><trkpt lat="44.7585143" lon="7.946268"><ele>300.0</ele><time>2026-04-08T12:40:24.952Z</time></trkpt><trkpt lat="44.7584109" lon="7.9462668"><ele>300.0</ele><time>2026-04-08T12:40:25.952Z</time></trkpt><trkpt lat="44.7583" lon="7.946274"><ele>300.0</ele><time>2026-04-08T12:40:26.952Z</time></trkpt><trkpt lat="44.7581843" lon="7.9462632"><ele>301.8</ele><time>2026-04-08T12:40:27.952Z</time></trkpt><trkpt lat="44.7580722" lon="7.9462613"><ele>303.6</ele><time>2026-04-08T12:40:28.952Z</time></trkpt><trkpt lat="44.7579635" lon="7.9462425"><ele>305.4</ele><time>2026-04-08T12:40:29.952Z</time></trkpt><trkpt lat="44.7578593" lon="7.9461883"><ele>307.2</ele><time>2026-04-08T12:40:30.952Z</time></trkpt><trkpt lat="44.7577604" lon="7.9461253"><ele>309.0</ele><time>2026-04-08T12:40:31.952Z</time></trkpt><trkpt lat="44.7576528" lon="7.9460721"><ele>309.0</ele><time>2026-04-08T12:40:32.952Z</time></trkpt><trkpt lat="44.7575485" lon="7.9460113"><ele>309.0</ele><time>2026-04-08T12:40:33.952Z</time></trkpt><trkpt lat="44.7574532" lon="7.9459359"><ele>309.0</ele><time>2026-04-08T12:40:34.952Z</time></trkpt><trkpt lat="44.7573744" lon="7.9458361"><ele>309.0</ele><time>2026-04-08T12:40:35.952Z</time></trkpt><trkpt lat="44.7573072" lon="7.9457147"><ele>309.0</ele><time>2026-04-08T12:40:36.952Z</time></trkpt><trkpt lat="44.7572507" lon="7.9456125"><ele>309.0</ele><time>2026-04-08T12:40:37.951Z</time></trkpt><trkpt lat="44.7572073" lon="7.9455079"><ele>309.0</ele><time>2026-04-08T12:40:38.952Z</time></trkpt><trkpt lat="44.7571726" lon="7.9454014"><ele>309.0</ele><time>2026-04-08T12:40:39.952Z</time></trkpt><trkpt lat="44.7571454" lon="7.9453126"><ele>309.0</ele><time>2026-04-08T12:40:40.952Z</time></trkpt><trkpt lat="44.7571314" lon="7.9452215"><ele>309.0</ele><time>2026-04-08T12:40:41.952Z</time></trkpt><trkpt lat="44.7570949" lon="7.945105"><ele>309.0</ele><time>2026-04-08T12:40:43.952Z</time></trkpt><trkpt lat="44.7570267" lon="7.9450292"><ele>309.8333333333333</ele><time>2026-04-08T12:40:45.952Z</time></trkpt><trkpt lat="44.7569257" lon="7.9449465"><ele>310.6666666666667</ele><time>2026-04-08T12:40:47.952Z</time></trkpt><trkpt lat="44.7568672" lon="7.9449041"><ele>311.5</ele><time>2026-04-08T12:40:48.952Z</time></trkpt><trkpt lat="44.7567929" lon="7.9448415"><ele>312.33333333333337</ele><time>2026-04-08T12:40:49.952Z</time></trkpt><trkpt lat="44.7567225" lon="7.9447996"><ele>313.1666666666667</ele><time>2026-04-08T12:40:50.952Z</time></trkpt><trkpt lat="44.7566435" lon="7.9447572"><ele>314.0</ele><time>2026-04-08T12:40:51.952Z</time></trkpt><trkpt lat="44.7565623" lon="7.9447139"><ele>314.0</ele><time>2026-04-08T12:40:52.952Z</time></trkpt><trkpt lat="44.7564802" lon="7.9447017"><ele>314.0</ele><time>2026-04-08T12:40:53.952Z</time></trkpt><trkpt lat="44.7563832" lon="7.9446928"><ele>314.0</ele><time>2026-04-08T12:40:54.952Z</time></trkpt><trkpt lat="44.7562775" lon="7.9446917"><ele>314.0</ele><time>2026-04-08T12:40:55.952Z</time></trkpt><trkpt lat="44.7561664" lon="7.9446959"><ele>314.0</ele><time>2026-04-08T12:40:56.952Z</time></trkpt><trkpt lat="44.75606" lon="7.9446969"><ele>313.2</ele><time>2026-04-08T12:40:57.952Z</time></trkpt><trkpt lat="44.755957" lon="7.9446976"><ele>312.4</ele><time>2026-04-08T12:40:58.952Z</time></trkpt><trkpt lat="44.755849" lon="7.9446993"><ele>311.6</ele><time>2026-04-08T12:40:59.952Z</time></trkpt><trkpt lat="44.755736" lon="7.9446942"><ele>310.8</ele><time>2026-04-08T12:41:00.952Z</time></trkpt><trkpt lat="44.7556272" lon="7.9446993"><ele>310.0</ele><time>2026-04-08T12:41:01.952Z</time></trkpt><trkpt lat="44.7555227" lon="7.9446974"><ele>310.0</ele><time>2026-04-08T12:41:02.952Z</time></trkpt><trkpt lat="44.7554107" lon="7.9446734"><ele>310.0</ele><time>2026-04-08T12:41:03.952Z</time></trkpt><trkpt lat="44.7552994" lon="7.9446448"><ele>310.0</ele><time>2026-04-08T12:41:04.952Z</time></trkpt><trkpt lat="44.7551935" lon="7.9445705"><ele>310.0</ele><time>2026-04-08T12:41:05.952Z</time></trkpt><trkpt lat="44.7550958" lon="7.9444877"><ele>309.4</ele><time>2026-04-08T12:41:06.952Z</time></trkpt><trkpt lat="44.7550144" lon="7.9443825"><ele>308.8</ele><time>2026-04-08T12:41:07.952Z</time></trkpt><trkpt lat="44.7549549" lon="7.9442771"><ele>308.2</ele><time>2026-04-08T12:41:08.952Z</time></trkpt><trkpt lat="44.7549283" lon="7.9441379"><ele>307.6</ele><time>2026-04-08T12:41:09.952Z</time></trkpt><trkpt lat="44.7549376" lon="7.9439921"><ele>307.0</ele><time>2026-04-08T12:41:10.952Z</time></trkpt><trkpt lat="44.7549743" lon="7.9438548"><ele>308.2</ele><time>2026-04-08T12:41:11.952Z</time></trkpt><trkpt lat="44.7550263" lon="7.9437327"><ele>309.4</ele><time>2026-04-08T12:41:12.952Z</time></trkpt><trkpt lat="44.755079" lon="7.9436146"><ele>310.6</ele><time>2026-04-08T12:41:13.952Z</time></trkpt><trkpt lat="44.7551242" lon="7.9434957"><ele>311.8</ele><time>2026-04-08T12:41:14.952Z</time></trkpt><trkpt lat="44.7551686" lon="7.9433803"><ele>313.0</ele><time>2026-04-08T12:41:15.952Z</time></trkpt><trkpt lat="44.7551956" lon="7.9432517"><ele>313.0</ele><time>2026-04-08T12:41:16.952Z</time></trkpt><trkpt lat="44.7551977" lon="7.943124"><ele>313.0</ele><time>2026-04-08T12:41:17.952Z</time></trkpt><trkpt lat="44.7551617" lon="7.9430052"><ele>313.0</ele><time>2026-04-08T12:41:18.952Z</time></trkpt><trkpt lat="44.7550915" lon="7.9429138"><ele>313.0</ele><time>2026-04-08T12:41:19.952Z</time></trkpt><trkpt lat="44.755001" lon="7.94287"><ele>313.0</ele><time>2026-04-08T12:41:20.952Z</time></trkpt><trkpt lat="44.7548992" lon="7.942859"><ele>313.0</ele><time>2026-04-08T12:41:21.952Z</time></trkpt><trkpt lat="44.7547999" lon="7.9428611"><ele>313.0</ele><time>2026-04-08T12:41:22.952Z</time></trkpt><trkpt lat="44.7547044" lon="7.9428628"><ele>313.0</ele><time>2026-04-08T12:41:23.952Z</time></trkpt><trkpt lat="44.7546131" lon="7.9428614"><ele>313.0</ele><time>2026-04-08T12:41:24.952Z</time></trkpt><trkpt lat="44.7545234" lon="7.9428401"><ele>313.0</ele><time>2026-04-08T12:41:25.952Z</time></trkpt><trkpt lat="44.7544394" lon="7.9428044"><ele>313.0</ele><time>2026-04-08T12:41:26.952Z</time></trkpt><trkpt lat="44.7543715" lon="7.9427461"><ele>313.0</ele><time>2026-04-08T12:41:27.952Z</time></trkpt><trkpt lat="44.7543265" lon="7.9426671"><ele>313.0</ele><time>2026-04-08T12:41:28.952Z</time></trkpt><trkpt lat="44.7543009" lon="7.9425718"><ele>313.0</ele><time>2026-04-08T12:41:29.952Z</time></trkpt><trkpt lat="44.7542961" lon="7.9424629"><ele>313.0</ele><time>2026-04-08T12:41:30.952Z</time></trkpt><trkpt lat="44.7543131" lon="7.9423568"><ele>313.0</ele><time>2026-04-08T12:41:31.952Z</time></trkpt><trkpt lat="44.7543518" lon="7.9422486"><ele>313.3333333333333</ele><time>2026-04-08T12:41:32.952Z</time></trkpt><trkpt lat="44.7543991" lon="7.9421587"><ele>313.66666666666663</ele><time>2026-04-08T12:41:33.952Z</time></trkpt><trkpt lat="44.7544576" lon="7.9420657"><ele>314.0</ele><time>2026-04-08T12:41:34.952Z</time></trkpt><trkpt lat="44.7545238" lon="7.9419779"><ele>314.3333333333333</ele><time>2026-04-08T12:41:35.952Z</time></trkpt><trkpt lat="44.7545794" lon="7.9418742"><ele>314.6666666666667</ele><time>2026-04-08T12:41:36.952Z</time></trkpt><trkpt lat="44.754613" lon="7.9417555"><ele>315.0</ele><time>2026-04-08T12:41:37.952Z</time></trkpt><trkpt lat="44.7546311" lon="7.9416177"><ele>314.0</ele><time>2026-04-08T12:41:38.952Z</time></trkpt><trkpt lat="44.7546417" lon="7.9414742"><ele>313.0</ele><time>2026-04-08T12:41:39.952Z</time></trkpt><trkpt lat="44.7546578" lon="7.9413376"><ele>312.0</ele><time>2026-04-08T12:41:40.952Z</time></trkpt><trkpt lat="44.7546707" lon="7.9412041"><ele>311.0</ele><time>2026-04-08T12:41:41.952Z</time></trkpt><trkpt lat="44.7546762" lon="7.9410744"><ele>310.0</ele><time>2026-04-08T12:41:42.952Z</time></trkpt><trkpt lat="44.7546981" lon="7.9409482"><ele>307.4</ele><time>2026-04-08T12:41:43.952Z</time></trkpt><trkpt lat="44.7547424" lon="7.9408409"><ele>304.8</ele><time>2026-04-08T12:41:44.952Z</time></trkpt><trkpt lat="44.7548234" lon="7.9407783"><ele>302.2</ele><time>2026-04-08T12:41:45.952Z</time></trkpt><trkpt lat="44.7549101" lon="7.9407247"><ele>299.6</ele><time>2026-04-08T12:41:46.952Z</time></trkpt><trkpt lat="44.7550013" lon="7.9407011"><ele>297.0</ele><time>2026-04-08T12:41:47.952Z</time></trkpt><trkpt lat="44.7551006" lon="7.940689"><ele>297.0</ele><time>2026-04-08T12:41:48.952Z</time></trkpt><trkpt lat="44.7552024" lon="7.9406672"><ele>297.0</ele><time>2026-04-08T12:41:49.952Z</time></trkpt><trkpt lat="44.755296" lon="7.9406134"><ele>297.0</ele><time>2026-04-08T12:41:50.952Z</time></trkpt><trkpt lat="44.7553867" lon="7.940525"><ele>297.0</ele><time>2026-04-08T12:41:51.952Z</time></trkpt><trkpt lat="44.7554636" lon="7.940413"><ele>297.0</ele><time>2026-04-08T12:41:52.952Z</time></trkpt><trkpt lat="44.7555326" lon="7.9402785"><ele>296.5</ele><time>2026-04-08T12:41:53.952Z</time></trkpt><trkpt lat="44.7556003" lon="7.9401285"><ele>296.0</ele><time>2026-04-08T12:41:54.952Z</time></trkpt><trkpt lat="44.7556656" lon="7.9399749"><ele>295.5</ele><time>2026-04-08T12:41:55.952Z</time></trkpt><trkpt lat="44.7557325" lon="7.9398312"><ele>295.0</ele><time>2026-04-08T12:41:56.952Z</time></trkpt><trkpt lat="44.7557953" lon="7.9396906"><ele>292.4</ele><time>2026-04-08T12:41:57.952Z</time></trkpt><trkpt lat="44.7558555" lon="7.9395561"><ele>289.8</ele><time>2026-04-08T12:41:58.952Z</time></trkpt><trkpt lat="44.7558994" lon="7.939415"><ele>287.2</ele><time>2026-04-08T12:41:59.952Z</time></trkpt><trkpt lat="44.7559365" lon="7.9392776"><ele>284.6</ele><time>2026-04-08T12:42:00.952Z</time></trkpt><trkpt lat="44.7559627" lon="7.939128"><ele>282.0</ele><time>2026-04-08T12:42:01.952Z</time></trkpt><trkpt lat="44.7559875" lon="7.9389697"><ele>280.25</ele><time>2026-04-08T12:42:02.952Z</time></trkpt><trkpt lat="44.7560135" lon="7.9388105"><ele>278.5</ele><time>2026-04-08T12:42:03.952Z</time></trkpt><trkpt lat="44.7560425" lon="7.9386605"><ele>276.75</ele><time>2026-04-08T12:42:04.952Z</time></trkpt><trkpt lat="44.7560822" lon="7.9384995"><ele>275.0</ele><time>2026-04-08T12:42:05.952Z</time></trkpt><trkpt lat="44.7561249" lon="7.9383479"><ele>272.5</ele><time>2026-04-08T12:42:06.952Z</time></trkpt><trkpt lat="44.7561841" lon="7.9382011"><ele>270.0</ele><time>2026-04-08T12:42:07.952Z</time></trkpt><trkpt lat="44.7562509" lon="7.9380728"><ele>267.5</ele><time>2026-04-08T12:42:08.952Z</time></trkpt><trkpt lat="44.7563269" lon="7.937942"><ele>265.0</ele><time>2026-04-08T12:42:09.952Z</time></trkpt><trkpt lat="44.7564046" lon="7.9378182"><ele>265.0</ele><time>2026-04-08T12:42:10.952Z</time></trkpt><trkpt lat="44.75648" lon="7.9376814"><ele>265.0</ele><time>2026-04-08T12:42:11.952Z</time></trkpt><trkpt lat="44.7565524" lon="7.9375567"><ele>265.0</ele><time>2026-04-08T12:42:12.952Z</time></trkpt><trkpt lat="44.7566109" lon="7.9374205"><ele>265.0</ele><time>2026-04-08T12:42:13.952Z</time></trkpt><trkpt lat="44.756655" lon="7.9372764"><ele>264.66666666666663</ele><time>2026-04-08T12:42:14.952Z</time></trkpt><trkpt lat="44.7566813" lon="7.9371429"><ele>264.3333333333333</ele><time>2026-04-08T12:42:15.952Z</time></trkpt><trkpt lat="44.7567044" lon="7.9370149"><ele>264.0</ele><time>2026-04-08T12:42:16.952Z</time></trkpt><trkpt lat="44.7567117" lon="7.9368941"><ele>263.6666666666667</ele><time>2026-04-08T12:42:17.952Z</time></trkpt><trkpt lat="44.7567107" lon="7.9367742"><ele>263.33333333333337</ele><time>2026-04-08T12:42:18.952Z</time></trkpt><trkpt lat="44.7567108" lon="7.9366705"><ele>263.0</ele><time>2026-04-08T12:42:19.952Z</time></trkpt><trkpt lat="44.7567169" lon="7.9365785"><ele>262.6666666666667</ele><time>2026-04-08T12:42:20.952Z</time></trkpt><trkpt lat="44.7567283" lon="7.9364361"><ele>262.33333333333337</ele><time>2026-04-08T12:42:22.952Z</time></trkpt><trkpt lat="44.7567319" lon="7.9363366"><ele>262.0</ele><time>2026-04-08T12:42:24.952Z</time></trkpt><trkpt lat="44.7567156" lon="7.9362435"><ele>261.6666666666667</ele><time>2026-04-08T12:42:26.952Z</time></trkpt><trkpt lat="44.7566921" lon="7.9361203"><ele>261.3333333333333</ele><time>2026-04-08T12:42:28.952Z</time></trkpt><trkpt lat="44.7567155" lon="7.9359867"><ele>261.0</ele><time>2026-04-08T12:42:30.952Z</time></trkpt><trkpt lat="44.7567536" lon="7.9358626"><ele>260.40000000000003</ele><time>2026-04-08T12:42:32.952Z</time></trkpt><trkpt lat="44.7567905" lon="7.9357261"><ele>259.8</ele><time>2026-04-08T12:42:34.952Z</time></trkpt><trkpt lat="44.7568369" lon="7.9355947"><ele>259.20000000000005</ele><time>2026-04-08T12:42:36.952Z</time></trkpt><trkpt lat="44.7568937" lon="7.9354431"><ele>258.6</ele><time>2026-04-08T12:42:38.952Z</time></trkpt><trkpt lat="44.7569276" lon="7.9353633"><ele>258.0</ele><time>2026-04-08T12:42:39.952Z</time></trkpt><trkpt lat="44.7569592" lon="7.9352866"><ele>258.71428571428567</ele><time>2026-04-08T12:42:40.952Z</time></trkpt><trkpt lat="44.7569951" lon="7.935206"><ele>259.42857142857144</ele><time>2026-04-08T12:42:41.952Z</time></trkpt><trkpt lat="44.7570312" lon="7.9351271"><ele>260.1428571428571</ele><time>2026-04-08T12:42:42.952Z</time></trkpt><trkpt lat="44.7570722" lon="7.9350462"><ele>260.85714285714283</ele><time>2026-04-08T12:42:43.952Z</time></trkpt><trkpt lat="44.7571024" lon="7.9349562"><ele>261.57142857142856</ele><time>2026-04-08T12:42:44.952Z</time></trkpt><trkpt lat="44.757136" lon="7.9348679"><ele>262.2857142857143</ele><time>2026-04-08T12:42:45.952Z</time></trkpt><trkpt lat="44.7571753" lon="7.9347833"><ele>263.0</ele><time>2026-04-08T12:42:46.952Z</time></trkpt><trkpt lat="44.7572121" lon="7.934681"><ele>263.0</ele><time>2026-04-08T12:42:47.952Z</time></trkpt><trkpt lat="44.7572455" lon="7.9345861"><ele>263.0</ele><time>2026-04-08T12:42:48.952Z</time></trkpt><trkpt lat="44.7572798" lon="7.9344782"><ele>263.0</ele><time>2026-04-08T12:42:49.952Z</time></trkpt><trkpt lat="44.7573187" lon="7.9343656"><ele>263.0</ele><time>2026-04-08T12:42:50.952Z</time></trkpt><trkpt lat="44.7573589" lon="7.9342482"><ele>263.0</ele><time>2026-04-08T12:42:51.952Z</time></trkpt><trkpt lat="44.757392" lon="7.9341555"><ele>263.0</ele><time>2026-04-08T12:42:52.952Z</time></trkpt><trkpt lat="44.757426" lon="7.9340638"><ele>263.1666666666667</ele><time>2026-04-08T12:42:53.952Z</time></trkpt><trkpt lat="44.7574613" lon="7.9339648"><ele>263.33333333333337</ele><time>2026-04-08T12:42:54.952Z</time></trkpt><trkpt lat="44.7575017" lon="7.9338562"><ele>263.5</ele><time>2026-04-08T12:42:55.952Z</time></trkpt><trkpt lat="44.7575487" lon="7.9337511"><ele>263.6666666666667</ele><time>2026-04-08T12:42:56.952Z</time></trkpt><trkpt lat="44.7576045" lon="7.9336544"><ele>263.8333333333333</ele><time>2026-04-08T12:42:57.952Z</time></trkpt><trkpt lat="44.7576535" lon="7.9335615"><ele>264.0</ele><time>2026-04-08T12:42:58.952Z</time></trkpt><trkpt lat="44.7577025" lon="7.9334513"><ele>263.6666666666667</ele><time>2026-04-08T12:42:59.952Z</time></trkpt><trkpt lat="44.7577519" lon="7.9333465"><ele>263.3333333333333</ele><time>2026-04-08T12:43:00.952Z</time></trkpt><trkpt lat="44.7577952" lon="7.9332393"><ele>263.0</ele><time>2026-04-08T12:43:01.952Z</time></trkpt><trkpt lat="44.7578303" lon="7.9331412"><ele>262.66666666666663</ele><time>2026-04-08T12:43:02.952Z</time></trkpt><trkpt lat="44.7578698" lon="7.9330344"><ele>262.3333333333333</ele><time>2026-04-08T12:43:03.952Z</time></trkpt><trkpt lat="44.7579106" lon="7.9329287"><ele>262.0</ele><time>2026-04-08T12:43:04.952Z</time></trkpt><trkpt lat="44.7579422" lon="7.9328338"><ele>262.0</ele><time>2026-04-08T12:43:05.952Z</time></trkpt><trkpt lat="44.7579735" lon="7.9327448"><ele>262.0</ele><time>2026-04-08T12:43:06.952Z</time></trkpt><trkpt lat="44.7580131" lon="7.9326705"><ele>262.0</ele><time>2026-04-08T12:43:07.952Z</time></trkpt><trkpt lat="44.7580847" lon="7.9325861"><ele>262.0</ele><time>2026-04-08T12:43:09.952Z</time></trkpt><trkpt lat="44.7581403" lon="7.9325116"><ele>262.0</ele><time>2026-04-08T12:43:11.952Z</time></trkpt><trkpt lat="44.7581767" lon="7.9323625"><ele>262.0</ele><time>2026-04-08T12:43:13.952Z</time></trkpt><trkpt lat="44.7582146" lon="7.9322055"><ele>262.14285714285717</ele><time>2026-04-08T12:43:15.952Z</time></trkpt><trkpt lat="44.7582309" lon="7.9321187"><ele>262.28571428571433</ele><time>2026-04-08T12:43:16.952Z</time></trkpt><trkpt lat="44.7582394" lon="7.932026"><ele>262.42857142857144</ele><time>2026-04-08T12:43:17.952Z</time></trkpt><trkpt lat="44.758242" lon="7.9319265"><ele>262.57142857142856</ele><time>2026-04-08T12:43:18.952Z</time></trkpt><trkpt lat="44.7582476" lon="7.9318266"><ele>262.71428571428567</ele><time>2026-04-08T12:43:19.952Z</time></trkpt><trkpt lat="44.7582468" lon="7.9317195"><ele>262.85714285714283</ele><time>2026-04-08T12:43:20.952Z</time></trkpt><trkpt lat="44.7582511" lon="7.9316208"><ele>263.0</ele><time>2026-04-08T12:43:21.952Z</time></trkpt><trkpt lat="44.7582642" lon="7.9315336"><ele>263.1666666666667</ele><time>2026-04-08T12:43:22.952Z</time></trkpt><trkpt lat="44.7582728" lon="7.9314343"><ele>263.33333333333337</ele><time>2026-04-08T12:43:23.952Z</time></trkpt><trkpt lat="44.7582805" lon="7.9313451"><ele>263.5</ele><time>2026-04-08T12:43:24.952Z</time></trkpt><trkpt lat="44.7582976" lon="7.9312411"><ele>263.6666666666667</ele><time>2026-04-08T12:43:25.952Z</time></trkpt><trkpt lat="44.7583143" lon="7.9311311"><ele>263.8333333333333</ele><time>2026-04-08T12:43:26.952Z</time></trkpt><trkpt lat="44.7583373" lon="7.9310026"><ele>264.0</ele><time>2026-04-08T12:43:27.952Z</time></trkpt><trkpt lat="44.7583599" lon="7.9308593"><ele>264.0</ele><time>2026-04-08T12:43:28.952Z</time></trkpt><trkpt lat="44.7583793" lon="7.930723"><ele>264.0</ele><time>2026-04-08T12:43:29.952Z</time></trkpt><trkpt lat="44.7583896" lon="7.9306043"><ele>264.0</ele><time>2026-04-08T12:43:30.952Z</time></trkpt><trkpt lat="44.7584038" lon="7.9305109"><ele>264.0</ele><time>2026-04-08T12:43:31.952Z</time></trkpt><trkpt lat="44.7584205" lon="7.9304119"><ele>264.0</ele><time>2026-04-08T12:43:32.952Z</time></trkpt><trkpt lat="44.7584344" lon="7.9303138"><ele>264.0</ele><time>2026-04-08T12:43:33.952Z</time></trkpt><trkpt lat="44.7584494" lon="7.930193"><ele>264.0</ele><time>2026-04-08T12:43:34.952Z</time></trkpt><trkpt lat="44.758467" lon="7.9301048"><ele>264.0</ele><time>2026-04-08T12:43:35.952Z</time></trkpt><trkpt lat="44.7584915" lon="7.9299405"><ele>264.0</ele><time>2026-04-08T12:43:37.952Z</time></trkpt><trkpt lat="44.7585053" lon="7.9298467"><ele>264.0</ele><time>2026-04-08T12:43:38.952Z</time></trkpt><trkpt lat="44.7585317" lon="7.929761"><ele>264.0</ele><time>2026-04-08T12:43:39.952Z</time></trkpt><trkpt lat="44.7585637" lon="7.929666"><ele>264.0</ele><time>2026-04-08T12:43:40.952Z</time></trkpt><trkpt lat="44.7585924" lon="7.9295691"><ele>266.0</ele><time>2026-04-08T12:43:41.952Z</time></trkpt><trkpt lat="44.7586186" lon="7.9294662"><ele>268.0</ele><time>2026-04-08T12:43:42.952Z</time></trkpt><trkpt lat="44.7586607" lon="7.9293751"><ele>270.0</ele><time>2026-04-08T12:43:43.952Z</time></trkpt><trkpt lat="44.7586964" lon="7.9292721"><ele>272.0</ele><time>2026-04-08T12:43:44.952Z</time></trkpt><trkpt lat="44.7587372" lon="7.9291734"><ele>274.0</ele><time>2026-04-08T12:43:45.952Z</time></trkpt><trkpt lat="44.758773" lon="7.929069"><ele>276.0</ele><time>2026-04-08T12:43:46.952Z</time></trkpt><trkpt lat="44.7588103" lon="7.928973"><ele>276.0</ele><time>2026-04-08T12:43:47.952Z</time></trkpt><trkpt lat="44.758853" lon="7.9288836"><ele>276.0</ele><time>2026-04-08T12:43:48.952Z</time></trkpt><trkpt lat="44.7588873" lon="7.9287916"><ele>276.0</ele><time>2026-04-08T12:43:49.952Z</time></trkpt><trkpt lat="44.7589247" lon="7.9286971"><ele>276.0</ele><time>2026-04-08T12:43:50.952Z</time></trkpt><trkpt lat="44.7589663" lon="7.9285996"><ele>276.0</ele><time>2026-04-08T12:43:51.952Z</time></trkpt><trkpt lat="44.7590057" lon="7.9284846"><ele>276.0</ele><time>2026-04-08T12:43:52.952Z</time></trkpt><trkpt lat="44.7590422" lon="7.9283459"><ele>275.8333333333333</ele><time>2026-04-08T12:43:53.952Z</time></trkpt><trkpt lat="44.7590872" lon="7.9282479"><ele>275.6666666666667</ele><time>2026-04-08T12:43:54.952Z</time></trkpt><trkpt lat="44.7591369" lon="7.9281301"><ele>275.5</ele><time>2026-04-08T12:43:55.952Z</time></trkpt><trkpt lat="44.7591825" lon="7.9280584"><ele>275.33333333333337</ele><time>2026-04-08T12:43:56.952Z</time></trkpt><trkpt lat="44.759225" lon="7.9279533"><ele>275.1666666666667</ele><time>2026-04-08T12:43:57.952Z</time></trkpt><trkpt lat="44.7592674" lon="7.9278475"><ele>275.0</ele><time>2026-04-08T12:43:58.952Z</time></trkpt><trkpt lat="44.7593118" lon="7.9277407"><ele>275.0</ele><time>2026-04-08T12:43:59.952Z</time></trkpt><trkpt lat="44.7593464" lon="7.9276422"><ele>275.0</ele><time>2026-04-08T12:44:00.952Z</time></trkpt><trkpt lat="44.7593787" lon="7.9275625"><ele>275.0</ele><time>2026-04-08T12:44:01.952Z</time></trkpt><trkpt lat="44.759405" lon="7.9274686"><ele>275.0</ele><time>2026-04-08T12:44:02.952Z</time></trkpt><trkpt lat="44.7594249" lon="7.9273715"><ele>275.0</ele><time>2026-04-08T12:44:03.952Z</time></trkpt><trkpt lat="44.7594499" lon="7.9272763"><ele>275.0</ele><time>2026-04-08T12:44:04.952Z</time></trkpt><trkpt lat="44.7594745" lon="7.9271885"><ele>275.0</ele><time>2026-04-08T12:44:05.952Z</time></trkpt><trkpt lat="44.7594939" lon="7.9270888"><ele>277.2857142857143</ele><time>2026-04-08T12:44:06.952Z</time></trkpt><trkpt lat="44.7595028" lon="7.9269881"><ele>279.57142857142856</ele><time>2026-04-08T12:44:07.952Z</time></trkpt><trkpt lat="44.7595108" lon="7.9268825"><ele>281.85714285714283</ele><time>2026-04-08T12:44:08.952Z</time></trkpt><trkpt lat="44.7595298" lon="7.9267741"><ele>284.1428571428571</ele><time>2026-04-08T12:44:09.952Z</time></trkpt><trkpt lat="44.7595405" lon="7.9266686"><ele>286.4285714285714</ele><time>2026-04-08T12:44:10.952Z</time></trkpt><trkpt lat="44.7595548" lon="7.9265763"><ele>288.7142857142857</ele><time>2026-04-08T12:44:11.952Z</time></trkpt><trkpt lat="44.759574" lon="7.9264707"><ele>291.0</ele><time>2026-04-08T12:44:12.952Z</time></trkpt><trkpt lat="44.7595802" lon="7.9263669"><ele>291.0</ele><time>2026-04-08T12:44:13.952Z</time></trkpt><trkpt lat="44.7595873" lon="7.9262469"><ele>291.0</ele><time>2026-04-08T12:44:14.952Z</time></trkpt><trkpt lat="44.7595808" lon="7.9261466"><ele>291.0</ele><time>2026-04-08T12:44:15.952Z</time></trkpt><trkpt lat="44.7595707" lon="7.9260394"><ele>291.0</ele><time>2026-04-08T12:44:16.952Z</time></trkpt><trkpt lat="44.7595735" lon="7.9259324"><ele>291.0</ele><time>2026-04-08T12:44:17.952Z</time></trkpt><trkpt lat="44.7595794" lon="7.9258285"><ele>291.0</ele><time>2026-04-08T12:44:18.952Z</time></trkpt><trkpt lat="44.759582" lon="7.9257284"><ele>290.8333333333333</ele><time>2026-04-08T12:44:19.952Z</time></trkpt><trkpt lat="44.759599" lon="7.9256236"><ele>290.6666666666667</ele><time>2026-04-08T12:44:20.952Z</time></trkpt><trkpt lat="44.7596183" lon="7.9254917"><ele>290.5</ele><time>2026-04-08T12:44:21.952Z</time></trkpt><trkpt lat="44.759635" lon="7.9253568"><ele>290.33333333333337</ele><time>2026-04-08T12:44:22.952Z</time></trkpt><trkpt lat="44.7596473" lon="7.9252309"><ele>290.1666666666667</ele><time>2026-04-08T12:44:23.952Z</time></trkpt><trkpt lat="44.7596632" lon="7.925107"><ele>290.0</ele><time>2026-04-08T12:44:24.952Z</time></trkpt><trkpt lat="44.7596798" lon="7.9249911"><ele>290.4</ele><time>2026-04-08T12:44:25.952Z</time></trkpt><trkpt lat="44.7596945" lon="7.9248743"><ele>290.8</ele><time>2026-04-08T12:44:26.952Z</time></trkpt><trkpt lat="44.7597001" lon="7.9247328"><ele>291.2</ele><time>2026-04-08T12:44:27.952Z</time></trkpt><trkpt lat="44.7597034" lon="7.9245919"><ele>291.6</ele><time>2026-04-08T12:44:28.952Z</time></trkpt><trkpt lat="44.7597087" lon="7.9244495"><ele>292.0</ele><time>2026-04-08T12:44:29.952Z</time></trkpt><trkpt lat="44.759717" lon="7.9243167"><ele>293.0</ele><time>2026-04-08T12:44:30.952Z</time></trkpt><trkpt lat="44.7597338" lon="7.9241905"><ele>294.0</ele><time>2026-04-08T12:44:31.952Z</time></trkpt><trkpt lat="44.7597524" lon="7.9240862"><ele>295.0</ele><time>2026-04-08T12:44:32.952Z</time></trkpt><trkpt lat="44.7597672" lon="7.9239779"><ele>296.0</ele><time>2026-04-08T12:44:33.952Z</time></trkpt><trkpt lat="44.759777" lon="7.9237937"><ele>297.0</ele><time>2026-04-08T12:44:35.952Z</time></trkpt><trkpt lat="44.7597668" lon="7.9236334"><ele>297.0</ele><time>2026-04-08T12:44:37.952Z</time></trkpt><trkpt lat="44.7597355" lon="7.9234696"><ele>297.0</ele><time>2026-04-08T12:44:39.952Z</time></trkpt><trkpt lat="44.7597165" lon="7.9233802"><ele>297.0</ele><time>2026-04-08T12:44:40.952Z</time></trkpt><trkpt lat="44.7596989" lon="7.9232899"><ele>297.0</ele><time>2026-04-08T12:44:41.952Z</time></trkpt><trkpt lat="44.7596866" lon="7.9232025"><ele>297.0</ele><time>2026-04-08T12:44:42.952Z</time></trkpt><trkpt lat="44.7596757" lon="7.9230462"><ele>297.0</ele><time>2026-04-08T12:44:44.952Z</time></trkpt><trkpt lat="44.7596739" lon="7.9229504"><ele>296.6</ele><time>2026-04-08T12:44:45.952Z</time></trkpt><trkpt lat="44.7596808" lon="7.9228412"><ele>296.2</ele><time>2026-04-08T12:44:46.952Z</time></trkpt><trkpt lat="44.7596902" lon="7.9227518"><ele>295.8</ele><time>2026-04-08T12:44:47.951Z</time></trkpt><trkpt lat="44.7597054" lon="7.9225933"><ele>295.4</ele><time>2026-04-08T12:44:49.952Z</time></trkpt><trkpt lat="44.7597031" lon="7.9224147"><ele>295.0</ele><time>2026-04-08T12:44:51.952Z</time></trkpt><trkpt lat="44.7596951" lon="7.9223202"><ele>295.66666666666663</ele><time>2026-04-08T12:44:52.952Z</time></trkpt><trkpt lat="44.7596828" lon="7.9222128"><ele>296.3333333333333</ele><time>2026-04-08T12:44:53.952Z</time></trkpt><trkpt lat="44.7596612" lon="7.9221113"><ele>297.0</ele><time>2026-04-08T12:44:54.952Z</time></trkpt><trkpt lat="44.7596288" lon="7.9220259"><ele>297.6666666666667</ele><time>2026-04-08T12:44:55.952Z</time></trkpt><trkpt lat="44.7595775" lon="7.9218739"><ele>298.33333333333337</ele><time>2026-04-08T12:44:57.952Z</time></trkpt><trkpt lat="44.7595181" lon="7.9217702"><ele>299.0</ele><time>2026-04-08T12:44:59.952Z</time></trkpt><trkpt lat="44.7594352" lon="7.9217256"><ele>299.0</ele><time>2026-04-08T12:45:01.952Z</time></trkpt><trkpt lat="44.7593303" lon="7.9217535"><ele>299.0</ele><time>2026-04-08T12:45:03.952Z</time></trkpt><trkpt lat="44.7592314" lon="7.9217819"><ele>299.0</ele><time>2026-04-08T12:45:05.952Z</time></trkpt><trkpt lat="44.7591333" lon="7.9218143"><ele>299.0</ele><time>2026-04-08T12:45:07.952Z</time></trkpt><trkpt lat="44.7590593" lon="7.9219337"><ele>299.0</ele><time>2026-04-08T12:45:09.952Z</time></trkpt><trkpt lat="44.7590276" lon="7.9220894"><ele>299.0</ele><time>2026-04-08T12:45:11.952Z</time></trkpt><trkpt lat="44.7590188" lon="7.922239"><ele>299.0</ele><time>2026-04-08T12:45:13.952Z</time></trkpt><trkpt lat="44.7590133" lon="7.9223471"><ele>299.0</ele><time>2026-04-08T12:45:15.952Z</time></trkpt><trkpt lat="44.7589959" lon="7.9224752"><ele>299.0</ele><time>2026-04-08T12:45:17.952Z</time></trkpt><trkpt lat="44.7589514" lon="7.9226102"><ele>299.0</ele><time>2026-04-08T12:45:19.952Z</time></trkpt><trkpt lat="44.7589248" lon="7.9227664"><ele>298.1666666666667</ele><time>2026-04-08T12:45:21.952Z</time></trkpt><trkpt lat="44.7589206" lon="7.9229213"><ele>297.33333333333337</ele><time>2026-04-08T12:45:23.952Z</time></trkpt><trkpt lat="44.7589058" lon="7.9230655"><ele>296.5</ele><time>2026-04-08T12:45:25.952Z</time></trkpt><trkpt lat="44.7588993" lon="7.9231575"><ele>295.6666666666667</ele><time>2026-04-08T12:45:27.952Z</time></trkpt><trkpt lat="44.7588655" lon="7.9232388"><ele>294.8333333333333</ele><time>2026-04-08T12:45:29.952Z</time></trkpt><trkpt lat="44.7588217" lon="7.923331"><ele>294.0</ele><time>2026-04-08T12:45:31.952Z</time></trkpt><trkpt lat="44.7587628" lon="7.9234061"><ele>293.3333333333333</ele><time>2026-04-08T12:45:33.952Z</time></trkpt><trkpt lat="44.758714" lon="7.9234638"><ele>292.6666666666667</ele><time>2026-04-08T12:45:36.952Z</time></trkpt><trkpt lat="44.7586524" lon="7.9235157"><ele>292.0</ele><time>2026-04-08T12:45:38.952Z</time></trkpt><trkpt lat="44.7586005" lon="7.9236253"><ele>291.33333333333337</ele><time>2026-04-08T12:45:41.952Z</time></trkpt><trkpt lat="44.7585934" lon="7.923724"><ele>290.6666666666667</ele><time>2026-04-08T12:45:44.952Z</time></trkpt><trkpt lat="44.7586036" lon="7.923877"><ele>290.0</ele><time>2026-04-08T12:45:47.952Z</time></trkpt><trkpt lat="44.7586149" lon="7.9240601"><ele>289.8</ele><time>2026-04-08T12:45:49.952Z</time></trkpt><trkpt lat="44.7586263" lon="7.9242314"><ele>289.6</ele><time>2026-04-08T12:45:51.952Z</time></trkpt><trkpt lat="44.7586177" lon="7.9243585"><ele>289.4</ele><time>2026-04-08T12:45:53.952Z</time></trkpt><trkpt lat="44.7585804" lon="7.9244479"><ele>289.2</ele><time>2026-04-08T12:45:55.952Z</time></trkpt><trkpt lat="44.758505" lon="7.9245474"><ele>289.0</ele><time>2026-04-08T12:45:57.952Z</time></trkpt><trkpt lat="44.7584617" lon="7.9246214"><ele>289.0</ele><time>2026-04-08T12:46:00.952Z</time></trkpt><trkpt lat="44.7585136" lon="7.9245336"><ele>289.0</ele><time>2026-04-08T12:46:06.952Z</time></trkpt><trkpt lat="44.7585733" lon="7.9244266"><ele>289.0</ele><time>2026-04-08T12:46:08.952Z</time></trkpt><trkpt lat="44.7586166" lon="7.9243199"><ele>289.0</ele><time>2026-04-08T12:46:10.952Z</time></trkpt><trkpt lat="44.7586267" lon="7.9241941"><ele>289.0</ele><time>2026-04-08T12:46:12.952Z</time></trkpt><trkpt lat="44.7586155" lon="7.9240434"><ele>289.2</ele><time>2026-04-08T12:46:14.952Z</time></trkpt><trkpt lat="44.7586158" lon="7.9238777"><ele>289.4</ele><time>2026-04-08T12:46:16.952Z</time></trkpt><trkpt lat="44.7586087" lon="7.9237832"><ele>289.6</ele><time>2026-04-08T12:46:17.952Z</time></trkpt><trkpt lat="44.7586313" lon="7.9236184"><ele>289.8</ele><time>2026-04-08T12:46:19.952Z</time></trkpt><trkpt lat="44.7587005" lon="7.9235235"><ele>290.0</ele><time>2026-04-08T12:46:21.952Z</time></trkpt><trkpt lat="44.758786" lon="7.9234315"><ele>290.8</ele><time>2026-04-08T12:46:23.952Z</time></trkpt><trkpt lat="44.7588629" lon="7.9233171"><ele>291.6</ele><time>2026-04-08T12:46:25.952Z</time></trkpt><trkpt lat="44.7589241" lon="7.9231829"><ele>292.4</ele><time>2026-04-08T12:46:27.952Z</time></trkpt><trkpt lat="44.7589625" lon="7.9230028"><ele>293.2</ele><time>2026-04-08T12:46:29.952Z</time></trkpt><trkpt lat="44.7589704" lon="7.9228898"><ele>294.0</ele><time>2026-04-08T12:46:30.952Z</time></trkpt><trkpt lat="44.758983" lon="7.9227835"><ele>294.0</ele><time>2026-04-08T12:46:31.952Z</time></trkpt><trkpt lat="44.7589969" lon="7.9226749"><ele>294.0</ele><time>2026-04-08T12:46:32.952Z</time></trkpt><trkpt lat="44.7590062" lon="7.9225793"><ele>294.0</ele><time>2026-04-08T12:46:33.952Z</time></trkpt><trkpt lat="44.7590173" lon="7.9224751"><ele>294.0</ele><time>2026-04-08T12:46:34.952Z</time></trkpt><trkpt lat="44.7590395" lon="7.9223208"><ele>294.0</ele><time>2026-04-08T12:46:36.952Z</time></trkpt><trkpt lat="44.7590665" lon="7.9221836"><ele>294.0</ele><time>2026-04-08T12:46:38.952Z</time></trkpt><trkpt lat="44.7590518" lon="7.9220262"><ele>294.8333333333333</ele><time>2026-04-08T12:46:40.952Z</time></trkpt><trkpt lat="44.7590979" lon="7.9219192"><ele>295.6666666666667</ele><time>2026-04-08T12:46:43.952Z</time></trkpt><trkpt lat="44.7591672" lon="7.9218618"><ele>296.5</ele><time>2026-04-08T12:46:45.952Z</time></trkpt><trkpt lat="44.7592467" lon="7.9218289"><ele>297.33333333333337</ele><time>2026-04-08T12:46:47.952Z</time></trkpt><trkpt lat="44.7593246" lon="7.9217872"><ele>298.1666666666667</ele><time>2026-04-08T12:46:49.952Z</time></trkpt><trkpt lat="44.7593912" lon="7.9217433"><ele>299.0</ele><time>2026-04-08T12:46:51.952Z</time></trkpt><trkpt lat="44.759467" lon="7.9216734"><ele>299.5</ele><time>2026-04-08T12:46:54.952Z</time></trkpt><trkpt lat="44.7594738" lon="7.9215852"><ele>300.0</ele><time>2026-04-08T12:46:56.952Z</time></trkpt><trkpt lat="44.759444" lon="7.921475"><ele>300.5</ele><time>2026-04-08T12:46:58.952Z</time></trkpt><trkpt lat="44.7593961" lon="7.9213556"><ele>301.0</ele><time>2026-04-08T12:47:00.952Z</time></trkpt><trkpt lat="44.7593663" lon="7.9212354"><ele>301.5</ele><time>2026-04-08T12:47:03.951Z</time></trkpt><trkpt lat="44.7593287" lon="7.9211348"><ele>302.0</ele><time>2026-04-08T12:47:05.952Z</time></trkpt><trkpt lat="44.7592754" lon="7.9210494"><ele>302.0</ele><time>2026-04-08T12:47:07.952Z</time></trkpt><trkpt lat="44.7592332" lon="7.9209534"><ele>302.0</ele><time>2026-04-08T12:47:09.952Z</time></trkpt><trkpt lat="44.7592342" lon="7.9208629"><ele>302.0</ele><time>2026-04-08T12:47:11.952Z</time></trkpt><trkpt lat="44.7592083" lon="7.9207778"><ele>302.0</ele><time>2026-04-08T12:47:13.952Z</time></trkpt><trkpt lat="44.7591639" lon="7.9207138"><ele>302.0</ele><time>2026-04-08T12:47:15.952Z</time></trkpt><trkpt lat="44.7590755" lon="7.9206817"><ele>302.0</ele><time>2026-04-08T12:47:18.952Z</time></trkpt><trkpt lat="44.7590165" lon="7.9205864"><ele>302.5</ele><time>2026-04-08T12:47:21.952Z</time></trkpt><trkpt lat="44.7589913" lon="7.9205016"><ele>303.0</ele><time>2026-04-08T12:47:23.952Z</time></trkpt><trkpt lat="44.7589686" lon="7.9203934"><ele>303.5</ele><time>2026-04-08T12:47:27.952Z</time></trkpt><trkpt lat="44.7589699" lon="7.9202852"><ele>304.0</ele><time>2026-04-08T12:47:32.952Z</time></trkpt><trkpt lat="44.7589791" lon="7.9201903"><ele>304.5</ele><time>2026-04-08T12:47:35.952Z</time></trkpt><trkpt lat="44.7589375" lon="7.9200803"><ele>305.0</ele><time>2026-04-08T12:47:38.952Z</time></trkpt><trkpt lat="44.7589096" lon="7.9199872"><ele>305.5</ele><time>2026-04-08T12:47:41.952Z</time></trkpt><trkpt lat="44.7589268" lon="7.9198497"><ele>306.0</ele><time>2026-04-08T12:47:44.952Z</time></trkpt><trkpt lat="44.7589618" lon="7.9197452"><ele>306.5</ele><time>2026-04-08T12:47:47.952Z</time></trkpt><trkpt lat="44.7590025" lon="7.9196385"><ele>307.0</ele><time>2026-04-08T12:47:50.952Z</time></trkpt><trkpt lat="44.7590121" lon="7.9195402"><ele>307.5</ele><time>2026-04-08T12:47:52.952Z</time></trkpt><trkpt lat="44.7590039" lon="7.9194478"><ele>308.0</ele><time>2026-04-08T12:47:54.952Z</time></trkpt><trkpt lat="44.7589984" lon="7.9193528"><ele>308.0</ele><time>2026-04-08T12:47:56.952Z</time></trkpt><trkpt lat="44.7590112" lon="7.9192434"><ele>308.0</ele><time>2026-04-08T12:47:59.952Z</time></trkpt><trkpt lat="44.7590921" lon="7.9192027"><ele>308.0</ele><time>2026-04-08T12:48:02.952Z</time></trkpt><trkpt lat="44.7590556" lon="7.9191074"><ele>308.0</ele><time>2026-04-08T12:51:51.952Z</time></trkpt><trkpt lat="44.7590674" lon="7.9190133"><ele>308.0</ele><time>2026-04-08T12:51:58.952Z</time></trkpt><trkpt lat="44.7591133" lon="7.9189318"><ele>308.0</ele><time>2026-04-08T12:52:03.952Z</time></trkpt><trkpt lat="44.7591651" lon="7.9188398"><ele>309.0</ele><time>2026-04-08T12:52:06.952Z</time></trkpt><trkpt lat="44.7592285" lon="7.9188003"><ele>310.0</ele><time>2026-04-08T12:52:39.952Z</time></trkpt><trkpt lat="44.7591756" lon="7.9188812"><ele>311.0</ele><time>2026-04-08T12:52:52.952Z</time></trkpt><trkpt lat="44.7591069" lon="7.9189326"><ele>312.0</ele><time>2026-04-08T12:52:56.952Z</time></trkpt><trkpt lat="44.7590544" lon="7.9188514"><ele>313.0</ele><time>2026-04-08T12:52:59.952Z</time></trkpt><trkpt lat="44.759015" lon="7.9187806"><ele>314.0</ele><time>2026-04-08T12:53:01.952Z</time></trkpt><trkpt lat="44.7589603" lon="7.9187113"><ele>315.0</ele><time>2026-04-08T12:53:04.951Z</time></trkpt><trkpt lat="44.7588746" lon="7.9187119"><ele>315.0</ele><time>2026-04-08T12:53:08.952Z</time></trkpt><trkpt lat="44.7588041" lon="7.9187189"><ele>315.0</ele><time>2026-04-08T12:53:10.952Z</time></trkpt><trkpt lat="44.758728" lon="7.9187379"><ele>315.0</ele><time>2026-04-08T12:53:12.952Z</time></trkpt><trkpt lat="44.7586735" lon="7.918793"><ele>315.0</ele><time>2026-04-08T12:53:14.952Z</time></trkpt><trkpt lat="44.7586199" lon="7.9188619"><ele>315.0</ele><time>2026-04-08T12:53:16.952Z</time></trkpt><trkpt lat="44.758543" lon="7.9189456"><ele>315.0</ele><time>2026-04-08T12:53:18.952Z</time></trkpt><trkpt lat="44.7584528" lon="7.9189988"><ele>315.8</ele><time>2026-04-08T12:53:20.952Z</time></trkpt><trkpt lat="44.7583818" lon="7.9190621"><ele>316.6</ele><time>2026-04-08T12:53:22.952Z</time></trkpt><trkpt lat="44.7583545" lon="7.9192023"><ele>317.4</ele><time>2026-04-08T12:53:24.952Z</time></trkpt><trkpt lat="44.7583501" lon="7.9193431"><ele>318.2</ele><time>2026-04-08T12:53:26.952Z</time></trkpt><trkpt lat="44.7583437" lon="7.9194968"><ele>319.0</ele><time>2026-04-08T12:53:28.952Z</time></trkpt><trkpt lat="44.7583279" lon="7.9196403"><ele>319.0</ele><time>2026-04-08T12:53:30.952Z</time></trkpt><trkpt lat="44.7583119" lon="7.9197299"><ele>319.0</ele><time>2026-04-08T12:53:32.952Z</time></trkpt><trkpt lat="44.7582286" lon="7.9196954"><ele>319.0</ele><time>2026-04-08T12:53:35.952Z</time></trkpt><trkpt lat="44.7581326" lon="7.9196558"><ele>319.0</ele><time>2026-04-08T12:53:37.952Z</time></trkpt><trkpt lat="44.7580971" lon="7.9195599"><ele>319.0</ele><time>2026-04-08T12:53:39.952Z</time></trkpt><trkpt lat="44.7580216" lon="7.9195216"><ele>319.0</ele><time>2026-04-08T12:53:41.952Z</time></trkpt><trkpt lat="44.7579428" lon="7.9194593"><ele>319.0</ele><time>2026-04-08T12:53:43.952Z</time></trkpt><trkpt lat="44.7578426" lon="7.9193927"><ele>319.0</ele><time>2026-04-08T12:53:45.952Z</time></trkpt><trkpt lat="44.757759" lon="7.9193151"><ele>319.0</ele><time>2026-04-08T12:53:47.952Z</time></trkpt><trkpt lat="44.7577048" lon="7.9192553"><ele>319.0</ele><time>2026-04-08T12:53:51.952Z</time></trkpt><trkpt lat="44.7576438" lon="7.9191919"><ele>319.0</ele><time>2026-04-08T12:53:53.952Z</time></trkpt><trkpt lat="44.7575738" lon="7.9191007"><ele>321.5</ele><time>2026-04-08T12:53:55.952Z</time></trkpt><trkpt lat="44.7575069" lon="7.9189768"><ele>324.0</ele><time>2026-04-08T12:53:57.952Z</time></trkpt><trkpt lat="44.7574815" lon="7.9188886"><ele>326.5</ele><time>2026-04-08T12:53:58.952Z</time></trkpt><trkpt lat="44.7574594" lon="7.918791"><ele>329.0</ele><time>2026-04-08T12:53:59.952Z</time></trkpt><trkpt lat="44.7574439" lon="7.9186789"><ele>331.5</ele><time>2026-04-08T12:54:00.952Z</time></trkpt><trkpt lat="44.757426" lon="7.9185694"><ele>334.0</ele><time>2026-04-08T12:54:01.952Z</time></trkpt><trkpt lat="44.757398" lon="7.9184601"><ele>334.8333333333333</ele><time>2026-04-08T12:54:02.952Z</time></trkpt><trkpt lat="44.7573569" lon="7.9183582"><ele>335.66666666666663</ele><time>2026-04-08T12:54:03.952Z</time></trkpt><trkpt lat="44.7573214" lon="7.9182771"><ele>336.5</ele><time>2026-04-08T12:54:04.952Z</time></trkpt><trkpt lat="44.7572746" lon="7.9181875"><ele>337.3333333333333</ele><time>2026-04-08T12:54:05.952Z</time></trkpt><trkpt lat="44.7572213" lon="7.9180953"><ele>338.1666666666667</ele><time>2026-04-08T12:54:06.952Z</time></trkpt><trkpt lat="44.7571682" lon="7.9180024"><ele>339.0</ele><time>2026-04-08T12:54:07.952Z</time></trkpt><trkpt lat="44.7571232" lon="7.9179087"><ele>339.0</ele><time>2026-04-08T12:54:08.952Z</time></trkpt><trkpt lat="44.7570789" lon="7.9178144"><ele>339.0</ele><time>2026-04-08T12:54:09.952Z</time></trkpt><trkpt lat="44.75704" lon="7.9177305"><ele>339.0</ele><time>2026-04-08T12:54:10.952Z</time></trkpt><trkpt lat="44.7570001" lon="7.9176526"><ele>339.0</ele><time>2026-04-08T12:54:11.952Z</time></trkpt><trkpt lat="44.7569306" lon="7.917546"><ele>339.0</ele><time>2026-04-08T12:54:13.952Z</time></trkpt><trkpt lat="44.7568524" lon="7.917503"><ele>339.0</ele><time>2026-04-08T12:54:15.952Z</time></trkpt><trkpt lat="44.7567734" lon="7.9175127"><ele>336.8333333333333</ele><time>2026-04-08T12:54:18.952Z</time></trkpt><trkpt lat="44.7567065" lon="7.9175606"><ele>334.6666666666667</ele><time>2026-04-08T12:54:21.952Z</time></trkpt><trkpt lat="44.7566328" lon="7.9176021"><ele>332.5</ele><time>2026-04-08T12:54:24.952Z</time></trkpt><trkpt lat="44.7565399" lon="7.9176169"><ele>330.33333333333337</ele><time>2026-04-08T12:54:26.952Z</time></trkpt><trkpt lat="44.7564178" lon="7.9176265"><ele>328.1666666666667</ele><time>2026-04-08T12:54:28.952Z</time></trkpt><trkpt lat="44.7563539" lon="7.9176342"><ele>326.0</ele><time>2026-04-08T12:54:29.952Z</time></trkpt><trkpt lat="44.7562388" lon="7.9176488"><ele>326.0</ele><time>2026-04-08T12:54:31.952Z</time></trkpt><trkpt lat="44.7561226" lon="7.9176032"><ele>326.0</ele><time>2026-04-08T12:54:33.952Z</time></trkpt><trkpt lat="44.7560643" lon="7.9175494"><ele>326.0</ele><time>2026-04-08T12:54:34.952Z</time></trkpt><trkpt lat="44.7559996" lon="7.917496"><ele>326.0</ele><time>2026-04-08T12:54:35.952Z</time></trkpt><trkpt lat="44.7559354" lon="7.9174584"><ele>326.0</ele><time>2026-04-08T12:54:36.952Z</time></trkpt><trkpt lat="44.755873" lon="7.9174229"><ele>326.0</ele><time>2026-04-08T12:54:37.952Z</time></trkpt><trkpt lat="44.7557992" lon="7.9173836"><ele>323.83333333333337</ele><time>2026-04-08T12:54:38.952Z</time></trkpt><trkpt lat="44.7557312" lon="7.917347"><ele>321.6666666666667</ele><time>2026-04-08T12:54:39.952Z</time></trkpt><trkpt lat="44.7556573" lon="7.9173127"><ele>319.5</ele><time>2026-04-08T12:54:40.952Z</time></trkpt><trkpt lat="44.7555901" lon="7.9172822"><ele>317.3333333333333</ele><time>2026-04-08T12:54:41.952Z</time></trkpt><trkpt lat="44.7555294" lon="7.9172507"><ele>315.16666666666663</ele><time>2026-04-08T12:54:42.951Z</time></trkpt><trkpt lat="44.7554648" lon="7.9172372"><ele>313.0</ele><time>2026-04-08T12:54:43.952Z</time></trkpt><trkpt lat="44.7553647" lon="7.9172333"><ele>313.0</ele><time>2026-04-08T12:54:45.952Z</time></trkpt><trkpt lat="44.7552804" lon="7.9172723"><ele>313.0</ele><time>2026-04-08T12:54:47.952Z</time></trkpt><trkpt lat="44.7551811" lon="7.9173418"><ele>313.0</ele><time>2026-04-08T12:54:49.952Z</time></trkpt><trkpt lat="44.7550741" lon="7.9174147"><ele>313.0</ele><time>2026-04-08T12:54:51.952Z</time></trkpt><trkpt lat="44.754997" lon="7.9174854"><ele>313.0</ele><time>2026-04-08T12:54:53.952Z</time></trkpt><trkpt lat="44.754917" lon="7.9175573"><ele>310.0</ele><time>2026-04-08T12:54:55.952Z</time></trkpt><trkpt lat="44.7548409" lon="7.9176453"><ele>307.0</ele><time>2026-04-08T12:54:57.952Z</time></trkpt><trkpt lat="44.7547546" lon="7.9177408"><ele>304.0</ele><time>2026-04-08T12:54:59.952Z</time></trkpt><trkpt lat="44.7546745" lon="7.9178219"><ele>301.0</ele><time>2026-04-08T12:55:01.952Z</time></trkpt><trkpt lat="44.7546208" lon="7.9178747"><ele>298.0</ele><time>2026-04-08T12:55:03.952Z</time></trkpt><trkpt lat="44.7545669" lon="7.9179323"><ele>295.0</ele><time>2026-04-08T12:55:06.952Z</time></trkpt><trkpt lat="44.7546449" lon="7.9178657"><ele>295.0</ele><time>2026-04-08T12:55:24.952Z</time></trkpt><trkpt lat="44.754698" lon="7.9177956"><ele>295.0</ele><time>2026-04-08T12:55:26.952Z</time></trkpt><trkpt lat="44.7547783" lon="7.917704"><ele>295.0</ele><time>2026-04-08T12:55:28.952Z</time></trkpt><trkpt lat="44.7548645" lon="7.9176099"><ele>295.0</ele><time>2026-04-08T12:55:30.952Z</time></trkpt><trkpt lat="44.7549732" lon="7.9175155"><ele>295.0</ele><time>2026-04-08T12:55:32.952Z</time></trkpt><trkpt lat="44.7550337" lon="7.9174676"><ele>296.0</ele><time>2026-04-08T12:55:33.952Z</time></trkpt><trkpt lat="44.7550975" lon="7.9174365"><ele>297.0</ele><time>2026-04-08T12:55:34.952Z</time></trkpt><trkpt lat="44.7551664" lon="7.9173821"><ele>298.0</ele><time>2026-04-08T12:55:35.952Z</time></trkpt><trkpt lat="44.7552558" lon="7.9173085"><ele>299.0</ele><time>2026-04-08T12:55:37.952Z</time></trkpt><trkpt lat="44.7552389" lon="7.9171812"><ele>300.0</ele><time>2026-04-08T12:55:41.952Z</time></trkpt><trkpt lat="44.7552042" lon="7.9170516"><ele>301.0</ele><time>2026-04-08T12:55:43.952Z</time></trkpt><trkpt lat="44.7552258" lon="7.9169031"><ele>302.40000000000003</ele><time>2026-04-08T12:55:45.952Z</time></trkpt><trkpt lat="44.7552679" lon="7.9168262"><ele>303.8</ele><time>2026-04-08T12:55:46.952Z</time></trkpt><trkpt lat="44.7553545" lon="7.9167241"><ele>305.20000000000005</ele><time>2026-04-08T12:55:48.952Z</time></trkpt><trkpt lat="44.7554501" lon="7.9166362"><ele>306.6</ele><time>2026-04-08T12:55:50.952Z</time></trkpt><trkpt lat="44.7555144" lon="7.9165315"><ele>308.0</ele><time>2026-04-08T12:55:52.952Z</time></trkpt><trkpt lat="44.7555105" lon="7.9164225"><ele>308.0</ele><time>2026-04-08T12:55:54.952Z</time></trkpt><trkpt lat="44.755442" lon="7.916315"><ele>308.0</ele><time>2026-04-08T12:55:56.952Z</time></trkpt><trkpt lat="44.7553644" lon="7.916211"><ele>308.0</ele><time>2026-04-08T12:55:58.952Z</time></trkpt><trkpt lat="44.7552744" lon="7.9161253"><ele>308.0</ele><time>2026-04-08T12:56:00.952Z</time></trkpt><trkpt lat="44.7551804" lon="7.9160311"><ele>308.0</ele><time>2026-04-08T12:56:02.952Z</time></trkpt><trkpt lat="44.7551019" lon="7.9159512"><ele>305.0</ele><time>2026-04-08T12:56:04.952Z</time></trkpt><trkpt lat="44.7550395" lon="7.9158502"><ele>302.0</ele><time>2026-04-08T12:56:06.952Z</time></trkpt><trkpt lat="44.754983" lon="7.9157389"><ele>299.0</ele><time>2026-04-08T12:56:08.952Z</time></trkpt><trkpt lat="44.7549686" lon="7.9156311"><ele>296.0</ele><time>2026-04-08T12:56:10.952Z</time></trkpt><trkpt lat="44.7549431" lon="7.9154844"><ele>293.0</ele><time>2026-04-08T12:56:12.952Z</time></trkpt><trkpt lat="44.7548894" lon="7.9153628"><ele>293.0</ele><time>2026-04-08T12:56:14.952Z</time></trkpt><trkpt lat="44.7548118" lon="7.9152903"><ele>293.0</ele><time>2026-04-08T12:56:16.952Z</time></trkpt><trkpt lat="44.754728" lon="7.915267"><ele>293.0</ele><time>2026-04-08T12:56:18.952Z</time></trkpt><trkpt lat="44.7546419" lon="7.9152275"><ele>293.0</ele><time>2026-04-08T12:56:20.952Z</time></trkpt><trkpt lat="44.7545605" lon="7.9151714"><ele>293.0</ele><time>2026-04-08T12:56:22.952Z</time></trkpt><trkpt lat="44.754485" lon="7.9151398"><ele>293.0</ele><time>2026-04-08T12:56:25.952Z</time></trkpt><trkpt lat="44.754438" lon="7.9150384"><ele>293.2</ele><time>2026-04-08T12:56:28.952Z</time></trkpt><trkpt lat="44.7544512" lon="7.9149139"><ele>293.4</ele><time>2026-04-08T12:56:30.952Z</time></trkpt><trkpt lat="44.7544485" lon="7.9147651"><ele>293.59999999999997</ele><time>2026-04-08T12:56:32.952Z</time></trkpt><trkpt lat="44.7544241" lon="7.9146189"><ele>293.8</ele><time>2026-04-08T12:56:34.952Z</time></trkpt><trkpt lat="44.7543672" lon="7.9144914"><ele>294.0</ele><time>2026-04-08T12:56:36.952Z</time></trkpt><trkpt lat="44.7542826" lon="7.9143679"><ele>293.6666666666667</ele><time>2026-04-08T12:56:38.952Z</time></trkpt><trkpt lat="44.7542032" lon="7.9142485"><ele>293.3333333333333</ele><time>2026-04-08T12:56:40.952Z</time></trkpt><trkpt lat="44.7541392" lon="7.9140947"><ele>293.0</ele><time>2026-04-08T12:56:42.952Z</time></trkpt><trkpt lat="44.7541212" lon="7.9140029"><ele>292.66666666666663</ele><time>2026-04-08T12:56:43.952Z</time></trkpt><trkpt lat="44.7541047" lon="7.9139156"><ele>292.3333333333333</ele><time>2026-04-08T12:56:44.952Z</time></trkpt><trkpt lat="44.7540752" lon="7.9138358"><ele>292.0</ele><time>2026-04-08T12:56:45.952Z</time></trkpt><trkpt lat="44.7540202" lon="7.9137134"><ele>293.5</ele><time>2026-04-08T12:56:47.952Z</time></trkpt><trkpt lat="44.7539392" lon="7.9136014"><ele>295.0</ele><time>2026-04-08T12:56:49.952Z</time></trkpt><trkpt lat="44.7538739" lon="7.9134727"><ele>296.5</ele><time>2026-04-08T12:56:51.952Z</time></trkpt><trkpt lat="44.7538155" lon="7.9133169"><ele>298.0</ele><time>2026-04-08T12:56:53.952Z</time></trkpt><trkpt lat="44.7537597" lon="7.9131839"><ele>298.4</ele><time>2026-04-08T12:56:55.952Z</time></trkpt><trkpt lat="44.7537283" lon="7.913092"><ele>298.8</ele><time>2026-04-08T12:56:56.952Z</time></trkpt><trkpt lat="44.7537035" lon="7.9129788"><ele>299.2</ele><time>2026-04-08T12:56:57.952Z</time></trkpt><trkpt lat="44.75367" lon="7.9128653"><ele>299.6</ele><time>2026-04-08T12:56:58.952Z</time></trkpt><trkpt lat="44.7536348" lon="7.9127286"><ele>300.0</ele><time>2026-04-08T12:56:59.952Z</time></trkpt><trkpt lat="44.7536018" lon="7.9125892"><ele>301.5</ele><time>2026-04-08T12:57:00.952Z</time></trkpt><trkpt lat="44.753573" lon="7.9124629"><ele>303.0</ele><time>2026-04-08T12:57:01.952Z</time></trkpt><trkpt lat="44.7535388" lon="7.9123388"><ele>304.5</ele><time>2026-04-08T12:57:02.952Z</time></trkpt><trkpt lat="44.7535114" lon="7.9122364"><ele>306.0</ele><time>2026-04-08T12:57:03.952Z</time></trkpt><trkpt lat="44.7534708" lon="7.9121265"><ele>307.5</ele><time>2026-04-08T12:57:04.952Z</time></trkpt><trkpt lat="44.7534337" lon="7.912039"><ele>309.0</ele><time>2026-04-08T12:57:05.952Z</time></trkpt><trkpt lat="44.753399" lon="7.9119605"><ele>309.0</ele><time>2026-04-08T12:57:06.952Z</time></trkpt><trkpt lat="44.7533516" lon="7.9118512"><ele>309.0</ele><time>2026-04-08T12:57:07.952Z</time></trkpt><trkpt lat="44.7533256" lon="7.9117698"><ele>309.0</ele><time>2026-04-08T12:57:08.952Z</time></trkpt><trkpt lat="44.7532836" lon="7.9116374"><ele>309.0</ele><time>2026-04-08T12:57:10.952Z</time></trkpt><trkpt lat="44.753239" lon="7.9115225"><ele>309.0</ele><time>2026-04-08T12:57:12.952Z</time></trkpt><trkpt lat="44.7531717" lon="7.9114207"><ele>309.0</ele><time>2026-04-08T12:57:14.952Z</time></trkpt><trkpt lat="44.7531055" lon="7.9112997"><ele>310.0</ele><time>2026-04-08T12:57:16.952Z</time></trkpt><trkpt lat="44.7530224" lon="7.9111884"><ele>311.0</ele><time>2026-04-08T12:57:18.952Z</time></trkpt><trkpt lat="44.7529531" lon="7.9110759"><ele>312.0</ele><time>2026-04-08T12:57:20.952Z</time></trkpt><trkpt lat="44.7528543" lon="7.9109444"><ele>313.0</ele><time>2026-04-08T12:57:22.952Z</time></trkpt><trkpt lat="44.7528083" lon="7.9108805"><ele>314.0</ele><time>2026-04-08T12:57:23.952Z</time></trkpt><trkpt lat="44.7527518" lon="7.9108173"><ele>315.1666666666667</ele><time>2026-04-08T12:57:24.952Z</time></trkpt><trkpt lat="44.7527023" lon="7.9107557"><ele>316.33333333333337</ele><time>2026-04-08T12:57:25.952Z</time></trkpt><trkpt lat="44.7526546" lon="7.9106913"><ele>317.5</ele><time>2026-04-08T12:57:26.952Z</time></trkpt><trkpt lat="44.7525868" lon="7.9106261"><ele>318.6666666666667</ele><time>2026-04-08T12:57:27.952Z</time></trkpt><trkpt lat="44.7525258" lon="7.9105545"><ele>319.8333333333333</ele><time>2026-04-08T12:57:28.952Z</time></trkpt><trkpt lat="44.7524664" lon="7.9104831"><ele>321.0</ele><time>2026-04-08T12:57:29.952Z</time></trkpt><trkpt lat="44.7524018" lon="7.9104138"><ele>321.0</ele><time>2026-04-08T12:57:30.952Z</time></trkpt><trkpt lat="44.7523498" lon="7.910357"><ele>321.0</ele><time>2026-04-08T12:57:31.952Z</time></trkpt><trkpt lat="44.7522813" lon="7.9102937"><ele>321.0</ele><time>2026-04-08T12:57:33.952Z</time></trkpt><trkpt lat="44.7522056" lon="7.9102261"><ele>321.0</ele><time>2026-04-08T12:57:45.952Z</time></trkpt><trkpt lat="44.7521405" lon="7.9101698"><ele>321.0</ele><time>2026-04-08T12:57:52.952Z</time></trkpt><trkpt lat="44.7520906" lon="7.9101043"><ele>321.0</ele><time>2026-04-08T12:57:55.952Z</time></trkpt><trkpt lat="44.7521357" lon="7.9101856"><ele>321.0</ele><time>2026-04-08T12:58:59.952Z</time></trkpt><trkpt lat="44.7521987" lon="7.9102166"><ele>321.0</ele><time>2026-04-08T12:59:14.952Z</time></trkpt><trkpt lat="44.752235" lon="7.9103183"><ele>321.0</ele><time>2026-04-08T12:59:19.952Z</time></trkpt><trkpt lat="44.7522066" lon="7.9104529"><ele>321.0</ele><time>2026-04-08T12:59:21.952Z</time></trkpt><trkpt lat="44.7521377" lon="7.9105043"><ele>321.0</ele><time>2026-04-08T12:59:24.952Z</time></trkpt><trkpt lat="44.7520722" lon="7.9104194"><ele>321.0</ele><time>2026-04-08T12:59:26.952Z</time></trkpt><trkpt lat="44.7519998" lon="7.9103348"><ele>321.0</ele><time>2026-04-08T12:59:28.952Z</time></trkpt><trkpt lat="44.7519224" lon="7.9102927"><ele>321.0</ele><time>2026-04-08T12:59:30.952Z</time></trkpt><trkpt lat="44.7518632" lon="7.9102019"><ele>321.0</ele><time>2026-04-08T12:59:32.952Z</time></trkpt><trkpt lat="44.7517792" lon="7.9101482"><ele>321.0</ele><time>2026-04-08T12:59:34.952Z</time></trkpt><trkpt lat="44.7517043" lon="7.9101827"><ele>321.0</ele><time>2026-04-08T12:59:36.952Z</time></trkpt><trkpt lat="44.7516042" lon="7.9101173"><ele>322.5</ele><time>2026-04-08T12:59:39.952Z</time></trkpt><trkpt lat="44.7515242" lon="7.9100511"><ele>324.0</ele><time>2026-04-08T12:59:41.952Z</time></trkpt><trkpt lat="44.7514301" lon="7.9100391"><ele>325.5</ele><time>2026-04-08T12:59:43.952Z</time></trkpt><trkpt lat="44.7513529" lon="7.9099852"><ele>327.0</ele><time>2026-04-08T12:59:45.952Z</time></trkpt><trkpt lat="44.7512631" lon="7.9099698"><ele>328.5</ele><time>2026-04-08T12:59:47.952Z</time></trkpt><trkpt lat="44.7511828" lon="7.9099714"><ele>330.0</ele><time>2026-04-08T12:59:49.952Z</time></trkpt><trkpt lat="44.7511273" lon="7.9099256"><ele>330.0</ele><time>2026-04-08T12:59:51.952Z</time></trkpt><trkpt lat="44.7511069" lon="7.9097897"><ele>330.0</ele><time>2026-04-08T12:59:54.952Z</time></trkpt><trkpt lat="44.7511387" lon="7.9096982"><ele>330.0</ele><time>2026-04-08T12:59:56.951Z</time></trkpt><trkpt lat="44.7511252" lon="7.90957"><ele>330.0</ele><time>2026-04-08T12:59:59.952Z</time></trkpt><trkpt lat="44.7510804" lon="7.9094953"><ele>330.0</ele><time>2026-04-08T13:00:01.952Z</time></trkpt><trkpt lat="44.7509982" lon="7.9094614"><ele>330.0</ele><time>2026-04-08T13:00:03.952Z</time></trkpt><trkpt lat="44.7508999" lon="7.9094314"><ele>339.0</ele><time>2026-04-08T13:00:05.952Z</time></trkpt><trkpt lat="44.7508131" lon="7.9093513"><ele>348.0</ele><time>2026-04-08T13:00:07.952Z</time></trkpt><trkpt lat="44.7499518" lon="7.9103915"><ele>350.3333333333333</ele><time>2026-04-08T13:03:08.933Z</time></trkpt><trkpt lat="44.7499639" lon="7.9102903"><ele>352.6666666666667</ele><time>2026-04-08T13:03:12.941Z</time></trkpt><trkpt lat="44.7498726" lon="7.9102285"><ele>355.0</ele><time>2026-04-08T13:03:53.009Z</time></trkpt><trkpt lat="44.7497995" lon="7.9101993"><ele>357.33333333333337</ele><time>2026-04-08T13:03:54.009Z</time></trkpt><trkpt lat="44.7497251" lon="7.9101312"><ele>359.6666666666667</ele><time>2026-04-08T13:03:56.009Z</time></trkpt><trkpt lat="44.7496362" lon="7.9100769"><ele>362.0</ele><time>2026-04-08T13:03:58.009Z</time></trkpt><trkpt lat="44.7495413" lon="7.9100714"><ele>366.33333333333337</ele><time>2026-04-08T13:04:00.009Z</time></trkpt><trkpt lat="44.7494369" lon="7.9101292"><ele>370.6666666666667</ele><time>2026-04-08T13:04:01.992Z</time></trkpt><trkpt lat="44.7493513" lon="7.9101048"><ele>375.0</ele><time>2026-04-08T13:04:04.009Z</time></trkpt><trkpt lat="44.7490376" lon="7.9099279"><ele>375.0</ele><time>2026-04-08T13:04:10.009Z</time></trkpt><trkpt lat="44.7489646" lon="7.9099737"><ele>375.0</ele><time>2026-04-08T13:04:12.009Z</time></trkpt><trkpt lat="44.7488574" lon="7.9100273"><ele>375.0</ele><time>2026-04-08T13:04:14.009Z</time></trkpt><trkpt lat="44.7487529" lon="7.9100118"><ele>375.0</ele><time>2026-04-08T13:04:16.009Z</time></trkpt><trkpt lat="44.7486601" lon="7.9099538"><ele>375.0</ele><time>2026-04-08T13:04:17.983Z</time></trkpt><trkpt lat="44.7485729" lon="7.9098262"><ele>375.2</ele><time>2026-04-08T13:04:21.009Z</time></trkpt><trkpt lat="44.7484878" lon="7.9097354"><ele>375.4</ele><time>2026-04-08T13:04:23.009Z</time></trkpt><trkpt lat="44.7483195" lon="7.9096602"><ele>375.6</ele><time>2026-04-08T13:04:25.986Z</time></trkpt><trkpt lat="44.7482454" lon="7.9096318"><ele>375.8</ele><time>2026-04-08T13:04:27.009Z</time></trkpt><trkpt lat="44.7481654" lon="7.9096028"><ele>376.0</ele><time>2026-04-08T13:04:28.009Z</time></trkpt><trkpt lat="44.7480371" lon="7.9095723"><ele>376.0</ele><time>2026-04-08T13:04:30.009Z</time></trkpt><trkpt lat="44.7479143" lon="7.9095831"><ele>376.0</ele><time>2026-04-08T13:04:32.009Z</time></trkpt><trkpt lat="44.7476706" lon="7.9095198"><ele>376.0</ele><time>2026-04-08T13:04:36.009Z</time></trkpt><trkpt lat="44.7476163" lon="7.9094746"><ele>376.0</ele><time>2026-04-08T13:04:37.009Z</time></trkpt><trkpt lat="44.7475048" lon="7.9092912"><ele>384.0</ele><time>2026-04-08T13:04:39.977Z</time></trkpt><trkpt lat="44.7473082" lon="7.9091023"><ele>392.0</ele><time>2026-04-08T13:04:44.009Z</time></trkpt><trkpt lat="44.7470662" lon="7.9087566"><ele>392.0</ele><time>2026-04-08T13:04:49.974Z</time></trkpt><trkpt lat="44.7470238" lon="7.9085266"><ele>392.0</ele><time>2026-04-08T13:04:54.009Z</time></trkpt><trkpt lat="44.7466441" lon="7.9075914"><ele>393.0</ele><time>2026-04-08T13:05:03.966Z</time></trkpt><trkpt lat="44.74661" lon="7.9074766"><ele>394.0</ele><time>2026-04-08T13:05:04.971Z</time></trkpt><trkpt lat="44.7465942" lon="7.9073537"><ele>395.0</ele><time>2026-04-08T13:05:05.971Z</time></trkpt><trkpt lat="44.7465953" lon="7.9072174"><ele>396.0</ele><time>2026-04-08T13:05:06.969Z</time></trkpt><trkpt lat="44.7465979" lon="7.9070817"><ele>397.0</ele><time>2026-04-08T13:05:07.966Z</time></trkpt><trkpt lat="44.7465854" lon="7.90695"><ele>397.0</ele><time>2026-04-08T13:05:08.97Z</time></trkpt><trkpt lat="44.7465575" lon="7.9068219"><ele>397.0</ele><time>2026-04-08T13:05:09.967Z</time></trkpt><trkpt lat="44.7465336" lon="7.9066899"><ele>397.0</ele><time>2026-04-08T13:05:10.97Z</time></trkpt><trkpt lat="44.7465269" lon="7.9065575"><ele>397.0</ele><time>2026-04-08T13:05:11.971Z</time></trkpt><trkpt lat="44.7465359" lon="7.9064324"><ele>397.0</ele><time>2026-04-08T13:05:12.975Z</time></trkpt><trkpt lat="44.7465551" lon="7.9063063"><ele>396.40000000000003</ele><time>2026-04-08T13:05:13.969Z</time></trkpt><trkpt lat="44.7465751" lon="7.9061739"><ele>395.8</ele><time>2026-04-08T13:05:14.968Z</time></trkpt><trkpt lat="44.7466208" lon="7.9060576"><ele>395.2</ele><time>2026-04-08T13:05:15.968Z</time></trkpt><trkpt lat="44.7466649" lon="7.905937"><ele>394.6</ele><time>2026-04-08T13:05:16.968Z</time></trkpt><trkpt lat="44.7466971" lon="7.9058179"><ele>394.0</ele><time>2026-04-08T13:05:17.969Z</time></trkpt><trkpt lat="44.7467121" lon="7.9056924"><ele>392.33333333333337</ele><time>2026-04-08T13:05:18.971Z</time></trkpt><trkpt lat="44.7467181" lon="7.9055635"><ele>390.6666666666667</ele><time>2026-04-08T13:05:19.972Z</time></trkpt><trkpt lat="44.7467347" lon="7.9054512"><ele>389.0</ele><time>2026-04-08T13:05:20.973Z</time></trkpt><trkpt lat="44.746785" lon="7.9053726"><ele>387.33333333333337</ele><time>2026-04-08T13:05:21.966Z</time></trkpt><trkpt lat="44.7468535" lon="7.9053177"><ele>385.6666666666667</ele><time>2026-04-08T13:05:22.969Z</time></trkpt><trkpt lat="44.7469315" lon="7.9052921"><ele>384.0</ele><time>2026-04-08T13:05:23.971Z</time></trkpt><trkpt lat="44.7470095" lon="7.9052751"><ele>383.8333333333333</ele><time>2026-04-08T13:05:24.971Z</time></trkpt><trkpt lat="44.7470865" lon="7.9052541"><ele>383.6666666666667</ele><time>2026-04-08T13:05:25.971Z</time></trkpt><trkpt lat="44.7471623" lon="7.9052396"><ele>383.5</ele><time>2026-04-08T13:05:26.971Z</time></trkpt><trkpt lat="44.7472349" lon="7.905223"><ele>383.33333333333337</ele><time>2026-04-08T13:05:27.971Z</time></trkpt><trkpt lat="44.7473417" lon="7.9051895"><ele>383.1666666666667</ele><time>2026-04-08T13:05:29.968Z</time></trkpt><trkpt lat="44.7474238" lon="7.9051668"><ele>383.0</ele><time>2026-04-08T13:05:31.971Z</time></trkpt><trkpt lat="44.7474308" lon="7.9050281"><ele>381.79999999999995</ele><time>2026-04-08T13:05:35.983Z</time></trkpt><trkpt lat="44.7473783" lon="7.9048937"><ele>380.6</ele><time>2026-04-08T13:05:37.972Z</time></trkpt><trkpt lat="44.7473215" lon="7.9047321"><ele>379.4</ele><time>2026-04-08T13:05:39.972Z</time></trkpt><trkpt lat="44.7472932" lon="7.9046428"><ele>378.20000000000005</ele><time>2026-04-08T13:05:40.97Z</time></trkpt><trkpt lat="44.7472596" lon="7.9045427"><ele>377.0</ele><time>2026-04-08T13:05:41.971Z</time></trkpt><trkpt lat="44.7472268" lon="7.9044428"><ele>377.0</ele><time>2026-04-08T13:05:42.972Z</time></trkpt><trkpt lat="44.7471933" lon="7.904339"><ele>377.0</ele><time>2026-04-08T13:05:43.971Z</time></trkpt><trkpt lat="44.7471601" lon="7.9042311"><ele>377.0</ele><time>2026-04-08T13:05:44.97Z</time></trkpt><trkpt lat="44.747126" lon="7.9041275"><ele>377.0</ele><time>2026-04-08T13:05:45.974Z</time></trkpt><trkpt lat="44.747094" lon="7.9040267"><ele>377.0</ele><time>2026-04-08T13:05:46.971Z</time></trkpt><trkpt lat="44.7470614" lon="7.903921"><ele>377.0</ele><time>2026-04-08T13:05:47.971Z</time></trkpt><trkpt lat="44.7470313" lon="7.9038214"><ele>376.6666666666667</ele><time>2026-04-08T13:05:48.969Z</time></trkpt><trkpt lat="44.7470013" lon="7.9037224"><ele>376.33333333333337</ele><time>2026-04-08T13:05:49.971Z</time></trkpt><trkpt lat="44.7469729" lon="7.903632"><ele>376.0</ele><time>2026-04-08T13:05:50.972Z</time></trkpt><trkpt lat="44.7469455" lon="7.9035409"><ele>375.6666666666667</ele><time>2026-04-08T13:05:51.971Z</time></trkpt><trkpt lat="44.7469225" lon="7.9033958"><ele>375.3333333333333</ele><time>2026-04-08T13:05:53.975Z</time></trkpt><trkpt lat="44.7468769" lon="7.9032558"><ele>375.0</ele><time>2026-04-08T13:05:56.981Z</time></trkpt><trkpt lat="44.7467858" lon="7.9031412"><ele>375.0</ele><time>2026-04-08T13:05:58.969Z</time></trkpt><trkpt lat="44.7467316" lon="7.9030806"><ele>375.0</ele><time>2026-04-08T13:05:59.972Z</time></trkpt><trkpt lat="44.7466716" lon="7.9030163"><ele>375.0</ele><time>2026-04-08T13:06:00.973Z</time></trkpt><trkpt lat="44.7466159" lon="7.9029459"><ele>375.0</ele><time>2026-04-08T13:06:01.971Z</time></trkpt><trkpt lat="44.7465592" lon="7.9028736"><ele>375.0</ele><time>2026-04-08T13:06:02.972Z</time></trkpt><trkpt lat="44.7465059" lon="7.9028093"><ele>375.0</ele><time>2026-04-08T13:06:03.973Z</time></trkpt><trkpt lat="44.7464569" lon="7.9027503"><ele>375.0</ele><time>2026-04-08T13:06:04.972Z</time></trkpt><trkpt lat="44.7464" lon="7.902705"><ele>375.0</ele><time>2026-04-08T13:06:05.974Z</time></trkpt><trkpt lat="44.7463341" lon="7.902695"><ele>375.0</ele><time>2026-04-08T13:06:06.971Z</time></trkpt><trkpt lat="44.7462289" lon="7.9027163"><ele>375.0</ele><time>2026-04-08T13:06:08.972Z</time></trkpt><trkpt lat="44.746145" lon="7.9026496"><ele>375.0</ele><time>2026-04-08T13:06:10.972Z</time></trkpt><trkpt lat="44.7460642" lon="7.9026173"><ele>375.0</ele><time>2026-04-08T13:06:12.972Z</time></trkpt><trkpt lat="44.7459881" lon="7.9027076"><ele>375.8</ele><time>2026-04-08T13:06:14.973Z</time></trkpt><trkpt lat="44.7459132" lon="7.9027324"><ele>376.6</ele><time>2026-04-08T13:06:17.973Z</time></trkpt><trkpt lat="44.7459493" lon="7.9026213"><ele>377.4</ele><time>2026-04-08T13:06:20.979Z</time></trkpt><trkpt lat="44.7459473" lon="7.9024802"><ele>378.2</ele><time>2026-04-08T13:06:22.973Z</time></trkpt><trkpt lat="44.7459252" lon="7.9023105"><ele>379.0</ele><time>2026-04-08T13:06:24.969Z</time></trkpt><trkpt lat="44.7459056" lon="7.9022221"><ele>379.00000000000006</ele><time>2026-04-08T13:06:25.974Z</time></trkpt><trkpt lat="44.7458773" lon="7.9021243"><ele>379.0</ele><time>2026-04-08T13:06:26.972Z</time></trkpt><trkpt lat="44.7458505" lon="7.9020308"><ele>379.0</ele><time>2026-04-08T13:06:27.967Z</time></trkpt><trkpt lat="44.7458227" lon="7.9019289"><ele>379.0</ele><time>2026-04-08T13:06:28.968Z</time></trkpt><trkpt lat="44.745798" lon="7.9018327"><ele>379.0</ele><time>2026-04-08T13:06:29.969Z</time></trkpt><trkpt lat="44.7457735" lon="7.9017288"><ele>379.00000000000006</ele><time>2026-04-08T13:06:30.972Z</time></trkpt><trkpt lat="44.7457633" lon="7.9016387"><ele>379.0</ele><time>2026-04-08T13:06:31.965Z</time></trkpt><trkpt lat="44.745734" lon="7.9014878"><ele>378.6</ele><time>2026-04-08T13:06:33.972Z</time></trkpt><trkpt lat="44.7457394" lon="7.9013488"><ele>378.2</ele><time>2026-04-08T13:06:35.969Z</time></trkpt><trkpt lat="44.7457718" lon="7.9012635"><ele>377.8</ele><time>2026-04-08T13:06:36.968Z</time></trkpt><trkpt lat="44.7458151" lon="7.9011587"><ele>377.40000000000003</ele><time>2026-04-08T13:06:37.966Z</time></trkpt><trkpt lat="44.7458681" lon="7.9010375"><ele>377.0</ele><time>2026-04-08T13:06:38.967Z</time></trkpt><trkpt lat="44.7459266" lon="7.9009006"><ele>375.75</ele><time>2026-04-08T13:06:39.971Z</time></trkpt><trkpt lat="44.7459858" lon="7.9007567"><ele>374.5</ele><time>2026-04-08T13:06:40.972Z</time></trkpt><trkpt lat="44.7460537" lon="7.9005998"><ele>373.25</ele><time>2026-04-08T13:06:41.967Z</time></trkpt><trkpt lat="44.7461342" lon="7.900423"><ele>372.0</ele><time>2026-04-08T13:06:42.971Z</time></trkpt><trkpt lat="44.746214" lon="7.9002668"><ele>373.75</ele><time>2026-04-08T13:06:43.971Z</time></trkpt><trkpt lat="44.7462825" lon="7.9001097"><ele>375.5</ele><time>2026-04-08T13:06:44.967Z</time></trkpt><trkpt lat="44.7463578" lon="7.8999506"><ele>377.25</ele><time>2026-04-08T13:06:45.971Z</time></trkpt><trkpt lat="44.746427" lon="7.8997921"><ele>379.0</ele><time>2026-04-08T13:06:46.969Z</time></trkpt><trkpt lat="44.7464873" lon="7.8996396"><ele>379.0</ele><time>2026-04-08T13:06:47.97Z</time></trkpt><trkpt lat="44.7465439" lon="7.8994805"><ele>379.0</ele><time>2026-04-08T13:06:48.969Z</time></trkpt><trkpt lat="44.7466047" lon="7.8993277"><ele>379.0</ele><time>2026-04-08T13:06:49.967Z</time></trkpt><trkpt lat="44.7466724" lon="7.8991765"><ele>379.0</ele><time>2026-04-08T13:06:50.968Z</time></trkpt><trkpt lat="44.7467347" lon="7.8990262"><ele>379.0</ele><time>2026-04-08T13:06:51.968Z</time></trkpt><trkpt lat="44.7467988" lon="7.8988738"><ele>379.0</ele><time>2026-04-08T13:06:52.969Z</time></trkpt><trkpt lat="44.7468652" lon="7.8987313"><ele>379.0</ele><time>2026-04-08T13:06:53.972Z</time></trkpt><trkpt lat="44.7469355" lon="7.8985935"><ele>379.0</ele><time>2026-04-08T13:06:54.972Z</time></trkpt><trkpt lat="44.7470134" lon="7.8984833"><ele>376.79999999999995</ele><time>2026-04-08T13:06:55.97Z</time></trkpt><trkpt lat="44.7470951" lon="7.898386"><ele>374.59999999999997</ele><time>2026-04-08T13:06:56.967Z</time></trkpt><trkpt lat="44.7471763" lon="7.8983136"><ele>372.4</ele><time>2026-04-08T13:06:57.969Z</time></trkpt><trkpt lat="44.7472552" lon="7.8982613"><ele>370.2</ele><time>2026-04-08T13:06:58.969Z</time></trkpt><trkpt lat="44.7473275" lon="7.8982154"><ele>368.0</ele><time>2026-04-08T13:06:59.97Z</time></trkpt><trkpt lat="44.7474351" lon="7.8981237"><ele>368.0</ele><time>2026-04-08T13:07:01.971Z</time></trkpt><trkpt lat="44.7474385" lon="7.8979603"><ele>368.0</ele><time>2026-04-08T13:07:03.967Z</time></trkpt><trkpt lat="44.7474009" lon="7.8978635"><ele>368.0</ele><time>2026-04-08T13:07:04.97Z</time></trkpt><trkpt lat="44.747351" lon="7.8977508"><ele>368.0</ele><time>2026-04-08T13:07:05.969Z</time></trkpt><trkpt lat="44.7472925" lon="7.8976303"><ele>368.0</ele><time>2026-04-08T13:07:06.967Z</time></trkpt><trkpt lat="44.7472322" lon="7.8975076"><ele>367.25</ele><time>2026-04-08T13:07:07.97Z</time></trkpt><trkpt lat="44.7471685" lon="7.8973798"><ele>366.5</ele><time>2026-04-08T13:07:08.968Z</time></trkpt><trkpt lat="44.747105" lon="7.8972487"><ele>365.75</ele><time>2026-04-08T13:07:09.969Z</time></trkpt><trkpt lat="44.747032" lon="7.8971196"><ele>365.0</ele><time>2026-04-08T13:07:10.968Z</time></trkpt><trkpt lat="44.7469317" lon="7.8970006"><ele>365.5</ele><time>2026-04-08T13:07:11.967Z</time></trkpt><trkpt lat="44.7468158" lon="7.8969145"><ele>366.0</ele><time>2026-04-08T13:07:12.967Z</time></trkpt><trkpt lat="44.7466985" lon="7.8968344"><ele>366.5</ele><time>2026-04-08T13:07:13.97Z</time></trkpt><trkpt lat="44.7465835" lon="7.8967338"><ele>367.0</ele><time>2026-04-08T13:07:14.967Z</time></trkpt><trkpt lat="44.7464685" lon="7.896606"><ele>367.25</ele><time>2026-04-08T13:07:15.966Z</time></trkpt><trkpt lat="44.7463729" lon="7.8964748"><ele>367.5</ele><time>2026-04-08T13:07:16.967Z</time></trkpt><trkpt lat="44.7462915" lon="7.8963422"><ele>367.75</ele><time>2026-04-08T13:07:17.971Z</time></trkpt><trkpt lat="44.7462204" lon="7.8962102"><ele>368.0</ele><time>2026-04-08T13:07:18.966Z</time></trkpt><trkpt lat="44.746154" lon="7.8960695"><ele>368.0</ele><time>2026-04-08T13:07:19.968Z</time></trkpt><trkpt lat="44.7460785" lon="7.8959306"><ele>368.0</ele><time>2026-04-08T13:07:20.964Z</time></trkpt><trkpt lat="44.7459976" lon="7.8958019"><ele>368.0</ele><time>2026-04-08T13:07:21.97Z</time></trkpt><trkpt lat="44.7459075" lon="7.895678"><ele>368.0</ele><time>2026-04-08T13:07:22.968Z</time></trkpt><trkpt lat="44.7458275" lon="7.8955569"><ele>368.59999999999997</ele><time>2026-04-08T13:07:23.978Z</time></trkpt><trkpt lat="44.7457561" lon="7.8954411"><ele>369.2</ele><time>2026-04-08T13:07:24.97Z</time></trkpt><trkpt lat="44.7456845" lon="7.8953225"><ele>369.8</ele><time>2026-04-08T13:07:25.967Z</time></trkpt><trkpt lat="44.7456164" lon="7.8952034"><ele>370.4</ele><time>2026-04-08T13:07:26.967Z</time></trkpt><trkpt lat="44.7455542" lon="7.8950863"><ele>371.0</ele><time>2026-04-08T13:07:27.969Z</time></trkpt><trkpt lat="44.7454914" lon="7.8949636"><ele>372.0</ele><time>2026-04-08T13:07:28.972Z</time></trkpt><trkpt lat="44.7454346" lon="7.8948603"><ele>373.0</ele><time>2026-04-08T13:07:29.969Z</time></trkpt><trkpt lat="44.7453769" lon="7.8947687"><ele>374.0</ele><time>2026-04-08T13:07:30.972Z</time></trkpt><trkpt lat="44.7453112" lon="7.8946846"><ele>375.0</ele><time>2026-04-08T13:07:31.971Z</time></trkpt><trkpt lat="44.7452366" lon="7.8945846"><ele>376.0</ele><time>2026-04-08T13:07:32.965Z</time></trkpt><trkpt lat="44.7451494" lon="7.894484"><ele>376.0</ele><time>2026-04-08T13:07:33.966Z</time></trkpt><trkpt lat="44.745066" lon="7.8943685"><ele>376.0</ele><time>2026-04-08T13:07:34.969Z</time></trkpt><trkpt lat="44.7449783" lon="7.8942516"><ele>376.0</ele><time>2026-04-08T13:07:35.97Z</time></trkpt><trkpt lat="44.7448948" lon="7.8941365"><ele>376.0</ele><time>2026-04-08T13:07:36.97Z</time></trkpt><trkpt lat="44.7448039" lon="7.8940238"><ele>375.75</ele><time>2026-04-08T13:07:37.968Z</time></trkpt><trkpt lat="44.7447205" lon="7.8939024"><ele>375.5</ele><time>2026-04-08T13:07:38.969Z</time></trkpt><trkpt lat="44.7446329" lon="7.8937729"><ele>375.25</ele><time>2026-04-08T13:07:39.968Z</time></trkpt><trkpt lat="44.7445424" lon="7.8936474"><ele>375.0</ele><time>2026-04-08T13:07:40.968Z</time></trkpt><trkpt lat="44.7444529" lon="7.8935293"><ele>375.5</ele><time>2026-04-08T13:07:41.967Z</time></trkpt><trkpt lat="44.7443665" lon="7.8934131"><ele>376.0</ele><time>2026-04-08T13:07:42.97Z</time></trkpt><trkpt lat="44.7442815" lon="7.8932958"><ele>376.5</ele><time>2026-04-08T13:07:43.97Z</time></trkpt><trkpt lat="44.7442021" lon="7.8931901"><ele>377.0</ele><time>2026-04-08T13:07:44.972Z</time></trkpt><trkpt lat="44.7441253" lon="7.8930891"><ele>377.0</ele><time>2026-04-08T13:07:45.969Z</time></trkpt><trkpt lat="44.7440522" lon="7.8929906"><ele>377.0</ele><time>2026-04-08T13:07:46.967Z</time></trkpt><trkpt lat="44.7439834" lon="7.8928949"><ele>377.0</ele><time>2026-04-08T13:07:47.967Z</time></trkpt><trkpt lat="44.7439141" lon="7.892781"><ele>377.0</ele><time>2026-04-08T13:07:48.97Z</time></trkpt><trkpt lat="44.7438437" lon="7.8926748"><ele>377.0</ele><time>2026-04-08T13:07:49.971Z</time></trkpt><trkpt lat="44.7437696" lon="7.8925665"><ele>378.8</ele><time>2026-04-08T13:07:50.969Z</time></trkpt><trkpt lat="44.7436962" lon="7.8924628"><ele>380.6</ele><time>2026-04-08T13:07:51.961Z</time></trkpt><trkpt lat="44.7436253" lon="7.8923677"><ele>382.40000000000003</ele><time>2026-04-08T13:07:52.967Z</time></trkpt><trkpt lat="44.7435601" lon="7.8922576"><ele>384.20000000000005</ele><time>2026-04-08T13:07:53.965Z</time></trkpt><trkpt lat="44.7435103" lon="7.8921328"><ele>386.0</ele><time>2026-04-08T13:07:54.972Z</time></trkpt><trkpt lat="44.7434577" lon="7.8919995"><ele>386.0</ele><time>2026-04-08T13:07:55.968Z</time></trkpt><trkpt lat="44.743407" lon="7.8918665"><ele>386.0</ele><time>2026-04-08T13:07:56.968Z</time></trkpt><trkpt lat="44.7433618" lon="7.8917383"><ele>386.0</ele><time>2026-04-08T13:07:57.971Z</time></trkpt><trkpt lat="44.7433129" lon="7.8916264"><ele>386.0</ele><time>2026-04-08T13:07:58.969Z</time></trkpt><trkpt lat="44.7432593" lon="7.8915241"><ele>386.0</ele><time>2026-04-08T13:07:59.967Z</time></trkpt><trkpt lat="44.7431952" lon="7.8914451"><ele>385.6</ele><time>2026-04-08T13:08:00.966Z</time></trkpt><trkpt lat="44.7431026" lon="7.8914063"><ele>385.20000000000005</ele><time>2026-04-08T13:08:01.966Z</time></trkpt><trkpt lat="44.7430009" lon="7.8914903"><ele>384.79999999999995</ele><time>2026-04-08T13:08:02.968Z</time></trkpt><trkpt lat="44.7428966" lon="7.8915108"><ele>384.4</ele><time>2026-04-08T13:08:03.97Z</time></trkpt><trkpt lat="44.7427934" lon="7.8915596"><ele>384.0</ele><time>2026-04-08T13:08:04.971Z</time></trkpt><trkpt lat="44.7426822" lon="7.8916028"><ele>385.4</ele><time>2026-04-08T13:08:05.969Z</time></trkpt><trkpt lat="44.7425723" lon="7.8916422"><ele>386.79999999999995</ele><time>2026-04-08T13:08:06.964Z</time></trkpt><trkpt lat="44.7424646" lon="7.8916843"><ele>388.20000000000005</ele><time>2026-04-08T13:08:07.968Z</time></trkpt><trkpt lat="44.7423578" lon="7.8917327"><ele>389.6</ele><time>2026-04-08T13:08:08.969Z</time></trkpt><trkpt lat="44.7422539" lon="7.8917906"><ele>391.0</ele><time>2026-04-08T13:08:09.965Z</time></trkpt><trkpt lat="44.7421515" lon="7.8918451"><ele>391.6666666666667</ele><time>2026-04-08T13:08:10.971Z</time></trkpt><trkpt lat="44.7420507" lon="7.8919009"><ele>392.33333333333337</ele><time>2026-04-08T13:08:11.967Z</time></trkpt><trkpt lat="44.7419603" lon="7.8919396"><ele>393.0</ele><time>2026-04-08T13:08:12.972Z</time></trkpt><trkpt lat="44.7418882" lon="7.892005"><ele>393.66666666666663</ele><time>2026-04-08T13:08:13.971Z</time></trkpt><trkpt lat="44.741811" lon="7.8920378"><ele>394.3333333333333</ele><time>2026-04-08T13:08:14.969Z</time></trkpt><trkpt lat="44.7417314" lon="7.8920498"><ele>395.0</ele><time>2026-04-08T13:08:15.969Z</time></trkpt><trkpt lat="44.741682" lon="7.8919752"><ele>393.99999999999994</ele><time>2026-04-08T13:08:16.968Z</time></trkpt><trkpt lat="44.7416433" lon="7.8918945"><ele>393.0</ele><time>2026-04-08T13:08:17.97Z</time></trkpt><trkpt lat="44.741616" lon="7.8917129"><ele>392.0</ele><time>2026-04-08T13:08:19.97Z</time></trkpt><trkpt lat="44.7415944" lon="7.891611"><ele>391.0</ele><time>2026-04-08T13:08:20.968Z</time></trkpt><trkpt lat="44.741572" lon="7.8915109"><ele>389.99999999999994</ele><time>2026-04-08T13:08:21.971Z</time></trkpt><trkpt lat="44.7415341" lon="7.8914256"><ele>389.0</ele><time>2026-04-08T13:08:22.968Z</time></trkpt><trkpt lat="44.7414841" lon="7.8913454"><ele>388.99999999999994</ele><time>2026-04-08T13:08:23.967Z</time></trkpt><trkpt lat="44.7414131" lon="7.8912762"><ele>389.0</ele><time>2026-04-08T13:08:24.967Z</time></trkpt><trkpt lat="44.7413345" lon="7.8912182"><ele>389.0</ele><time>2026-04-08T13:08:25.97Z</time></trkpt><trkpt lat="44.7412484" lon="7.8911806"><ele>389.0</ele><time>2026-04-08T13:08:26.969Z</time></trkpt><trkpt lat="44.7411732" lon="7.8911458"><ele>388.99999999999994</ele><time>2026-04-08T13:08:27.965Z</time></trkpt><trkpt lat="44.7410748" lon="7.8911368"><ele>389.0</ele><time>2026-04-08T13:08:28.967Z</time></trkpt><trkpt lat="44.7409842" lon="7.8911416"><ele>390.16666666666663</ele><time>2026-04-08T13:08:29.965Z</time></trkpt><trkpt lat="44.7409094" lon="7.891162"><ele>391.3333333333333</ele><time>2026-04-08T13:08:30.967Z</time></trkpt><trkpt lat="44.7408379" lon="7.8911974"><ele>392.5</ele><time>2026-04-08T13:08:31.967Z</time></trkpt><trkpt lat="44.7407677" lon="7.8912408"><ele>393.66666666666663</ele><time>2026-04-08T13:08:32.968Z</time></trkpt><trkpt lat="44.7407004" lon="7.8912919"><ele>394.8333333333333</ele><time>2026-04-08T13:08:33.97Z</time></trkpt><trkpt lat="44.7406259" lon="7.8913468"><ele>396.0</ele><time>2026-04-08T13:08:34.968Z</time></trkpt><trkpt lat="44.7405607" lon="7.8913891"><ele>396.0</ele><time>2026-04-08T13:08:35.964Z</time></trkpt><trkpt lat="44.740486" lon="7.8914285"><ele>396.0</ele><time>2026-04-08T13:08:36.965Z</time></trkpt><trkpt lat="44.7404052" lon="7.8914955"><ele>396.0</ele><time>2026-04-08T13:08:37.966Z</time></trkpt><trkpt lat="44.7403303" lon="7.8915677"><ele>396.0</ele><time>2026-04-08T13:08:38.967Z</time></trkpt><trkpt lat="44.7402645" lon="7.8916383"><ele>396.0</ele><time>2026-04-08T13:08:39.966Z</time></trkpt><trkpt lat="44.740202" lon="7.8917079"><ele>396.0</ele><time>2026-04-08T13:08:40.969Z</time></trkpt><trkpt lat="44.7401463" lon="7.8917902"><ele>393.6</ele><time>2026-04-08T13:08:41.967Z</time></trkpt><trkpt lat="44.7400977" lon="7.8918662"><ele>391.20000000000005</ele><time>2026-04-08T13:08:42.966Z</time></trkpt><trkpt lat="44.7400579" lon="7.8919432"><ele>388.79999999999995</ele><time>2026-04-08T13:08:43.967Z</time></trkpt><trkpt lat="44.7399468" lon="7.8920262"><ele>386.4</ele><time>2026-04-08T13:08:45.972Z</time></trkpt><trkpt lat="44.7398527" lon="7.891991"><ele>384.0</ele><time>2026-04-08T13:08:47.966Z</time></trkpt><trkpt lat="44.7398132" lon="7.891822"><ele>386.0</ele><time>2026-04-08T13:08:49.966Z</time></trkpt><trkpt lat="44.7398191" lon="7.8917204"><ele>388.0</ele><time>2026-04-08T13:08:50.967Z</time></trkpt><trkpt lat="44.7398358" lon="7.8916194"><ele>390.0</ele><time>2026-04-08T13:08:51.969Z</time></trkpt><trkpt lat="44.7398605" lon="7.8915264"><ele>392.0</ele><time>2026-04-08T13:08:52.968Z</time></trkpt><trkpt lat="44.7398892" lon="7.8914092"><ele>394.0</ele><time>2026-04-08T13:08:53.965Z</time></trkpt><trkpt lat="44.7399205" lon="7.8913075"><ele>396.0</ele><time>2026-04-08T13:08:54.957Z</time></trkpt><trkpt lat="44.7399525" lon="7.8911863"><ele>396.0</ele><time>2026-04-08T13:08:55.97Z</time></trkpt><trkpt lat="44.7399955" lon="7.8910697"><ele>396.0</ele><time>2026-04-08T13:08:56.968Z</time></trkpt><trkpt lat="44.7400367" lon="7.8909716"><ele>396.0</ele><time>2026-04-08T13:08:57.969Z</time></trkpt><trkpt lat="44.7400665" lon="7.8908419"><ele>396.0</ele><time>2026-04-08T13:08:58.966Z</time></trkpt><trkpt lat="44.7400984" lon="7.8907294"><ele>396.0</ele><time>2026-04-08T13:08:59.968Z</time></trkpt><trkpt lat="44.7401371" lon="7.8905931"><ele>396.4</ele><time>2026-04-08T13:09:00.967Z</time></trkpt><trkpt lat="44.7401899" lon="7.890453"><ele>396.8</ele><time>2026-04-08T13:09:01.967Z</time></trkpt><trkpt lat="44.7402345" lon="7.8903117"><ele>397.2</ele><time>2026-04-08T13:09:02.97Z</time></trkpt><trkpt lat="44.7402787" lon="7.89016"><ele>397.59999999999997</ele><time>2026-04-08T13:09:03.967Z</time></trkpt><trkpt lat="44.7403086" lon="7.8900178"><ele>398.0</ele><time>2026-04-08T13:09:04.971Z</time></trkpt><trkpt lat="44.7403296" lon="7.8898772"><ele>398.0</ele><time>2026-04-08T13:09:05.967Z</time></trkpt><trkpt lat="44.7403522" lon="7.8897251"><ele>398.0</ele><time>2026-04-08T13:09:06.969Z</time></trkpt><trkpt lat="44.7403824" lon="7.8895516"><ele>398.0</ele><time>2026-04-08T13:09:07.97Z</time></trkpt><trkpt lat="44.7404201" lon="7.889365"><ele>398.0</ele><time>2026-04-08T13:09:08.97Z</time></trkpt><trkpt lat="44.7404754" lon="7.8891573"><ele>396.75</ele><time>2026-04-08T13:09:09.965Z</time></trkpt><trkpt lat="44.7405225" lon="7.8889599"><ele>395.5</ele><time>2026-04-08T13:09:10.968Z</time></trkpt><trkpt lat="44.7405619" lon="7.8887592"><ele>394.25</ele><time>2026-04-08T13:09:11.978Z</time></trkpt><trkpt lat="44.7406075" lon="7.8885584"><ele>393.0</ele><time>2026-04-08T13:09:12.968Z</time></trkpt><trkpt lat="44.7406422" lon="7.8883648"><ele>391.75</ele><time>2026-04-08T13:09:13.973Z</time></trkpt><trkpt lat="44.7406699" lon="7.888184"><ele>390.5</ele><time>2026-04-08T13:09:14.968Z</time></trkpt><trkpt lat="44.7407025" lon="7.8880048"><ele>389.25</ele><time>2026-04-08T13:09:15.976Z</time></trkpt><trkpt lat="44.7407265" lon="7.887841"><ele>388.0</ele><time>2026-04-08T13:09:16.965Z</time></trkpt><trkpt lat="44.740768" lon="7.8876695"><ele>387.0</ele><time>2026-04-08T13:09:17.967Z</time></trkpt><trkpt lat="44.7408115" lon="7.8875001"><ele>386.0</ele><time>2026-04-08T13:09:18.964Z</time></trkpt><trkpt lat="44.7408578" lon="7.8873441"><ele>385.0</ele><time>2026-04-08T13:09:19.969Z</time></trkpt><trkpt lat="44.7409092" lon="7.8871992"><ele>384.0</ele><time>2026-04-08T13:09:20.973Z</time></trkpt><trkpt lat="44.7409671" lon="7.887064"><ele>384.0</ele><time>2026-04-08T13:09:21.97Z</time></trkpt><trkpt lat="44.741029" lon="7.8869255"><ele>384.0</ele><time>2026-04-08T13:09:22.965Z</time></trkpt><trkpt lat="44.7410803" lon="7.8867805"><ele>384.0</ele><time>2026-04-08T13:09:23.969Z</time></trkpt><trkpt lat="44.7411352" lon="7.8866294"><ele>384.0</ele><time>2026-04-08T13:09:24.966Z</time></trkpt><trkpt lat="44.7411809" lon="7.8864792"><ele>383.25</ele><time>2026-04-08T13:09:25.964Z</time></trkpt><trkpt lat="44.7412238" lon="7.8863178"><ele>382.5</ele><time>2026-04-08T13:09:26.969Z</time></trkpt><trkpt lat="44.7412762" lon="7.8861534"><ele>381.75</ele><time>2026-04-08T13:09:27.97Z</time></trkpt><trkpt lat="44.7413251" lon="7.8859813"><ele>381.0</ele><time>2026-04-08T13:09:28.966Z</time></trkpt><trkpt lat="44.7413686" lon="7.8858306"><ele>381.0</ele><time>2026-04-08T13:09:29.968Z</time></trkpt><trkpt lat="44.741411" lon="7.8856715"><ele>381.0</ele><time>2026-04-08T13:09:30.961Z</time></trkpt><trkpt lat="44.7414555" lon="7.8855186"><ele>381.0</ele><time>2026-04-08T13:09:31.966Z</time></trkpt><trkpt lat="44.7415054" lon="7.8853516"><ele>381.0</ele><time>2026-04-08T13:09:32.966Z</time></trkpt><trkpt lat="44.7415467" lon="7.8851813"><ele>380.0</ele><time>2026-04-08T13:09:33.97Z</time></trkpt><trkpt lat="44.7415837" lon="7.8850189"><ele>379.0</ele><time>2026-04-08T13:09:34.967Z</time></trkpt><trkpt lat="44.7416219" lon="7.8848676"><ele>378.0</ele><time>2026-04-08T13:09:35.966Z</time></trkpt><trkpt lat="44.7416568" lon="7.8847207"><ele>377.0</ele><time>2026-04-08T13:09:36.97Z</time></trkpt><trkpt lat="44.7416868" lon="7.8845702"><ele>377.0</ele><time>2026-04-08T13:09:37.967Z</time></trkpt><trkpt lat="44.7417239" lon="7.8844239"><ele>377.0</ele><time>2026-04-08T13:09:38.964Z</time></trkpt><trkpt lat="44.7417545" lon="7.8842693"><ele>377.0</ele><time>2026-04-08T13:09:39.973Z</time></trkpt><trkpt lat="44.7417884" lon="7.884107"><ele>377.0</ele><time>2026-04-08T13:09:40.966Z</time></trkpt><trkpt lat="44.7418133" lon="7.8839437"><ele>376.8</ele><time>2026-04-08T13:09:41.967Z</time></trkpt><trkpt lat="44.7418283" lon="7.8837977"><ele>376.6</ele><time>2026-04-08T13:09:42.966Z</time></trkpt><trkpt lat="44.7418359" lon="7.8836488"><ele>376.40000000000003</ele><time>2026-04-08T13:09:43.97Z</time></trkpt><trkpt lat="44.741837" lon="7.8835087"><ele>376.20000000000005</ele><time>2026-04-08T13:09:44.967Z</time></trkpt><trkpt lat="44.7418423" lon="7.8833769"><ele>376.0</ele><time>2026-04-08T13:09:45.968Z</time></trkpt><trkpt lat="44.7418753" lon="7.8832609"><ele>376.8</ele><time>2026-04-08T13:09:46.968Z</time></trkpt><trkpt lat="44.7419341" lon="7.8831589"><ele>377.6</ele><time>2026-04-08T13:09:47.969Z</time></trkpt><trkpt lat="44.7419992" lon="7.8830458"><ele>378.4</ele><time>2026-04-08T13:09:48.977Z</time></trkpt><trkpt lat="44.7420892" lon="7.8829285"><ele>379.2</ele><time>2026-04-08T13:09:49.968Z</time></trkpt><trkpt lat="44.7421741" lon="7.8828221"><ele>380.0</ele><time>2026-04-08T13:09:50.963Z</time></trkpt><trkpt lat="44.7422588" lon="7.8827132"><ele>380.0</ele><time>2026-04-08T13:09:51.969Z</time></trkpt><trkpt lat="44.7423406" lon="7.8826049"><ele>380.0</ele><time>2026-04-08T13:09:52.965Z</time></trkpt><trkpt lat="44.7424251" lon="7.8825051"><ele>380.0</ele><time>2026-04-08T13:09:53.967Z</time></trkpt><trkpt lat="44.7425128" lon="7.8824053"><ele>380.0</ele><time>2026-04-08T13:09:54.975Z</time></trkpt><trkpt lat="44.7426097" lon="7.8822933"><ele>380.4</ele><time>2026-04-08T13:09:55.968Z</time></trkpt><trkpt lat="44.7426969" lon="7.8821815"><ele>380.8</ele><time>2026-04-08T13:09:56.973Z</time></trkpt><trkpt lat="44.7427719" lon="7.8820632"><ele>381.20000000000005</ele><time>2026-04-08T13:09:57.967Z</time></trkpt><trkpt lat="44.7428463" lon="7.8819561"><ele>381.6</ele><time>2026-04-08T13:09:58.966Z</time></trkpt><trkpt lat="44.74294" lon="7.8818843"><ele>382.0</ele><time>2026-04-08T13:09:59.966Z</time></trkpt><trkpt lat="44.7430065" lon="7.8818059"><ele>380.0</ele><time>2026-04-08T13:10:00.967Z</time></trkpt><trkpt lat="44.7430783" lon="7.8817275"><ele>378.0</ele><time>2026-04-08T13:10:01.968Z</time></trkpt><trkpt lat="44.7431509" lon="7.8816594"><ele>376.0</ele><time>2026-04-08T13:10:02.971Z</time></trkpt><trkpt lat="44.7432239" lon="7.8815884"><ele>374.0</ele><time>2026-04-08T13:10:03.965Z</time></trkpt><trkpt lat="44.7432969" lon="7.8815141"><ele>372.0</ele><time>2026-04-08T13:10:04.967Z</time></trkpt><trkpt lat="44.7433783" lon="7.8814214"><ele>372.0</ele><time>2026-04-08T13:10:05.964Z</time></trkpt><trkpt lat="44.7434732" lon="7.8813489"><ele>372.0</ele><time>2026-04-08T13:10:06.965Z</time></trkpt><trkpt lat="44.7435698" lon="7.881282"><ele>372.0</ele><time>2026-04-08T13:10:07.965Z</time></trkpt><trkpt lat="44.7436757" lon="7.8812077"><ele>372.0</ele><time>2026-04-08T13:10:08.968Z</time></trkpt><trkpt lat="44.7437773" lon="7.8811128"><ele>372.75</ele><time>2026-04-08T13:10:09.967Z</time></trkpt><trkpt lat="44.7438724" lon="7.8810128"><ele>373.5</ele><time>2026-04-08T13:10:10.969Z</time></trkpt><trkpt lat="44.743965" lon="7.8809115"><ele>374.25</ele><time>2026-04-08T13:10:11.967Z</time></trkpt><trkpt lat="44.744057" lon="7.8808078"><ele>375.0</ele><time>2026-04-08T13:10:12.964Z</time></trkpt><trkpt lat="44.7441486" lon="7.8806967"><ele>373.8</ele><time>2026-04-08T13:10:13.964Z</time></trkpt><trkpt lat="44.7442467" lon="7.8805836"><ele>372.6</ele><time>2026-04-08T13:10:14.969Z</time></trkpt><trkpt lat="44.7443297" lon="7.8804791"><ele>371.4</ele><time>2026-04-08T13:10:15.967Z</time></trkpt><trkpt lat="44.7444074" lon="7.8803816"><ele>370.2</ele><time>2026-04-08T13:10:16.969Z</time></trkpt><trkpt lat="44.7444878" lon="7.8803037"><ele>369.0</ele><time>2026-04-08T13:10:17.967Z</time></trkpt><trkpt lat="44.7445687" lon="7.8802279"><ele>369.0</ele><time>2026-04-08T13:10:18.965Z</time></trkpt><trkpt lat="44.7446492" lon="7.8801542"><ele>369.0</ele><time>2026-04-08T13:10:19.964Z</time></trkpt><trkpt lat="44.744726" lon="7.8800661"><ele>369.0</ele><time>2026-04-08T13:10:20.966Z</time></trkpt><trkpt lat="44.7447993" lon="7.8799954"><ele>369.0</ele><time>2026-04-08T13:10:21.967Z</time></trkpt><trkpt lat="44.7448741" lon="7.8799142"><ele>369.0</ele><time>2026-04-08T13:10:22.968Z</time></trkpt><trkpt lat="44.74495" lon="7.8798204"><ele>367.75</ele><time>2026-04-08T13:10:23.967Z</time></trkpt><trkpt lat="44.7450323" lon="7.8797266"><ele>366.5</ele><time>2026-04-08T13:10:24.966Z</time></trkpt><trkpt lat="44.7451263" lon="7.879626"><ele>365.25</ele><time>2026-04-08T13:10:25.965Z</time></trkpt><trkpt lat="44.7452091" lon="7.8795114"><ele>364.0</ele><time>2026-04-08T13:10:26.966Z</time></trkpt><trkpt lat="44.7452789" lon="7.8793744"><ele>364.5</ele><time>2026-04-08T13:10:27.967Z</time></trkpt><trkpt lat="44.7453588" lon="7.8792354"><ele>365.0</ele><time>2026-04-08T13:10:28.968Z</time></trkpt><trkpt lat="44.7454324" lon="7.8790759"><ele>365.5</ele><time>2026-04-08T13:10:29.968Z</time></trkpt><trkpt lat="44.7455079" lon="7.8789136"><ele>366.0</ele><time>2026-04-08T13:10:30.964Z</time></trkpt><trkpt lat="44.7455921" lon="7.8787317"><ele>366.0</ele><time>2026-04-08T13:10:31.971Z</time></trkpt><trkpt lat="44.7456796" lon="7.8785619"><ele>366.0</ele><time>2026-04-08T13:10:32.964Z</time></trkpt><trkpt lat="44.7457765" lon="7.8784131"><ele>366.0</ele><time>2026-04-08T13:10:33.966Z</time></trkpt><trkpt lat="44.745854" lon="7.8782626"><ele>366.0</ele><time>2026-04-08T13:10:34.97Z</time></trkpt><trkpt lat="44.7459313" lon="7.878116"><ele>365.8</ele><time>2026-04-08T13:10:35.97Z</time></trkpt><trkpt lat="44.7460129" lon="7.878004"><ele>365.6</ele><time>2026-04-08T13:10:36.966Z</time></trkpt><trkpt lat="44.7461062" lon="7.8779155"><ele>365.4</ele><time>2026-04-08T13:10:37.967Z</time></trkpt><trkpt lat="44.7462006" lon="7.8778543"><ele>365.2</ele><time>2026-04-08T13:10:38.972Z</time></trkpt><trkpt lat="44.7463002" lon="7.8778071"><ele>365.0</ele><time>2026-04-08T13:10:39.965Z</time></trkpt><trkpt lat="44.7463944" lon="7.8777592"><ele>364.8</ele><time>2026-04-08T13:10:40.966Z</time></trkpt><trkpt lat="44.7464785" lon="7.8777276"><ele>364.6</ele><time>2026-04-08T13:10:41.966Z</time></trkpt><trkpt lat="44.7465615" lon="7.8777015"><ele>364.4</ele><time>2026-04-08T13:10:42.968Z</time></trkpt><trkpt lat="44.7466521" lon="7.8776817"><ele>364.2</ele><time>2026-04-08T13:10:43.969Z</time></trkpt><trkpt lat="44.7467494" lon="7.8776668"><ele>364.0</ele><time>2026-04-08T13:10:44.971Z</time></trkpt><trkpt lat="44.746841" lon="7.8776425"><ele>362.79999999999995</ele><time>2026-04-08T13:10:45.968Z</time></trkpt><trkpt lat="44.7469369" lon="7.8776256"><ele>361.59999999999997</ele><time>2026-04-08T13:10:46.968Z</time></trkpt><trkpt lat="44.7470405" lon="7.8776152"><ele>360.4</ele><time>2026-04-08T13:10:47.964Z</time></trkpt><trkpt lat="44.7471429" lon="7.8775823"><ele>359.2</ele><time>2026-04-08T13:10:48.969Z</time></trkpt><trkpt lat="44.7472529" lon="7.8775621"><ele>358.0</ele><time>2026-04-08T13:10:49.969Z</time></trkpt><trkpt lat="44.7473531" lon="7.8775427"><ele>358.0</ele><time>2026-04-08T13:10:50.966Z</time></trkpt><trkpt lat="44.7474516" lon="7.8775175"><ele>358.0</ele><time>2026-04-08T13:10:51.968Z</time></trkpt><trkpt lat="44.7475441" lon="7.8774943"><ele>358.0</ele><time>2026-04-08T13:10:52.968Z</time></trkpt><trkpt lat="44.7476334" lon="7.8774856"><ele>358.0</ele><time>2026-04-08T13:10:53.967Z</time></trkpt><trkpt lat="44.7477156" lon="7.8774638"><ele>358.0</ele><time>2026-04-08T13:10:54.969Z</time></trkpt><trkpt lat="44.7477945" lon="7.8774421"><ele>358.0</ele><time>2026-04-08T13:10:55.966Z</time></trkpt><trkpt lat="44.7478726" lon="7.8774244"><ele>359.0</ele><time>2026-04-08T13:10:56.967Z</time></trkpt><trkpt lat="44.7479561" lon="7.8774021"><ele>360.0</ele><time>2026-04-08T13:10:57.967Z</time></trkpt><trkpt lat="44.7480415" lon="7.8773744"><ele>361.0</ele><time>2026-04-08T13:10:58.969Z</time></trkpt><trkpt lat="44.7481197" lon="7.8773632"><ele>362.0</ele><time>2026-04-08T13:10:59.969Z</time></trkpt><trkpt lat="44.7482043" lon="7.87736"><ele>363.0</ele><time>2026-04-08T13:11:00.968Z</time></trkpt><trkpt lat="44.748294" lon="7.877361"><ele>364.0</ele><time>2026-04-08T13:11:01.97Z</time></trkpt><trkpt lat="44.7483971" lon="7.8773666"><ele>364.0</ele><time>2026-04-08T13:11:02.965Z</time></trkpt><trkpt lat="44.7485009" lon="7.8773815"><ele>364.0</ele><time>2026-04-08T13:11:03.966Z</time></trkpt><trkpt lat="44.7485964" lon="7.8773906"><ele>364.0</ele><time>2026-04-08T13:11:04.971Z</time></trkpt><trkpt lat="44.7486839" lon="7.8773938"><ele>364.0</ele><time>2026-04-08T13:11:05.967Z</time></trkpt><trkpt lat="44.7487829" lon="7.8773935"><ele>364.0</ele><time>2026-04-08T13:11:06.97Z</time></trkpt><trkpt lat="44.7488831" lon="7.8774075"><ele>363.5</ele><time>2026-04-08T13:11:07.962Z</time></trkpt><trkpt lat="44.7489681" lon="7.8774374"><ele>363.0</ele><time>2026-04-08T13:11:08.969Z</time></trkpt><trkpt lat="44.7490558" lon="7.8774839"><ele>362.5</ele><time>2026-04-08T13:11:09.967Z</time></trkpt><trkpt lat="44.7491301" lon="7.8775426"><ele>362.0</ele><time>2026-04-08T13:11:10.966Z</time></trkpt><trkpt lat="44.7491976" lon="7.8775979"><ele>361.5</ele><time>2026-04-08T13:11:11.967Z</time></trkpt><trkpt lat="44.7492559" lon="7.8776828"><ele>361.0</ele><time>2026-04-08T13:11:12.965Z</time></trkpt><trkpt lat="44.7493413" lon="7.8778173"><ele>361.8</ele><time>2026-04-08T13:11:14.969Z</time></trkpt><trkpt lat="44.7494342" lon="7.8778958"><ele>362.6</ele><time>2026-04-08T13:11:16.973Z</time></trkpt><trkpt lat="44.7495305" lon="7.8778372"><ele>363.4</ele><time>2026-04-08T13:11:18.968Z</time></trkpt><trkpt lat="44.7495941" lon="7.8776994"><ele>364.2</ele><time>2026-04-08T13:11:20.97Z</time></trkpt><trkpt lat="44.7496276" lon="7.8776199"><ele>365.0</ele><time>2026-04-08T13:11:21.964Z</time></trkpt><trkpt lat="44.7496613" lon="7.8775366"><ele>365.00000000000006</ele><time>2026-04-08T13:11:22.964Z</time></trkpt><trkpt lat="44.7496912" lon="7.8774535"><ele>365.0</ele><time>2026-04-08T13:11:23.967Z</time></trkpt><trkpt lat="44.7497151" lon="7.8773665"><ele>365.0</ele><time>2026-04-08T13:11:24.966Z</time></trkpt><trkpt lat="44.7497384" lon="7.8772835"><ele>365.0</ele><time>2026-04-08T13:11:25.965Z</time></trkpt><trkpt lat="44.7497789" lon="7.877128"><ele>365.0</ele><time>2026-04-08T13:11:27.967Z</time></trkpt><trkpt lat="44.7498037" lon="7.8770402"><ele>365.00000000000006</ele><time>2026-04-08T13:11:28.966Z</time></trkpt><trkpt lat="44.7498299" lon="7.8769577"><ele>365.0</ele><time>2026-04-08T13:11:29.965Z</time></trkpt><trkpt lat="44.7498766" lon="7.8767928"><ele>364.00000000000006</ele><time>2026-04-08T13:11:31.97Z</time></trkpt><trkpt lat="44.7498921" lon="7.8767034"><ele>363.0</ele><time>2026-04-08T13:11:32.967Z</time></trkpt><trkpt lat="44.7499099" lon="7.8766179"><ele>362.0</ele><time>2026-04-08T13:11:33.968Z</time></trkpt><trkpt lat="44.7499361" lon="7.8765208"><ele>361.0</ele><time>2026-04-08T13:11:34.968Z</time></trkpt><trkpt lat="44.7499666" lon="7.876416"><ele>360.0</ele><time>2026-04-08T13:11:35.965Z</time></trkpt><trkpt lat="44.7500054" lon="7.8763226"><ele>359.00000000000006</ele><time>2026-04-08T13:11:36.965Z</time></trkpt><trkpt lat="44.7500253" lon="7.8762002"><ele>358.0</ele><time>2026-04-08T13:11:37.965Z</time></trkpt><trkpt lat="44.7500525" lon="7.8760797"><ele>358.0</ele><time>2026-04-08T13:11:38.966Z</time></trkpt><trkpt lat="44.7500674" lon="7.8759578"><ele>358.0</ele><time>2026-04-08T13:11:39.964Z</time></trkpt><trkpt lat="44.7500738" lon="7.8758345"><ele>358.0</ele><time>2026-04-08T13:11:40.969Z</time></trkpt><trkpt lat="44.7500826" lon="7.8757127"><ele>358.0</ele><time>2026-04-08T13:11:41.969Z</time></trkpt><trkpt lat="44.7501037" lon="7.8756009"><ele>358.0</ele><time>2026-04-08T13:11:42.965Z</time></trkpt><trkpt lat="44.7501335" lon="7.8754968"><ele>358.0</ele><time>2026-04-08T13:11:43.966Z</time></trkpt><trkpt lat="44.7501707" lon="7.8753836"><ele>357.4</ele><time>2026-04-08T13:11:44.965Z</time></trkpt><trkpt lat="44.7502187" lon="7.8752687"><ele>356.79999999999995</ele><time>2026-04-08T13:11:45.97Z</time></trkpt><trkpt lat="44.7502811" lon="7.8751722"><ele>356.2</ele><time>2026-04-08T13:11:46.966Z</time></trkpt><trkpt lat="44.7503531" lon="7.875086"><ele>355.6</ele><time>2026-04-08T13:11:47.965Z</time></trkpt><trkpt lat="44.750428" lon="7.8750081"><ele>355.0</ele><time>2026-04-08T13:11:48.968Z</time></trkpt><trkpt lat="44.7505134" lon="7.8749358"><ele>355.0</ele><time>2026-04-08T13:11:49.965Z</time></trkpt><trkpt lat="44.7506071" lon="7.8748641"><ele>355.0</ele><time>2026-04-08T13:11:50.964Z</time></trkpt><trkpt lat="44.7506952" lon="7.8747755"><ele>355.0</ele><time>2026-04-08T13:11:51.966Z</time></trkpt><trkpt lat="44.7507873" lon="7.8746811"><ele>355.0</ele><time>2026-04-08T13:11:52.966Z</time></trkpt><trkpt lat="44.7508753" lon="7.874594"><ele>355.0</ele><time>2026-04-08T13:11:53.969Z</time></trkpt><trkpt lat="44.7509515" lon="7.874484"><ele>355.0</ele><time>2026-04-08T13:11:54.967Z</time></trkpt><trkpt lat="44.7510221" lon="7.8743793"><ele>355.0</ele><time>2026-04-08T13:11:55.967Z</time></trkpt><trkpt lat="44.7510938" lon="7.8742747"><ele>355.0</ele><time>2026-04-08T13:11:56.965Z</time></trkpt><trkpt lat="44.7511678" lon="7.8741776"><ele>355.0</ele><time>2026-04-08T13:11:57.968Z</time></trkpt><trkpt lat="44.7512455" lon="7.8740811"><ele>355.0</ele><time>2026-04-08T13:11:58.964Z</time></trkpt><trkpt lat="44.751322" lon="7.873977"><ele>354.4</ele><time>2026-04-08T13:11:59.966Z</time></trkpt><trkpt lat="44.7514053" lon="7.8738602"><ele>353.8</ele><time>2026-04-08T13:12:00.963Z</time></trkpt><trkpt lat="44.7514893" lon="7.8737894"><ele>353.20000000000005</ele><time>2026-04-08T13:12:01.966Z</time></trkpt><trkpt lat="44.7515613" lon="7.8737196"><ele>352.6</ele><time>2026-04-08T13:12:02.965Z</time></trkpt><trkpt lat="44.7516206" lon="7.8736352"><ele>352.0</ele><time>2026-04-08T13:12:03.967Z</time></trkpt><trkpt lat="44.7516944" lon="7.8735356"><ele>352.40000000000003</ele><time>2026-04-08T13:12:04.965Z</time></trkpt><trkpt lat="44.7517487" lon="7.8734271"><ele>352.8</ele><time>2026-04-08T13:12:05.965Z</time></trkpt><trkpt lat="44.7518068" lon="7.8733238"><ele>353.2</ele><time>2026-04-08T13:12:06.964Z</time></trkpt><trkpt lat="44.7518539" lon="7.8732052"><ele>353.6</ele><time>2026-04-08T13:12:07.964Z</time></trkpt><trkpt lat="44.7519009" lon="7.8730992"><ele>354.0</ele><time>2026-04-08T13:12:08.964Z</time></trkpt><trkpt lat="44.7519511" lon="7.873011"><ele>353.6666666666667</ele><time>2026-04-08T13:12:09.969Z</time></trkpt><trkpt lat="44.7520006" lon="7.8729007"><ele>353.3333333333333</ele><time>2026-04-08T13:12:10.968Z</time></trkpt><trkpt lat="44.7520426" lon="7.8727968"><ele>353.0</ele><time>2026-04-08T13:12:11.966Z</time></trkpt><trkpt lat="44.7520782" lon="7.8726875"><ele>352.66666666666663</ele><time>2026-04-08T13:12:12.965Z</time></trkpt><trkpt lat="44.7521095" lon="7.8725903"><ele>352.3333333333333</ele><time>2026-04-08T13:12:13.967Z</time></trkpt><trkpt lat="44.7521436" lon="7.8725079"><ele>352.0</ele><time>2026-04-08T13:12:14.963Z</time></trkpt><trkpt lat="44.7522205" lon="7.8723931"><ele>352.0</ele><time>2026-04-08T13:12:16.966Z</time></trkpt><trkpt lat="44.7522819" lon="7.872312"><ele>352.0</ele><time>2026-04-08T13:12:18.965Z</time></trkpt><trkpt lat="44.7523321" lon="7.8722196"><ele>352.0</ele><time>2026-04-08T13:12:21.973Z</time></trkpt><trkpt lat="44.7523134" lon="7.8721314"><ele>352.0</ele><time>2026-04-08T13:12:25.963Z</time></trkpt></trkseg><trkseg><trkpt lat="44.7522445" lon="7.8721156"><ele>352.0</ele><time>2026-04-08T13:23:11.965Z</time></trkpt><trkpt lat="44.7521825" lon="7.8720577"><ele>352.0</ele><time>2026-04-08T13:23:13.968Z</time></trkpt><trkpt lat="44.7521313" lon="7.8719955"><ele>352.0</ele><time>2026-04-08T13:23:15.965Z</time></trkpt><trkpt lat="44.7520311" lon="7.8719718"><ele>352.0</ele><time>2026-04-08T13:23:18.963Z</time></trkpt><trkpt lat="44.7519543" lon="7.8719584"><ele>352.0</ele><time>2026-04-08T13:23:20.963Z</time></trkpt><trkpt lat="44.7518842" lon="7.8719161"><ele>352.0</ele><time>2026-04-08T13:23:22.967Z</time></trkpt><trkpt lat="44.75183" lon="7.8718449"><ele>353.40000000000003</ele><time>2026-04-08T13:23:24.96Z</time></trkpt><trkpt lat="44.7517582" lon="7.871773"><ele>354.8</ele><time>2026-04-08T13:23:26.964Z</time></trkpt><trkpt lat="44.7516757" lon="7.8716969"><ele>356.2</ele><time>2026-04-08T13:23:28.965Z</time></trkpt><trkpt lat="44.7515915" lon="7.8716506"><ele>357.6</ele><time>2026-04-08T13:23:30.963Z</time></trkpt><trkpt lat="44.7515254" lon="7.8716371"><ele>359.0</ele><time>2026-04-08T13:23:32.965Z</time></trkpt><trkpt lat="44.7514164" lon="7.8716272"><ele>359.0</ele><time>2026-04-08T13:23:34.964Z</time></trkpt><trkpt lat="44.7513259" lon="7.8716113"><ele>359.0</ele><time>2026-04-08T13:23:36.963Z</time></trkpt><trkpt lat="44.7512625" lon="7.8716235"><ele>359.0</ele><time>2026-04-08T13:23:37.966Z</time></trkpt><trkpt lat="44.7511596" lon="7.8716411"><ele>359.0</ele><time>2026-04-08T13:23:39.975Z</time></trkpt><trkpt lat="44.7510736" lon="7.8716351"><ele>359.0</ele><time>2026-04-08T13:23:41.967Z</time></trkpt><trkpt lat="44.7509873" lon="7.871676"><ele>359.0</ele><time>2026-04-08T13:23:43.965Z</time></trkpt><trkpt lat="44.7509184" lon="7.8717541"><ele>361.33333333333337</ele><time>2026-04-08T13:23:45.964Z</time></trkpt><trkpt lat="44.7508496" lon="7.8717852"><ele>363.6666666666667</ele><time>2026-04-08T13:23:47.965Z</time></trkpt><trkpt lat="44.7507507" lon="7.8718223"><ele>366.0</ele><time>2026-04-08T13:23:49.966Z</time></trkpt><trkpt lat="44.7506537" lon="7.8718865"><ele>368.3333333333333</ele><time>2026-04-08T13:23:51.962Z</time></trkpt><trkpt lat="44.7505978" lon="7.8719459"><ele>370.66666666666663</ele><time>2026-04-08T13:23:53.965Z</time></trkpt><trkpt lat="44.750535" lon="7.8720223"><ele>373.0</ele><time>2026-04-08T13:23:56.963Z</time></trkpt><trkpt lat="44.7504721" lon="7.8720793"><ele>373.0</ele><time>2026-04-08T13:24:05.966Z</time></trkpt><trkpt lat="44.750371" lon="7.8721464"><ele>373.0</ele><time>2026-04-08T13:24:07.969Z</time></trkpt><trkpt lat="44.7502738" lon="7.8722236"><ele>373.0</ele><time>2026-04-08T13:24:09.967Z</time></trkpt><trkpt lat="44.750182" lon="7.8722662"><ele>373.0</ele><time>2026-04-08T13:24:11.963Z</time></trkpt><trkpt lat="44.7500921" lon="7.8723162"><ele>373.0</ele><time>2026-04-08T13:24:13.964Z</time></trkpt><trkpt lat="44.7500086" lon="7.8723968"><ele>374.2</ele><time>2026-04-08T13:24:15.967Z</time></trkpt><trkpt lat="44.7499179" lon="7.8724525"><ele>375.4</ele><time>2026-04-08T13:24:17.969Z</time></trkpt><trkpt lat="44.7498372" lon="7.8724952"><ele>376.59999999999997</ele><time>2026-04-08T13:24:20.966Z</time></trkpt><trkpt lat="44.7497585" lon="7.8725392"><ele>377.79999999999995</ele><time>2026-04-08T13:24:22.962Z</time></trkpt><trkpt lat="44.7496936" lon="7.8725864"><ele>379.0</ele><time>2026-04-08T13:24:23.96Z</time></trkpt><trkpt lat="44.7495902" lon="7.8726419"><ele>379.0</ele><time>2026-04-08T13:24:25.962Z</time></trkpt><trkpt lat="44.749495" lon="7.8726906"><ele>379.0</ele><time>2026-04-08T13:24:27.962Z</time></trkpt><trkpt lat="44.7494397" lon="7.8727349"><ele>379.0</ele><time>2026-04-08T13:24:28.964Z</time></trkpt><trkpt lat="44.7493588" lon="7.8727743"><ele>379.0</ele><time>2026-04-08T13:24:30.968Z</time></trkpt><trkpt lat="44.7492729" lon="7.8728145"><ele>379.0</ele><time>2026-04-08T13:24:33.961Z</time></trkpt><trkpt lat="44.7492103" lon="7.8727868"><ele>379.0</ele><time>2026-04-08T13:24:37.959Z</time></trkpt><trkpt lat="44.7491404" lon="7.8728442"><ele>381.2</ele><time>2026-04-08T13:24:40.965Z</time></trkpt><trkpt lat="44.7490562" lon="7.8729083"><ele>383.4</ele><time>2026-04-08T13:24:43.968Z</time></trkpt><trkpt lat="44.7489545" lon="7.872921"><ele>385.6</ele><time>2026-04-08T13:24:45.963Z</time></trkpt><trkpt lat="44.7488922" lon="7.8729404"><ele>387.8</ele><time>2026-04-08T13:24:46.967Z</time></trkpt><trkpt lat="44.7487976" lon="7.8729736"><ele>390.0</ele><time>2026-04-08T13:24:48.963Z</time></trkpt><trkpt lat="44.7486992" lon="7.8729757"><ele>390.0</ele><time>2026-04-08T13:24:50.964Z</time></trkpt><trkpt lat="44.7486211" lon="7.8730178"><ele>390.0</ele><time>2026-04-08T13:24:52.965Z</time></trkpt><trkpt lat="44.7485375" lon="7.8730359"><ele>390.0</ele><time>2026-04-08T13:24:54.963Z</time></trkpt><trkpt lat="44.7484312" lon="7.8730536"><ele>390.0</ele><time>2026-04-08T13:24:56.963Z</time></trkpt><trkpt lat="44.748326" lon="7.8730108"><ele>390.0</ele><time>2026-04-08T13:24:58.968Z</time></trkpt><trkpt lat="44.7482197" lon="7.8729527"><ele>391.25</ele><time>2026-04-08T13:25:00.963Z</time></trkpt><trkpt lat="44.748146" lon="7.872905"><ele>392.5</ele><time>2026-04-08T13:25:01.965Z</time></trkpt><trkpt lat="44.7480223" lon="7.8728179"><ele>393.75</ele><time>2026-04-08T13:25:03.963Z</time></trkpt><trkpt lat="44.7479101" lon="7.8727405"><ele>395.0</ele><time>2026-04-08T13:25:05.961Z</time></trkpt><trkpt lat="44.7477835" lon="7.8727103"><ele>395.0</ele><time>2026-04-08T13:25:07.966Z</time></trkpt><trkpt lat="44.7477155" lon="7.8727036"><ele>395.0</ele><time>2026-04-08T13:25:08.963Z</time></trkpt><trkpt lat="44.7476056" lon="7.8726852"><ele>395.0</ele><time>2026-04-08T13:25:10.963Z</time></trkpt><trkpt lat="44.7475391" lon="7.8726826"><ele>395.0</ele><time>2026-04-08T13:25:11.967Z</time></trkpt><trkpt lat="44.7474044" lon="7.8726984"><ele>395.0</ele><time>2026-04-08T13:25:13.964Z</time></trkpt><trkpt lat="44.7473031" lon="7.8727123"><ele>395.0</ele><time>2026-04-08T13:25:15.964Z</time></trkpt><trkpt lat="44.7471997" lon="7.8726765"><ele>395.0</ele><time>2026-04-08T13:25:17.972Z</time></trkpt><trkpt lat="44.7470898" lon="7.8726129"><ele>395.0</ele><time>2026-04-08T13:25:19.968Z</time></trkpt><trkpt lat="44.7469932" lon="7.8725392"><ele>395.0</ele><time>2026-04-08T13:25:21.962Z</time></trkpt><trkpt lat="44.7469335" lon="7.8724954"><ele>395.0</ele><time>2026-04-08T13:25:22.959Z</time></trkpt><trkpt lat="44.7468456" lon="7.8724212"><ele>397.3333333333333</ele><time>2026-04-08T13:25:24.967Z</time></trkpt><trkpt lat="44.7467563" lon="7.8723777"><ele>399.66666666666663</ele><time>2026-04-08T13:25:25.969Z</time></trkpt><trkpt lat="44.7466847" lon="7.8722749"><ele>402.0</ele><time>2026-04-08T13:25:27.965Z</time></trkpt><trkpt lat="44.7466501" lon="7.8721845"><ele>404.33333333333337</ele><time>2026-04-08T13:25:28.963Z</time></trkpt><trkpt lat="44.7466367" lon="7.8720962"><ele>406.6666666666667</ele><time>2026-04-08T13:25:29.961Z</time></trkpt><trkpt lat="44.7466357" lon="7.8719876"><ele>409.0</ele><time>2026-04-08T13:25:30.969Z</time></trkpt><trkpt lat="44.7466225" lon="7.8718807"><ele>409.00000000000006</ele><time>2026-04-08T13:25:31.966Z</time></trkpt><trkpt lat="44.7465821" lon="7.8717862"><ele>409.0</ele><time>2026-04-08T13:25:32.967Z</time></trkpt><trkpt lat="44.7465935" lon="7.8716959"><ele>409.0</ele><time>2026-04-08T13:25:33.964Z</time></trkpt><trkpt lat="44.7465151" lon="7.8715456"><ele>409.0</ele><time>2026-04-08T13:25:35.963Z</time></trkpt><trkpt lat="44.7464675" lon="7.8714554"><ele>409.00000000000006</ele><time>2026-04-08T13:25:36.97Z</time></trkpt><trkpt lat="44.7464078" lon="7.8713825"><ele>409.0</ele><time>2026-04-08T13:25:37.964Z</time></trkpt><trkpt lat="44.7463717" lon="7.8713067"><ele>408.6666666666667</ele><time>2026-04-08T13:25:38.964Z</time></trkpt><trkpt lat="44.746338" lon="7.8712316"><ele>408.33333333333337</ele><time>2026-04-08T13:25:39.964Z</time></trkpt><trkpt lat="44.7462562" lon="7.8710864"><ele>408.0</ele><time>2026-04-08T13:25:41.972Z</time></trkpt><trkpt lat="44.7462209" lon="7.8709973"><ele>407.66666666666663</ele><time>2026-04-08T13:25:42.965Z</time></trkpt><trkpt lat="44.7461714" lon="7.8708787"><ele>407.3333333333333</ele><time>2026-04-08T13:25:44.965Z</time></trkpt><trkpt lat="44.7461486" lon="7.8707934"><ele>407.0</ele><time>2026-04-08T13:25:46.968Z</time></trkpt><trkpt lat="44.7461343" lon="7.8706429"><ele>407.0</ele><time>2026-04-08T13:25:49.965Z</time></trkpt><trkpt lat="44.7461482" lon="7.8705003"><ele>407.0</ele><time>2026-04-08T13:25:51.964Z</time></trkpt><trkpt lat="44.7461818" lon="7.8703667"><ele>407.0</ele><time>2026-04-08T13:25:53.964Z</time></trkpt><trkpt lat="44.7462111" lon="7.8702134"><ele>407.0</ele><time>2026-04-08T13:25:55.966Z</time></trkpt><trkpt lat="44.7462418" lon="7.8700535"><ele>407.0</ele><time>2026-04-08T13:25:57.962Z</time></trkpt><trkpt lat="44.7462837" lon="7.8699128"><ele>406.99999999999994</ele><time>2026-04-08T13:25:59.967Z</time></trkpt><trkpt lat="44.7463106" lon="7.8698292"><ele>407.0</ele><time>2026-04-08T13:26:00.961Z</time></trkpt><trkpt lat="44.7463386" lon="7.8697464"><ele>407.0</ele><time>2026-04-08T13:26:01.966Z</time></trkpt><trkpt lat="44.7463819" lon="7.8696632"><ele>407.0</ele><time>2026-04-08T13:26:02.971Z</time></trkpt><trkpt lat="44.7464558" lon="7.8695615"><ele>406.99999999999994</ele><time>2026-04-08T13:26:04.963Z</time></trkpt><trkpt lat="44.7465436" lon="7.8694544"><ele>407.0</ele><time>2026-04-08T13:26:06.961Z</time></trkpt><trkpt lat="44.7466022" lon="7.8693927"><ele>406.99999999999994</ele><time>2026-04-08T13:26:07.968Z</time></trkpt><trkpt lat="44.746663" lon="7.8693384"><ele>407.0</ele><time>2026-04-08T13:26:08.963Z</time></trkpt><trkpt lat="44.7467393" lon="7.8692842"><ele>407.0</ele><time>2026-04-08T13:26:09.963Z</time></trkpt><trkpt lat="44.7468288" lon="7.8691432"><ele>407.0</ele><time>2026-04-08T13:26:11.961Z</time></trkpt><trkpt lat="44.7468903" lon="7.8690808"><ele>406.99999999999994</ele><time>2026-04-08T13:26:12.963Z</time></trkpt><trkpt lat="44.7469556" lon="7.8690388"><ele>407.0</ele><time>2026-04-08T13:26:13.963Z</time></trkpt><trkpt lat="44.7470331" lon="7.8690156"><ele>406.99999999999994</ele><time>2026-04-08T13:26:14.962Z</time></trkpt><trkpt lat="44.7470985" lon="7.8689836"><ele>407.0</ele><time>2026-04-08T13:26:15.961Z</time></trkpt><trkpt lat="44.7471878" lon="7.8689134"><ele>407.0</ele><time>2026-04-08T13:26:16.962Z</time></trkpt><trkpt lat="44.74728" lon="7.8688519"><ele>407.0</ele><time>2026-04-08T13:26:17.968Z</time></trkpt><trkpt lat="44.7473433" lon="7.8687968"><ele>406.99999999999994</ele><time>2026-04-08T13:26:18.965Z</time></trkpt><trkpt lat="44.7474036" lon="7.8687291"><ele>407.0</ele><time>2026-04-08T13:26:19.964Z</time></trkpt><trkpt lat="44.7474566" lon="7.8686637"><ele>407.0</ele><time>2026-04-08T13:26:20.962Z</time></trkpt><trkpt lat="44.7475273" lon="7.8685628"><ele>407.0</ele><time>2026-04-08T13:26:22.967Z</time></trkpt><trkpt lat="44.7476092" lon="7.868499"><ele>407.0</ele><time>2026-04-08T13:26:24.963Z</time></trkpt><trkpt lat="44.7476906" lon="7.8684209"><ele>407.0</ele><time>2026-04-08T13:26:26.963Z</time></trkpt><trkpt lat="44.7477649" lon="7.8683092"><ele>407.0</ele><time>2026-04-08T13:26:28.972Z</time></trkpt><trkpt lat="44.7478129" lon="7.8682037"><ele>406.6</ele><time>2026-04-08T13:26:30.965Z</time></trkpt><trkpt lat="44.7478715" lon="7.8681038"><ele>406.20000000000005</ele><time>2026-04-08T13:26:32.963Z</time></trkpt><trkpt lat="44.7479148" lon="7.8679588"><ele>405.8</ele><time>2026-04-08T13:26:34.965Z</time></trkpt><trkpt lat="44.7479549" lon="7.8678189"><ele>405.4</ele><time>2026-04-08T13:26:36.965Z</time></trkpt><trkpt lat="44.747966" lon="7.8676558"><ele>405.0</ele><time>2026-04-08T13:26:38.959Z</time></trkpt><trkpt lat="44.7479404" lon="7.8674805"><ele>405.0</ele><time>2026-04-08T13:26:40.968Z</time></trkpt><trkpt lat="44.747928" lon="7.8673877"><ele>405.0</ele><time>2026-04-08T13:26:41.959Z</time></trkpt><trkpt lat="44.7479353" lon="7.8672826"><ele>405.0</ele><time>2026-04-08T13:26:42.963Z</time></trkpt><trkpt lat="44.7479151" lon="7.8671836"><ele>405.0</ele><time>2026-04-08T13:26:43.97Z</time></trkpt><trkpt lat="44.7478914" lon="7.8670859"><ele>405.0</ele><time>2026-04-08T13:26:44.96Z</time></trkpt><trkpt lat="44.7478866" lon="7.8669094"><ele>405.0</ele><time>2026-04-08T13:26:46.967Z</time></trkpt><trkpt lat="44.7478883" lon="7.8667447"><ele>404.1666666666667</ele><time>2026-04-08T13:26:48.963Z</time></trkpt><trkpt lat="44.7479306" lon="7.8666105"><ele>403.33333333333337</ele><time>2026-04-08T13:26:50.97Z</time></trkpt><trkpt lat="44.7479509" lon="7.866521"><ele>402.5</ele><time>2026-04-08T13:26:51.969Z</time></trkpt><trkpt lat="44.7480024" lon="7.8663648"><ele>401.6666666666667</ele><time>2026-04-08T13:26:53.963Z</time></trkpt><trkpt lat="44.748019" lon="7.8662706"><ele>400.83333333333337</ele><time>2026-04-08T13:26:54.968Z</time></trkpt><trkpt lat="44.7480498" lon="7.8661883"><ele>400.0</ele><time>2026-04-08T13:26:55.96Z</time></trkpt><trkpt lat="44.7481062" lon="7.8660357"><ele>399.83333333333337</ele><time>2026-04-08T13:26:57.961Z</time></trkpt><trkpt lat="44.7481464" lon="7.8658912"><ele>399.6666666666667</ele><time>2026-04-08T13:26:59.965Z</time></trkpt><trkpt lat="44.7481744" lon="7.865809"><ele>399.5</ele><time>2026-04-08T13:27:00.964Z</time></trkpt><trkpt lat="44.7482158" lon="7.8656745"><ele>399.33333333333337</ele><time>2026-04-08T13:27:02.965Z</time></trkpt><trkpt lat="44.7482538" lon="7.865575"><ele>399.1666666666667</ele><time>2026-04-08T13:27:04.961Z</time></trkpt><trkpt lat="44.7482744" lon="7.8654558"><ele>399.0</ele><time>2026-04-08T13:27:06.964Z</time></trkpt><trkpt lat="44.7482589" lon="7.8653191"><ele>399.0</ele><time>2026-04-08T13:27:08.962Z</time></trkpt><trkpt lat="44.7482545" lon="7.8651828"><ele>399.0</ele><time>2026-04-08T13:27:10.966Z</time></trkpt><trkpt lat="44.7482302" lon="7.865099"><ele>399.0</ele><time>2026-04-08T13:27:11.961Z</time></trkpt><trkpt lat="44.748203" lon="7.8649627"><ele>399.0</ele><time>2026-04-08T13:27:13.964Z</time></trkpt><trkpt lat="44.7481788" lon="7.8648534"><ele>399.0</ele><time>2026-04-08T13:27:15.964Z</time></trkpt><trkpt lat="44.7480969" lon="7.8648373"><ele>399.0</ele><time>2026-04-08T13:27:16.968Z</time></trkpt><trkpt lat="44.748035" lon="7.864815"><ele>399.2</ele><time>2026-04-08T13:27:17.966Z</time></trkpt><trkpt lat="44.7479254" lon="7.8647443"><ele>399.4</ele><time>2026-04-08T13:27:19.967Z</time></trkpt><trkpt lat="44.7478497" lon="7.8647354"><ele>399.6</ele><time>2026-04-08T13:27:21.964Z</time></trkpt><trkpt lat="44.7477358" lon="7.8646915"><ele>399.8</ele><time>2026-04-08T13:27:23.967Z</time></trkpt><trkpt lat="44.7476099" lon="7.8646743"><ele>400.0</ele><time>2026-04-08T13:27:25.963Z</time></trkpt><trkpt lat="44.7474969" lon="7.8646589"><ele>399.4</ele><time>2026-04-08T13:27:27.961Z</time></trkpt><trkpt lat="44.7474044" lon="7.8646074"><ele>398.8</ele><time>2026-04-08T13:27:29.965Z</time></trkpt><trkpt lat="44.7473104" lon="7.8645618"><ele>398.20000000000005</ele><time>2026-04-08T13:27:31.965Z</time></trkpt><trkpt lat="44.7472306" lon="7.8644779"><ele>397.6</ele><time>2026-04-08T13:27:33.962Z</time></trkpt><trkpt lat="44.7471847" lon="7.8643461"><ele>397.0</ele><time>2026-04-08T13:27:35.959Z</time></trkpt><trkpt lat="44.7471232" lon="7.8642027"><ele>395.40000000000003</ele><time>2026-04-08T13:27:37.965Z</time></trkpt><trkpt lat="44.7470699" lon="7.8640714"><ele>393.8</ele><time>2026-04-08T13:27:39.966Z</time></trkpt><trkpt lat="44.7470129" lon="7.8639284"><ele>392.2</ele><time>2026-04-08T13:27:41.965Z</time></trkpt><trkpt lat="44.7469919" lon="7.863814"><ele>390.6</ele><time>2026-04-08T13:27:42.961Z</time></trkpt><trkpt lat="44.7469579" lon="7.8636512"><ele>389.0</ele><time>2026-04-08T13:27:44.964Z</time></trkpt><trkpt lat="44.7469396" lon="7.8634978"><ele>386.25</ele><time>2026-04-08T13:27:46.964Z</time></trkpt><trkpt lat="44.7469678" lon="7.8633428"><ele>383.5</ele><time>2026-04-08T13:27:48.965Z</time></trkpt><trkpt lat="44.7470243" lon="7.8632024"><ele>380.75</ele><time>2026-04-08T13:27:50.96Z</time></trkpt><trkpt lat="44.7470774" lon="7.8630607"><ele>378.0</ele><time>2026-04-08T13:27:52.962Z</time></trkpt><trkpt lat="44.7471179" lon="7.862915"><ele>378.0</ele><time>2026-04-08T13:27:54.958Z</time></trkpt><trkpt lat="44.7471325" lon="7.8628265"><ele>378.0</ele><time>2026-04-08T13:27:55.963Z</time></trkpt><trkpt lat="44.747182" lon="7.8626679"><ele>378.0</ele><time>2026-04-08T13:27:57.966Z</time></trkpt><trkpt lat="44.7471921" lon="7.8625305"><ele>378.0</ele><time>2026-04-08T13:27:58.965Z</time></trkpt><trkpt lat="44.7471929" lon="7.8624395"><ele>378.0</ele><time>2026-04-08T13:27:59.966Z</time></trkpt><trkpt lat="44.7472403" lon="7.8623015"><ele>377.4</ele><time>2026-04-08T13:28:01.969Z</time></trkpt><trkpt lat="44.7472849" lon="7.8621762"><ele>376.79999999999995</ele><time>2026-04-08T13:28:03.966Z</time></trkpt><trkpt lat="44.7472896" lon="7.8620624"><ele>376.2</ele><time>2026-04-08T13:28:05.961Z</time></trkpt><trkpt lat="44.7472594" lon="7.8619304"><ele>375.6</ele><time>2026-04-08T13:28:07.958Z</time></trkpt><trkpt lat="44.7472414" lon="7.8617728"><ele>375.0</ele><time>2026-04-08T13:28:09.962Z</time></trkpt><trkpt lat="44.7472612" lon="7.8616506"><ele>375.0</ele><time>2026-04-08T13:28:11.963Z</time></trkpt><trkpt lat="44.747317" lon="7.8615222"><ele>375.0</ele><time>2026-04-08T13:28:13.963Z</time></trkpt><trkpt lat="44.7473561" lon="7.8613446"><ele>375.0</ele><time>2026-04-08T13:28:15.963Z</time></trkpt><trkpt lat="44.7473858" lon="7.8611898"><ele>375.0</ele><time>2026-04-08T13:28:17.962Z</time></trkpt><trkpt lat="44.7474173" lon="7.8610358"><ele>374.5</ele><time>2026-04-08T13:28:19.962Z</time></trkpt><trkpt lat="44.7474292" lon="7.8608741"><ele>374.0</ele><time>2026-04-08T13:28:21.963Z</time></trkpt><trkpt lat="44.7474083" lon="7.8607559"><ele>373.5</ele><time>2026-04-08T13:28:23.965Z</time></trkpt><trkpt lat="44.7473571" lon="7.8606784"><ele>373.0</ele><time>2026-04-08T13:28:25.965Z</time></trkpt><trkpt lat="44.7472694" lon="7.8606405"><ele>372.5</ele><time>2026-04-08T13:28:27.966Z</time></trkpt><trkpt lat="44.7472053" lon="7.8606789"><ele>372.0</ele><time>2026-04-08T13:28:29.963Z</time></trkpt><trkpt lat="44.7471664" lon="7.8607599"><ele>372.0</ele><time>2026-04-08T13:28:31.966Z</time></trkpt><trkpt lat="44.747116" lon="7.8608739"><ele>372.0</ele><time>2026-04-08T13:28:33.962Z</time></trkpt><trkpt lat="44.7470315" lon="7.8609241"><ele>372.0</ele><time>2026-04-08T13:28:35.964Z</time></trkpt><trkpt lat="44.7469628" lon="7.8609095"><ele>372.0</ele><time>2026-04-08T13:28:36.962Z</time></trkpt><trkpt lat="44.7468709" lon="7.8608718"><ele>372.0</ele><time>2026-04-08T13:28:38.961Z</time></trkpt><trkpt lat="44.7467872" lon="7.8608812"><ele>372.0</ele><time>2026-04-08T13:28:40.963Z</time></trkpt><trkpt lat="44.7466989" lon="7.8608921"><ele>370.0</ele><time>2026-04-08T13:28:42.966Z</time></trkpt><trkpt lat="44.7466017" lon="7.8609058"><ele>368.0</ele><time>2026-04-08T13:28:44.961Z</time></trkpt><trkpt lat="44.7464811" lon="7.8609189"><ele>366.0</ele><time>2026-04-08T13:28:46.961Z</time></trkpt><trkpt lat="44.7463552" lon="7.8608903"><ele>364.0</ele><time>2026-04-08T13:28:48.965Z</time></trkpt><trkpt lat="44.7462364" lon="7.8608707"><ele>364.0</ele><time>2026-04-08T13:28:50.965Z</time></trkpt><trkpt lat="44.7461631" lon="7.860893"><ele>364.0</ele><time>2026-04-08T13:28:51.961Z</time></trkpt><trkpt lat="44.7460931" lon="7.8609522"><ele>364.0</ele><time>2026-04-08T13:28:53.968Z</time></trkpt><trkpt lat="44.7460065" lon="7.8610397"><ele>364.0</ele><time>2026-04-08T13:28:55.969Z</time></trkpt><trkpt lat="44.7459238" lon="7.8611782"><ele>364.0</ele><time>2026-04-08T13:28:57.96Z</time></trkpt><trkpt lat="44.7458569" lon="7.8613072"><ele>364.16666666666663</ele><time>2026-04-08T13:28:59.964Z</time></trkpt><trkpt lat="44.7458277" lon="7.8614391"><ele>364.3333333333333</ele><time>2026-04-08T13:29:01.964Z</time></trkpt><trkpt lat="44.7457963" lon="7.8615425"><ele>364.5</ele><time>2026-04-08T13:29:03.963Z</time></trkpt><trkpt lat="44.7457706" lon="7.8616404"><ele>364.6666666666667</ele><time>2026-04-08T13:29:04.968Z</time></trkpt><trkpt lat="44.7457399" lon="7.8617268"><ele>364.83333333333337</ele><time>2026-04-08T13:29:05.959Z</time></trkpt><trkpt lat="44.7457051" lon="7.8618133"><ele>365.0</ele><time>2026-04-08T13:29:06.967Z</time></trkpt><trkpt lat="44.7456582" lon="7.8618957"><ele>365.0</ele><time>2026-04-08T13:29:07.965Z</time></trkpt><trkpt lat="44.745624" lon="7.8619897"><ele>365.0</ele><time>2026-04-08T13:29:08.96Z</time></trkpt><trkpt lat="44.7455913" lon="7.8620912"><ele>365.0</ele><time>2026-04-08T13:29:09.965Z</time></trkpt><trkpt lat="44.7455702" lon="7.8621946"><ele>365.0</ele><time>2026-04-08T13:29:10.964Z</time></trkpt><trkpt lat="44.7455389" lon="7.8622745"><ele>365.0</ele><time>2026-04-08T13:29:11.96Z</time></trkpt><trkpt lat="44.7454818" lon="7.8624398"><ele>365.0</ele><time>2026-04-08T13:29:13.959Z</time></trkpt><trkpt lat="44.7454545" lon="7.8625282"><ele>365.0</ele><time>2026-04-08T13:29:14.961Z</time></trkpt><trkpt lat="44.7454279" lon="7.8626144"><ele>365.0</ele><time>2026-04-08T13:29:15.963Z</time></trkpt><trkpt lat="44.7454071" lon="7.8626991"><ele>365.0</ele><time>2026-04-08T13:29:16.96Z</time></trkpt><trkpt lat="44.7453747" lon="7.8627847"><ele>365.0</ele><time>2026-04-08T13:29:17.968Z</time></trkpt><trkpt lat="44.7453115" lon="7.8628315"><ele>365.0</ele><time>2026-04-08T13:29:19.963Z</time></trkpt><trkpt lat="44.7451831" lon="7.8628969"><ele>365.0</ele><time>2026-04-08T13:29:21.958Z</time></trkpt><trkpt lat="44.7451263" lon="7.8629466"><ele>363.4</ele><time>2026-04-08T13:29:22.965Z</time></trkpt><trkpt lat="44.7450109" lon="7.8629833"><ele>361.8</ele><time>2026-04-08T13:29:24.964Z</time></trkpt><trkpt lat="44.7449135" lon="7.8628834"><ele>360.20000000000005</ele><time>2026-04-08T13:29:26.965Z</time></trkpt><trkpt lat="44.7448341" lon="7.8628345"><ele>358.6</ele><time>2026-04-08T13:29:28.961Z</time></trkpt><trkpt lat="44.7447772" lon="7.8627782"><ele>357.0</ele><time>2026-04-08T13:29:31.963Z</time></trkpt><trkpt lat="44.7447127" lon="7.8627537"><ele>357.0</ele><time>2026-04-08T13:29:33.959Z</time></trkpt><trkpt lat="44.7446571" lon="7.8627102"><ele>357.0</ele><time>2026-04-08T13:29:36.963Z</time></trkpt><trkpt lat="44.7446027" lon="7.8626615"><ele>357.0</ele><time>2026-04-08T13:29:38.961Z</time></trkpt><trkpt lat="44.7445394" lon="7.862635"><ele>357.0</ele><time>2026-04-08T13:29:40.96Z</time></trkpt><trkpt lat="44.7444521" lon="7.8625656"><ele>357.0</ele><time>2026-04-08T13:29:43.958Z</time></trkpt><trkpt lat="44.7443724" lon="7.8625652"><ele>357.0</ele><time>2026-04-08T13:29:45.959Z</time></trkpt><trkpt lat="44.7442914" lon="7.8625789"><ele>356.6</ele><time>2026-04-08T13:29:47.961Z</time></trkpt><trkpt lat="44.7442118" lon="7.8625999"><ele>356.20000000000005</ele><time>2026-04-08T13:29:49.96Z</time></trkpt><trkpt lat="44.7441301" lon="7.8626225"><ele>355.8</ele><time>2026-04-08T13:29:51.958Z</time></trkpt><trkpt lat="44.7440257" lon="7.8626238"><ele>355.4</ele><time>2026-04-08T13:29:53.962Z</time></trkpt><trkpt lat="44.7439127" lon="7.8626511"><ele>355.0</ele><time>2026-04-08T13:29:55.962Z</time></trkpt><trkpt lat="44.7438412" lon="7.8626519"><ele>355.0</ele><time>2026-04-08T13:29:56.967Z</time></trkpt><trkpt lat="44.7437339" lon="7.862639"><ele>355.0</ele><time>2026-04-08T13:29:58.965Z</time></trkpt><trkpt lat="44.7436618" lon="7.8625818"><ele>355.0</ele><time>2026-04-08T13:30:00.96Z</time></trkpt><trkpt lat="44.7436887" lon="7.8624933"><ele>355.0</ele><time>2026-04-08T13:30:04.962Z</time></trkpt><trkpt lat="44.7438069" lon="7.8624815"><ele>355.0</ele><time>2026-04-08T13:30:06.959Z</time></trkpt><trkpt lat="44.7438837" lon="7.8624352"><ele>354.8333333333333</ele><time>2026-04-08T13:30:08.96Z</time></trkpt><trkpt lat="44.7439281" lon="7.8623072"><ele>354.66666666666663</ele><time>2026-04-08T13:30:10.965Z</time></trkpt><trkpt lat="44.7439124" lon="7.8621972"><ele>354.5</ele><time>2026-04-08T13:30:12.96Z</time></trkpt><trkpt lat="44.7439314" lon="7.8620847"><ele>354.3333333333333</ele><time>2026-04-08T13:30:13.966Z</time></trkpt><trkpt lat="44.7439328" lon="7.8619763"><ele>354.1666666666667</ele><time>2026-04-08T13:30:14.96Z</time></trkpt><trkpt lat="44.743959" lon="7.8618782"><ele>354.0</ele><time>2026-04-08T13:30:15.961Z</time></trkpt><trkpt lat="44.7439755" lon="7.8617888"><ele>354.3333333333333</ele><time>2026-04-08T13:30:16.963Z</time></trkpt><trkpt lat="44.7439845" lon="7.8616846"><ele>354.6666666666667</ele><time>2026-04-08T13:30:17.959Z</time></trkpt><trkpt lat="44.7439856" lon="7.8615788"><ele>355.0</ele><time>2026-04-08T13:30:18.961Z</time></trkpt><trkpt lat="44.7439425" lon="7.861403"><ele>355.33333333333337</ele><time>2026-04-08T13:30:20.958Z</time></trkpt><trkpt lat="44.7439198" lon="7.8613162"><ele>355.6666666666667</ele><time>2026-04-08T13:30:21.962Z</time></trkpt><trkpt lat="44.7438815" lon="7.8612355"><ele>356.0</ele><time>2026-04-08T13:30:22.956Z</time></trkpt><trkpt lat="44.7438515" lon="7.8611462"><ele>356.0</ele><time>2026-04-08T13:30:23.961Z</time></trkpt><trkpt lat="44.7438096" lon="7.8610497"><ele>356.0</ele><time>2026-04-08T13:30:24.959Z</time></trkpt><trkpt lat="44.7437649" lon="7.8609325"><ele>356.0</ele><time>2026-04-08T13:30:25.962Z</time></trkpt><trkpt lat="44.7437325" lon="7.8608364"><ele>356.0</ele><time>2026-04-08T13:30:26.959Z</time></trkpt><trkpt lat="44.7436777" lon="7.8607499"><ele>356.0</ele><time>2026-04-08T13:30:27.964Z</time></trkpt><trkpt lat="44.7436097" lon="7.8606536"><ele>356.0</ele><time>2026-04-08T13:30:28.962Z</time></trkpt><trkpt lat="44.7435653" lon="7.8605671"><ele>357.20000000000005</ele><time>2026-04-08T13:30:29.963Z</time></trkpt><trkpt lat="44.7435063" lon="7.8604818"><ele>358.40000000000003</ele><time>2026-04-08T13:30:30.963Z</time></trkpt><trkpt lat="44.7434466" lon="7.8603959"><ele>359.6</ele><time>2026-04-08T13:30:31.966Z</time></trkpt><trkpt lat="44.7433758" lon="7.8602946"><ele>360.8</ele><time>2026-04-08T13:30:32.959Z</time></trkpt><trkpt lat="44.7432894" lon="7.8602025"><ele>362.0</ele><time>2026-04-08T13:30:33.961Z</time></trkpt><trkpt lat="44.7432178" lon="7.8601081"><ele>362.1666666666667</ele><time>2026-04-08T13:30:34.959Z</time></trkpt><trkpt lat="44.7431438" lon="7.8600248"><ele>362.33333333333337</ele><time>2026-04-08T13:30:35.964Z</time></trkpt><trkpt lat="44.7430702" lon="7.8599647"><ele>362.5</ele><time>2026-04-08T13:30:36.965Z</time></trkpt><trkpt lat="44.7429979" lon="7.8599305"><ele>362.6666666666667</ele><time>2026-04-08T13:30:37.963Z</time></trkpt><trkpt lat="44.7429252" lon="7.8599159"><ele>362.8333333333333</ele><time>2026-04-08T13:30:38.957Z</time></trkpt><trkpt lat="44.7428493" lon="7.8599169"><ele>363.0</ele><time>2026-04-08T13:30:39.961Z</time></trkpt><trkpt lat="44.7427792" lon="7.8599329"><ele>363.0</ele><time>2026-04-08T13:30:40.96Z</time></trkpt><trkpt lat="44.7427181" lon="7.8599575"><ele>363.0</ele><time>2026-04-08T13:30:41.963Z</time></trkpt><trkpt lat="44.7426566" lon="7.8599786"><ele>363.0</ele><time>2026-04-08T13:30:42.966Z</time></trkpt><trkpt lat="44.7425478" lon="7.8600413"><ele>363.0</ele><time>2026-04-08T13:30:44.965Z</time></trkpt><trkpt lat="44.7424755" lon="7.8600699"><ele>363.0</ele><time>2026-04-08T13:30:45.965Z</time></trkpt><trkpt lat="44.7424128" lon="7.8600854"><ele>363.0</ele><time>2026-04-08T13:30:46.959Z</time></trkpt><trkpt lat="44.7423083" lon="7.8601077"><ele>363.5</ele><time>2026-04-08T13:30:48.966Z</time></trkpt><trkpt lat="44.742238" lon="7.8601255"><ele>364.0</ele><time>2026-04-08T13:30:50.963Z</time></trkpt><trkpt lat="44.7421792" lon="7.8601852"><ele>364.5</ele><time>2026-04-08T13:30:52.968Z</time></trkpt><trkpt lat="44.7421057" lon="7.8602587"><ele>365.0</ele><time>2026-04-08T13:30:54.959Z</time></trkpt><trkpt lat="44.7420194" lon="7.8603488"><ele>365.5</ele><time>2026-04-08T13:30:56.96Z</time></trkpt><trkpt lat="44.7419649" lon="7.8604047"><ele>366.0</ele><time>2026-04-08T13:30:57.96Z</time></trkpt><trkpt lat="44.7418638" lon="7.8604626"><ele>367.1666666666667</ele><time>2026-04-08T13:30:59.96Z</time></trkpt><trkpt lat="44.7417463" lon="7.8604741"><ele>368.3333333333333</ele><time>2026-04-08T13:31:01.968Z</time></trkpt><trkpt lat="44.7416738" lon="7.8605008"><ele>369.5</ele><time>2026-04-08T13:31:02.964Z</time></trkpt><trkpt lat="44.7416008" lon="7.8605321"><ele>370.66666666666663</ele><time>2026-04-08T13:31:03.962Z</time></trkpt><trkpt lat="44.7415162" lon="7.8605796"><ele>371.8333333333333</ele><time>2026-04-08T13:31:04.962Z</time></trkpt><trkpt lat="44.7414454" lon="7.8605863"><ele>373.0</ele><time>2026-04-08T13:31:05.964Z</time></trkpt><trkpt lat="44.7413179" lon="7.8605658"><ele>373.0</ele><time>2026-04-08T13:31:07.96Z</time></trkpt><trkpt lat="44.741225" lon="7.8605617"><ele>373.0</ele><time>2026-04-08T13:31:08.964Z</time></trkpt><trkpt lat="44.7411374" lon="7.8605735"><ele>373.0</ele><time>2026-04-08T13:31:09.96Z</time></trkpt><trkpt lat="44.7410709" lon="7.8605883"><ele>373.0</ele><time>2026-04-08T13:31:10.963Z</time></trkpt><trkpt lat="44.7409878" lon="7.8605954"><ele>373.0</ele><time>2026-04-08T13:31:12.96Z</time></trkpt><trkpt lat="44.7408891" lon="7.8605805"><ele>373.0</ele><time>2026-04-08T13:31:14.966Z</time></trkpt><trkpt lat="44.7407595" lon="7.8605907"><ele>374.3333333333333</ele><time>2026-04-08T13:31:16.963Z</time></trkpt><trkpt lat="44.7406902" lon="7.8605809"><ele>375.66666666666663</ele><time>2026-04-08T13:31:17.96Z</time></trkpt><trkpt lat="44.7406127" lon="7.860568"><ele>377.0</ele><time>2026-04-08T13:31:18.962Z</time></trkpt><trkpt lat="44.7405425" lon="7.8605683"><ele>378.3333333333333</ele><time>2026-04-08T13:31:19.962Z</time></trkpt><trkpt lat="44.7404593" lon="7.8605602"><ele>379.6666666666667</ele><time>2026-04-08T13:31:20.969Z</time></trkpt><trkpt lat="44.7403354" lon="7.8605302"><ele>381.0</ele><time>2026-04-08T13:31:22.965Z</time></trkpt><trkpt lat="44.7402063" lon="7.8605079"><ele>382.0</ele><time>2026-04-08T13:31:24.966Z</time></trkpt><trkpt lat="44.7401334" lon="7.8604774"><ele>383.0</ele><time>2026-04-08T13:31:25.96Z</time></trkpt><trkpt lat="44.7400533" lon="7.8604507"><ele>384.0</ele><time>2026-04-08T13:31:26.961Z</time></trkpt><trkpt lat="44.7399769" lon="7.860426"><ele>385.0</ele><time>2026-04-08T13:31:27.961Z</time></trkpt><trkpt lat="44.7399121" lon="7.8603957"><ele>386.0</ele><time>2026-04-08T13:31:28.957Z</time></trkpt><trkpt lat="44.7398457" lon="7.8603697"><ele>387.0</ele><time>2026-04-08T13:31:29.961Z</time></trkpt><trkpt lat="44.739757" lon="7.8603646"><ele>387.0</ele><time>2026-04-08T13:31:31.961Z</time></trkpt><trkpt lat="44.7396852" lon="7.8603616"><ele>387.0</ele><time>2026-04-08T13:31:33.12Z</time></trkpt><trkpt lat="44.7395656" lon="7.860381"><ele>387.0</ele><time>2026-04-08T13:31:34.93Z</time></trkpt><trkpt lat="44.7394843" lon="7.8604292"><ele>387.0</ele><time>2026-04-08T13:31:35.931Z</time></trkpt><trkpt lat="44.7393985" lon="7.8604654"><ele>387.0</ele><time>2026-04-08T13:31:36.929Z</time></trkpt><trkpt lat="44.7392999" lon="7.8605043"><ele>387.5</ele><time>2026-04-08T13:31:37.932Z</time></trkpt><trkpt lat="44.7392021" lon="7.8605471"><ele>388.0</ele><time>2026-04-08T13:31:38.931Z</time></trkpt><trkpt lat="44.7391144" lon="7.8605845"><ele>388.5</ele><time>2026-04-08T13:31:39.935Z</time></trkpt><trkpt lat="44.7390275" lon="7.860601"><ele>389.0</ele><time>2026-04-08T13:31:40.935Z</time></trkpt><trkpt lat="44.7389514" lon="7.8606219"><ele>389.5</ele><time>2026-04-08T13:31:41.935Z</time></trkpt><trkpt lat="44.7388839" lon="7.8606302"><ele>390.0</ele><time>2026-04-08T13:31:42.935Z</time></trkpt><trkpt lat="44.7388141" lon="7.8606351"><ele>390.0</ele><time>2026-04-08T13:31:43.935Z</time></trkpt><trkpt lat="44.7387369" lon="7.8606452"><ele>390.0</ele><time>2026-04-08T13:31:44.935Z</time></trkpt><trkpt lat="44.7386651" lon="7.8606631"><ele>390.0</ele><time>2026-04-08T13:31:45.935Z</time></trkpt><trkpt lat="44.7385981" lon="7.8606757"><ele>390.0</ele><time>2026-04-08T13:31:46.935Z</time></trkpt><trkpt lat="44.7385308" lon="7.8606609"><ele>390.0</ele><time>2026-04-08T13:31:47.935Z</time></trkpt><trkpt lat="44.7384559" lon="7.8606374"><ele>390.0</ele><time>2026-04-08T13:31:48.935Z</time></trkpt><trkpt lat="44.7383896" lon="7.8605985"><ele>390.0</ele><time>2026-04-08T13:31:49.935Z</time></trkpt><trkpt lat="44.7383226" lon="7.8605684"><ele>390.3333333333333</ele><time>2026-04-08T13:31:50.935Z</time></trkpt><trkpt lat="44.7382123" lon="7.860522"><ele>390.66666666666663</ele><time>2026-04-08T13:31:52.935Z</time></trkpt><trkpt lat="44.738139" lon="7.8604878"><ele>391.0</ele><time>2026-04-08T13:31:53.935Z</time></trkpt><trkpt lat="44.7380731" lon="7.8604523"><ele>391.3333333333333</ele><time>2026-04-08T13:31:54.935Z</time></trkpt><trkpt lat="44.7380089" lon="7.860434"><ele>391.66666666666663</ele><time>2026-04-08T13:31:55.935Z</time></trkpt><trkpt lat="44.7379294" lon="7.8604095"><ele>392.0</ele><time>2026-04-08T13:31:56.935Z</time></trkpt><trkpt lat="44.737869" lon="7.8603694"><ele>391.99999999999994</ele><time>2026-04-08T13:31:57.935Z</time></trkpt><trkpt lat="44.7378023" lon="7.8603501"><ele>392.0</ele><time>2026-04-08T13:31:58.935Z</time></trkpt><trkpt lat="44.7377382" lon="7.8603233"><ele>392.0</ele><time>2026-04-08T13:31:59.935Z</time></trkpt><trkpt lat="44.7376389" lon="7.8603185"><ele>392.0</ele><time>2026-04-08T13:32:01.935Z</time></trkpt><trkpt lat="44.7375316" lon="7.8603068"><ele>391.99999999999994</ele><time>2026-04-08T13:32:03.935Z</time></trkpt><trkpt lat="44.7374285" lon="7.8602983"><ele>392.0</ele><time>2026-04-08T13:32:05.935Z</time></trkpt><trkpt lat="44.7373561" lon="7.8602678"><ele>392.6</ele><time>2026-04-08T13:32:06.935Z</time></trkpt><trkpt lat="44.7372516" lon="7.8602222"><ele>393.20000000000005</ele><time>2026-04-08T13:32:08.935Z</time></trkpt><trkpt lat="44.7372011" lon="7.8601652"><ele>393.8</ele><time>2026-04-08T13:32:09.935Z</time></trkpt><trkpt lat="44.7371167" lon="7.8600449"><ele>394.4</ele><time>2026-04-08T13:32:11.935Z</time></trkpt><trkpt lat="44.7370746" lon="7.8599745"><ele>395.0</ele><time>2026-04-08T13:32:12.935Z</time></trkpt><trkpt lat="44.736992" lon="7.8598731"><ele>395.0</ele><time>2026-04-08T13:32:14.935Z</time></trkpt><trkpt lat="44.7369311" lon="7.8598248"><ele>395.0</ele><time>2026-04-08T13:32:15.935Z</time></trkpt><trkpt lat="44.7368825" lon="7.8597673"><ele>395.0</ele><time>2026-04-08T13:32:16.935Z</time></trkpt><trkpt lat="44.7367831" lon="7.859669"><ele>395.0</ele><time>2026-04-08T13:32:18.935Z</time></trkpt><trkpt lat="44.736685" lon="7.8596159"><ele>395.0</ele><time>2026-04-08T13:32:20.935Z</time></trkpt><trkpt lat="44.7366046" lon="7.8595586"><ele>395.8333333333333</ele><time>2026-04-08T13:32:22.935Z</time></trkpt><trkpt lat="44.7365442" lon="7.859508"><ele>396.66666666666663</ele><time>2026-04-08T13:32:24.935Z</time></trkpt><trkpt lat="44.7364559" lon="7.8594485"><ele>397.5</ele><time>2026-04-08T13:32:26.935Z</time></trkpt><trkpt lat="44.7363637" lon="7.8593699"><ele>398.33333333333337</ele><time>2026-04-08T13:32:28.935Z</time></trkpt><trkpt lat="44.7362743" lon="7.8593357"><ele>399.1666666666667</ele><time>2026-04-08T13:32:30.935Z</time></trkpt><trkpt lat="44.7362008" lon="7.8593036"><ele>400.0</ele><time>2026-04-08T13:32:32.935Z</time></trkpt><trkpt lat="44.736128" lon="7.859269"><ele>400.00000000000006</ele><time>2026-04-08T13:32:34.935Z</time></trkpt><trkpt lat="44.7360671" lon="7.8592435"><ele>400.0</ele><time>2026-04-08T13:32:36.935Z</time></trkpt><trkpt lat="44.7360008" lon="7.8592524"><ele>400.0</ele><time>2026-04-08T13:32:39.935Z</time></trkpt><trkpt lat="44.7359486" lon="7.8591534"><ele>400.0</ele><time>2026-04-08T13:33:52.935Z</time></trkpt><trkpt lat="44.7359296" lon="7.8590093"><ele>400.00000000000006</ele><time>2026-04-08T13:33:54.935Z</time></trkpt><trkpt lat="44.735919" lon="7.858858"><ele>400.0</ele><time>2026-04-08T13:33:56.935Z</time></trkpt><trkpt lat="44.7359037" lon="7.8587143"><ele>400.00000000000006</ele><time>2026-04-08T13:33:58.935Z</time></trkpt><trkpt lat="44.7358511" lon="7.8585923"><ele>400.0</ele><time>2026-04-08T13:34:00.935Z</time></trkpt><trkpt lat="44.7357843" lon="7.8584735"><ele>400.0</ele><time>2026-04-08T13:34:02.935Z</time></trkpt><trkpt lat="44.7357334" lon="7.8583788"><ele>400.0</ele><time>2026-04-08T13:34:04.935Z</time></trkpt><trkpt lat="44.7356822" lon="7.8583012"><ele>400.00000000000006</ele><time>2026-04-08T13:34:06.935Z</time></trkpt><trkpt lat="44.7356756" lon="7.8582103"><ele>400.0</ele><time>2026-04-08T13:34:12.935Z</time></trkpt><trkpt lat="44.7356505" lon="7.8580644"><ele>400.0</ele><time>2026-04-08T13:34:14.935Z</time></trkpt><trkpt lat="44.7356155" lon="7.8579063"><ele>400.0</ele><time>2026-04-08T13:34:16.935Z</time></trkpt><trkpt lat="44.7355758" lon="7.8577604"><ele>400.0</ele><time>2026-04-08T13:34:18.935Z</time></trkpt><trkpt lat="44.7355447" lon="7.857622"><ele>400.0</ele><time>2026-04-08T13:34:20.935Z</time></trkpt><trkpt lat="44.735522" lon="7.8574746"><ele>400.0</ele><time>2026-04-08T13:34:22.935Z</time></trkpt><trkpt lat="44.7355084" lon="7.8573787"><ele>400.0</ele><time>2026-04-08T13:34:24.935Z</time></trkpt><trkpt lat="44.7354822" lon="7.857298"><ele>400.0</ele><time>2026-04-08T13:34:34.935Z</time></trkpt><trkpt lat="44.7355161" lon="7.8573823"><ele>400.0</ele><time>2026-04-08T13:34:43.935Z</time></trkpt><trkpt lat="44.7355349" lon="7.8575246"><ele>400.0</ele><time>2026-04-08T13:34:45.935Z</time></trkpt><trkpt lat="44.7355449" lon="7.8576838"><ele>400.0</ele><time>2026-04-08T13:34:47.935Z</time></trkpt><trkpt lat="44.7355914" lon="7.8578287"><ele>400.0</ele><time>2026-04-08T13:34:49.935Z</time></trkpt><trkpt lat="44.7356212" lon="7.8579709"><ele>400.0</ele><time>2026-04-08T13:34:51.935Z</time></trkpt><trkpt lat="44.7356693" lon="7.858119"><ele>400.0</ele><time>2026-04-08T13:34:53.935Z</time></trkpt><trkpt lat="44.7356657" lon="7.8582219"><ele>400.0</ele><time>2026-04-08T13:34:55.935Z</time></trkpt><trkpt lat="44.7355655" lon="7.8582417"><ele>400.0</ele><time>2026-04-08T13:34:58.935Z</time></trkpt><trkpt lat="44.7354557" lon="7.8582441"><ele>400.0</ele><time>2026-04-08T13:35:00.935Z</time></trkpt><trkpt lat="44.7353484" lon="7.8582447"><ele>400.0</ele><time>2026-04-08T13:35:02.935Z</time></trkpt><trkpt lat="44.7352671" lon="7.8582046"><ele>400.0</ele><time>2026-04-08T13:35:04.935Z</time></trkpt><trkpt lat="44.7351885" lon="7.8581166"><ele>400.0</ele><time>2026-04-08T13:35:06.935Z</time></trkpt><trkpt lat="44.7351039" lon="7.8581291"><ele>400.0</ele><time>2026-04-08T13:35:08.935Z</time></trkpt><trkpt lat="44.7350255" lon="7.8581659"><ele>399.2</ele><time>2026-04-08T13:35:10.935Z</time></trkpt><trkpt lat="44.7349708" lon="7.8582273"><ele>398.4</ele><time>2026-04-08T13:35:12.935Z</time></trkpt><trkpt lat="44.7348968" lon="7.8583035"><ele>397.6</ele><time>2026-04-08T13:35:14.935Z</time></trkpt><trkpt lat="44.7348318" lon="7.8583637"><ele>396.8</ele><time>2026-04-08T13:35:16.935Z</time></trkpt><trkpt lat="44.7347273" lon="7.8584454"><ele>396.0</ele><time>2026-04-08T13:35:18.935Z</time></trkpt><trkpt lat="44.7346227" lon="7.858491"><ele>396.0</ele><time>2026-04-08T13:35:20.935Z</time></trkpt><trkpt lat="44.7345445" lon="7.8585187"><ele>396.0</ele><time>2026-04-08T13:35:22.935Z</time></trkpt><trkpt lat="44.7344674" lon="7.8584885"><ele>396.0</ele><time>2026-04-08T13:35:24.935Z</time></trkpt><trkpt lat="44.7344306" lon="7.8584028"><ele>396.0</ele><time>2026-04-08T13:35:26.935Z</time></trkpt><trkpt lat="44.7343955" lon="7.8583252"><ele>396.0</ele><time>2026-04-08T13:35:28.935Z</time></trkpt><trkpt lat="44.7343506" lon="7.8582436"><ele>396.0</ele><time>2026-04-08T13:35:30.935Z</time></trkpt><trkpt lat="44.73429" lon="7.8581755"><ele>396.0</ele><time>2026-04-08T13:35:32.935Z</time></trkpt><trkpt lat="44.7342343" lon="7.8581206"><ele>394.5714285714286</ele><time>2026-04-08T13:35:34.935Z</time></trkpt><trkpt lat="44.734175" lon="7.8580415"><ele>393.1428571428571</ele><time>2026-04-08T13:35:36.935Z</time></trkpt><trkpt lat="44.7341347" lon="7.8579523"><ele>391.7142857142857</ele><time>2026-04-08T13:35:38.935Z</time></trkpt><trkpt lat="44.7341169" lon="7.8578596"><ele>390.28571428571433</ele><time>2026-04-08T13:35:40.935Z</time></trkpt><trkpt lat="44.7340806" lon="7.8577867"><ele>388.8571428571429</ele><time>2026-04-08T13:35:42.935Z</time></trkpt><trkpt lat="44.7340266" lon="7.8577087"><ele>387.42857142857144</ele><time>2026-04-08T13:35:44.935Z</time></trkpt><trkpt lat="44.7339938" lon="7.8576192"><ele>386.0</ele><time>2026-04-08T13:35:46.935Z</time></trkpt><trkpt lat="44.7340067" lon="7.8575263"><ele>384.66666666666663</ele><time>2026-04-08T13:35:48.935Z</time></trkpt><trkpt lat="44.7340617" lon="7.8574535"><ele>383.3333333333333</ele><time>2026-04-08T13:35:50.935Z</time></trkpt><trkpt lat="44.734116" lon="7.8573845"><ele>382.0</ele><time>2026-04-08T13:35:52.935Z</time></trkpt><trkpt lat="44.7341736" lon="7.857272"><ele>380.66666666666663</ele><time>2026-04-08T13:35:54.935Z</time></trkpt><trkpt lat="44.7342568" lon="7.8572243"><ele>379.3333333333333</ele><time>2026-04-08T13:35:56.935Z</time></trkpt><trkpt lat="44.7343503" lon="7.857191"><ele>378.0</ele><time>2026-04-08T13:35:59.935Z</time></trkpt><trkpt lat="44.7343713" lon="7.8570967"><ele>378.0</ele><time>2026-04-08T13:36:01.935Z</time></trkpt><trkpt lat="44.7343561" lon="7.8569774"><ele>378.0</ele><time>2026-04-08T13:36:04.935Z</time></trkpt><trkpt lat="44.7342985" lon="7.8568988"><ele>378.0</ele><time>2026-04-08T13:36:06.935Z</time></trkpt><trkpt lat="44.7342305" lon="7.8568367"><ele>378.0</ele><time>2026-04-08T13:36:08.935Z</time></trkpt><trkpt lat="44.7341459" lon="7.8567762"><ele>378.0</ele><time>2026-04-08T13:36:10.935Z</time></trkpt><trkpt lat="44.7340944" lon="7.8566948"><ele>378.0</ele><time>2026-04-08T13:36:12.935Z</time></trkpt><trkpt lat="44.7340561" lon="7.856614"><ele>375.59999999999997</ele><time>2026-04-08T13:36:14.935Z</time></trkpt><trkpt lat="44.7339814" lon="7.856568"><ele>373.2</ele><time>2026-04-08T13:36:17.935Z</time></trkpt><trkpt lat="44.733906" lon="7.856529"><ele>370.8</ele><time>2026-04-08T13:36:19.935Z</time></trkpt><trkpt lat="44.7338389" lon="7.856454"><ele>368.4</ele><time>2026-04-08T13:36:21.935Z</time></trkpt><trkpt lat="44.7337804" lon="7.8563283"><ele>366.0</ele><time>2026-04-08T13:36:23.935Z</time></trkpt><trkpt lat="44.733687" lon="7.8562241"><ele>366.0</ele><time>2026-04-08T13:36:25.935Z</time></trkpt><trkpt lat="44.7335801" lon="7.8561831"><ele>366.0</ele><time>2026-04-08T13:36:27.935Z</time></trkpt><trkpt lat="44.7334905" lon="7.8561452"><ele>366.0</ele><time>2026-04-08T13:36:29.935Z</time></trkpt><trkpt lat="44.7334165" lon="7.8560371"><ele>366.0</ele><time>2026-04-08T13:36:31.935Z</time></trkpt><trkpt lat="44.7333524" lon="7.8559183"><ele>366.0</ele><time>2026-04-08T13:36:33.935Z</time></trkpt><trkpt lat="44.7333027" lon="7.8558487"><ele>361.8</ele><time>2026-04-08T13:36:34.935Z</time></trkpt><trkpt lat="44.7332645" lon="7.8556761"><ele>357.6</ele><time>2026-04-08T13:36:36.935Z</time></trkpt><trkpt lat="44.7332479" lon="7.8555643"><ele>353.4</ele><time>2026-04-08T13:36:37.935Z</time></trkpt><trkpt lat="44.7332077" lon="7.8554578"><ele>349.2</ele><time>2026-04-08T13:36:38.935Z</time></trkpt><trkpt lat="44.7331574" lon="7.8553629"><ele>345.0</ele><time>2026-04-08T13:36:39.935Z</time></trkpt><trkpt lat="44.7330992" lon="7.8552824"><ele>345.0</ele><time>2026-04-08T13:36:40.935Z</time></trkpt><trkpt lat="44.7330072" lon="7.8551966"><ele>345.0</ele><time>2026-04-08T13:36:42.935Z</time></trkpt><trkpt lat="44.7329353" lon="7.8551333"><ele>345.0</ele><time>2026-04-08T13:36:43.935Z</time></trkpt><trkpt lat="44.732891" lon="7.8550574"><ele>345.0</ele><time>2026-04-08T13:36:44.935Z</time></trkpt><trkpt lat="44.7328357" lon="7.8549637"><ele>345.0</ele><time>2026-04-08T13:36:45.934Z</time></trkpt><trkpt lat="44.7327783" lon="7.8548861"><ele>345.0</ele><time>2026-04-08T13:36:46.935Z</time></trkpt><trkpt lat="44.732725" lon="7.8548029"><ele>341.1666666666667</ele><time>2026-04-08T13:36:47.935Z</time></trkpt><trkpt lat="44.7326694" lon="7.8547112"><ele>337.3333333333333</ele><time>2026-04-08T13:36:48.935Z</time></trkpt><trkpt lat="44.7326113" lon="7.854625"><ele>333.5</ele><time>2026-04-08T13:36:49.935Z</time></trkpt><trkpt lat="44.7325624" lon="7.8545615"><ele>329.66666666666663</ele><time>2026-04-08T13:36:50.935Z</time></trkpt><trkpt lat="44.7325175" lon="7.8544881"><ele>325.8333333333333</ele><time>2026-04-08T13:36:52.935Z</time></trkpt><trkpt lat="44.7325341" lon="7.8543666"><ele>322.0</ele><time>2026-04-08T13:36:55.935Z</time></trkpt><trkpt lat="44.7326279" lon="7.8542715"><ele>322.42857142857144</ele><time>2026-04-08T13:36:57.935Z</time></trkpt><trkpt lat="44.7326878" lon="7.8542085"><ele>322.8571428571429</ele><time>2026-04-08T13:36:58.935Z</time></trkpt><trkpt lat="44.7327468" lon="7.8541361"><ele>323.2857142857143</ele><time>2026-04-08T13:36:59.935Z</time></trkpt><trkpt lat="44.7328088" lon="7.8540733"><ele>323.7142857142857</ele><time>2026-04-08T13:37:00.935Z</time></trkpt><trkpt lat="44.7328684" lon="7.8540058"><ele>324.14285714285717</ele><time>2026-04-08T13:37:01.935Z</time></trkpt><trkpt lat="44.7329237" lon="7.8539506"><ele>324.57142857142856</ele><time>2026-04-08T13:37:02.935Z</time></trkpt><trkpt lat="44.7329795" lon="7.8539025"><ele>325.0</ele><time>2026-04-08T13:37:03.935Z</time></trkpt><trkpt lat="44.7330785" lon="7.8537886"><ele>325.0</ele><time>2026-04-08T13:37:05.935Z</time></trkpt><trkpt lat="44.7331365" lon="7.8537262"><ele>325.0</ele><time>2026-04-08T13:37:06.935Z</time></trkpt><trkpt lat="44.7331967" lon="7.8536541"><ele>325.0</ele><time>2026-04-08T13:37:07.935Z</time></trkpt><trkpt lat="44.7332642" lon="7.853571"><ele>325.0</ele><time>2026-04-08T13:37:08.935Z</time></trkpt><trkpt lat="44.7333431" lon="7.853479"><ele>325.0</ele><time>2026-04-08T13:37:09.935Z</time></trkpt><trkpt lat="44.7334224" lon="7.8534007"><ele>325.0</ele><time>2026-04-08T13:37:10.935Z</time></trkpt><trkpt lat="44.7334925" lon="7.8533085"><ele>325.0</ele><time>2026-04-08T13:37:11.935Z</time></trkpt><trkpt lat="44.7335665" lon="7.8532178"><ele>325.0</ele><time>2026-04-08T13:37:12.935Z</time></trkpt><trkpt lat="44.7336443" lon="7.8531276"><ele>325.0</ele><time>2026-04-08T13:37:13.935Z</time></trkpt><trkpt lat="44.7337217" lon="7.8530397"><ele>325.0</ele><time>2026-04-08T13:37:14.935Z</time></trkpt><trkpt lat="44.733788" lon="7.8529751"><ele>325.0</ele><time>2026-04-08T13:37:15.935Z</time></trkpt><trkpt lat="44.7338452" lon="7.8528901"><ele>325.0</ele><time>2026-04-08T13:37:16.935Z</time></trkpt><trkpt lat="44.7339055" lon="7.8528054"><ele>325.0</ele><time>2026-04-08T13:37:17.935Z</time></trkpt><trkpt lat="44.7339617" lon="7.8527416"><ele>325.0</ele><time>2026-04-08T13:37:18.935Z</time></trkpt><trkpt lat="44.7340195" lon="7.8526943"><ele>325.0</ele><time>2026-04-08T13:37:19.935Z</time></trkpt><trkpt lat="44.7340565" lon="7.8525733"><ele>325.0</ele><time>2026-04-08T13:37:21.935Z</time></trkpt><trkpt lat="44.7339877" lon="7.8524375"><ele>325.0</ele><time>2026-04-08T13:37:23.935Z</time></trkpt><trkpt lat="44.7339079" lon="7.8523584"><ele>323.8</ele><time>2026-04-08T13:37:24.935Z</time></trkpt><trkpt lat="44.7338269" lon="7.852275"><ele>322.6</ele><time>2026-04-08T13:37:25.935Z</time></trkpt><trkpt lat="44.7337471" lon="7.8521838"><ele>321.4</ele><time>2026-04-08T13:37:26.935Z</time></trkpt><trkpt lat="44.7336737" lon="7.8520903"><ele>320.2</ele><time>2026-04-08T13:37:27.935Z</time></trkpt><trkpt lat="44.7335949" lon="7.8520023"><ele>319.0</ele><time>2026-04-08T13:37:28.935Z</time></trkpt><trkpt lat="44.7335185" lon="7.851947"><ele>318.2857142857143</ele><time>2026-04-08T13:37:29.935Z</time></trkpt><trkpt lat="44.7334504" lon="7.8518891"><ele>317.57142857142856</ele><time>2026-04-08T13:37:30.935Z</time></trkpt><trkpt lat="44.7333994" lon="7.8518321"><ele>316.85714285714283</ele><time>2026-04-08T13:37:31.935Z</time></trkpt><trkpt lat="44.7333334" lon="7.8517843"><ele>316.1428571428571</ele><time>2026-04-08T13:37:32.935Z</time></trkpt><trkpt lat="44.7332705" lon="7.8517233"><ele>315.42857142857144</ele><time>2026-04-08T13:37:33.935Z</time></trkpt><trkpt lat="44.7332204" lon="7.8516621"><ele>314.71428571428567</ele><time>2026-04-08T13:37:34.935Z</time></trkpt><trkpt lat="44.7331629" lon="7.8516149"><ele>314.0</ele><time>2026-04-08T13:37:35.935Z</time></trkpt><trkpt lat="44.7330549" lon="7.8515299"><ele>313.85714285714283</ele><time>2026-04-08T13:37:37.935Z</time></trkpt><trkpt lat="44.7329929" lon="7.8514799"><ele>313.7142857142857</ele><time>2026-04-08T13:37:38.935Z</time></trkpt><trkpt lat="44.7329428" lon="7.8514169"><ele>313.57142857142856</ele><time>2026-04-08T13:37:39.935Z</time></trkpt><trkpt lat="44.7328999" lon="7.851337"><ele>313.42857142857144</ele><time>2026-04-08T13:37:40.935Z</time></trkpt><trkpt lat="44.7328837" lon="7.8512348"><ele>313.2857142857143</ele><time>2026-04-08T13:37:41.935Z</time></trkpt><trkpt lat="44.7328756" lon="7.8511318"><ele>313.1428571428571</ele><time>2026-04-08T13:37:42.935Z</time></trkpt><trkpt lat="44.7328812" lon="7.8510114"><ele>313.0</ele><time>2026-04-08T13:37:43.935Z</time></trkpt><trkpt lat="44.7328681" lon="7.8509071"><ele>313.0</ele><time>2026-04-08T13:37:44.935Z</time></trkpt><trkpt lat="44.7328432" lon="7.8508105"><ele>313.0</ele><time>2026-04-08T13:37:45.935Z</time></trkpt><trkpt lat="44.7327926" lon="7.8507224"><ele>313.0</ele><time>2026-04-08T13:37:46.935Z</time></trkpt><trkpt lat="44.7327161" lon="7.8506501"><ele>313.0</ele><time>2026-04-08T13:37:47.935Z</time></trkpt><trkpt lat="44.7326197" lon="7.8505811"><ele>313.0</ele><time>2026-04-08T13:37:48.935Z</time></trkpt><trkpt lat="44.7325149" lon="7.8505125"><ele>313.0</ele><time>2026-04-08T13:37:49.935Z</time></trkpt><trkpt lat="44.7323897" lon="7.8504319"><ele>313.0</ele><time>2026-04-08T13:37:50.935Z</time></trkpt><trkpt lat="44.732274" lon="7.8503575"><ele>313.0</ele><time>2026-04-08T13:37:51.935Z</time></trkpt><trkpt lat="44.7321639" lon="7.8502837"><ele>313.0</ele><time>2026-04-08T13:37:52.935Z</time></trkpt><trkpt lat="44.732064" lon="7.8502252"><ele>313.0</ele><time>2026-04-08T13:37:53.935Z</time></trkpt><trkpt lat="44.7319757" lon="7.8501777"><ele>313.0</ele><time>2026-04-08T13:37:54.935Z</time></trkpt><trkpt lat="44.7318942" lon="7.8501269"><ele>313.0</ele><time>2026-04-08T13:37:55.935Z</time></trkpt><trkpt lat="44.7318203" lon="7.8500797"><ele>313.0</ele><time>2026-04-08T13:37:56.935Z</time></trkpt><trkpt lat="44.7317511" lon="7.8500405"><ele>313.0</ele><time>2026-04-08T13:37:57.935Z</time></trkpt><trkpt lat="44.7316863" lon="7.8499893"><ele>313.0</ele><time>2026-04-08T13:37:58.935Z</time></trkpt><trkpt lat="44.7316211" lon="7.8499262"><ele>313.4</ele><time>2026-04-08T13:37:59.935Z</time></trkpt><trkpt lat="44.7315403" lon="7.8498646"><ele>313.8</ele><time>2026-04-08T13:38:00.935Z</time></trkpt><trkpt lat="44.7314558" lon="7.8498047"><ele>314.2</ele><time>2026-04-08T13:38:01.935Z</time></trkpt><trkpt lat="44.7313657" lon="7.8497495"><ele>314.6</ele><time>2026-04-08T13:38:02.935Z</time></trkpt><trkpt lat="44.7312738" lon="7.8496931"><ele>315.0</ele><time>2026-04-08T13:38:03.935Z</time></trkpt><trkpt lat="44.7311765" lon="7.8496355"><ele>315.0</ele><time>2026-04-08T13:38:04.935Z</time></trkpt><trkpt lat="44.7310895" lon="7.8495737"><ele>315.0</ele><time>2026-04-08T13:38:05.935Z</time></trkpt><trkpt lat="44.731008" lon="7.849534"><ele>315.0</ele><time>2026-04-08T13:38:06.935Z</time></trkpt><trkpt lat="44.7309369" lon="7.8494874"><ele>315.0</ele><time>2026-04-08T13:38:07.935Z</time></trkpt><trkpt lat="44.7308639" lon="7.8494382"><ele>315.0</ele><time>2026-04-08T13:38:08.935Z</time></trkpt><trkpt lat="44.7307781" lon="7.8493871"><ele>315.0</ele><time>2026-04-08T13:38:09.935Z</time></trkpt><trkpt lat="44.7306906" lon="7.8493271"><ele>315.6666666666667</ele><time>2026-04-08T13:38:10.935Z</time></trkpt><trkpt lat="44.7305951" lon="7.84927"><ele>316.3333333333333</ele><time>2026-04-08T13:38:11.935Z</time></trkpt><trkpt lat="44.7305076" lon="7.8492181"><ele>317.0</ele><time>2026-04-08T13:38:12.935Z</time></trkpt><trkpt lat="44.7304339" lon="7.8491633"><ele>317.66666666666663</ele><time>2026-04-08T13:38:13.935Z</time></trkpt><trkpt lat="44.7303609" lon="7.8491118"><ele>318.3333333333333</ele><time>2026-04-08T13:38:14.935Z</time></trkpt><trkpt lat="44.7302947" lon="7.8490646"><ele>319.0</ele><time>2026-04-08T13:38:15.935Z</time></trkpt><trkpt lat="44.7301867" lon="7.8489858"><ele>319.0</ele><time>2026-04-08T13:38:17.935Z</time></trkpt><trkpt lat="44.7301267" lon="7.8489512"><ele>319.0</ele><time>2026-04-08T13:38:18.935Z</time></trkpt><trkpt lat="44.7300217" lon="7.8488883"><ele>319.0</ele><time>2026-04-08T13:38:20.935Z</time></trkpt><trkpt lat="44.7299192" lon="7.8488901"><ele>319.0</ele><time>2026-04-08T13:38:22.935Z</time></trkpt><trkpt lat="44.729844" lon="7.8489976"><ele>319.0</ele><time>2026-04-08T13:38:24.935Z</time></trkpt><trkpt lat="44.7297575" lon="7.8491005"><ele>319.0</ele><time>2026-04-08T13:38:26.935Z</time></trkpt><trkpt lat="44.7296514" lon="7.8491098"><ele>319.0</ele><time>2026-04-08T13:38:28.935Z</time></trkpt><trkpt lat="44.7295881" lon="7.8490799"><ele>319.0</ele><time>2026-04-08T13:38:29.935Z</time></trkpt><trkpt lat="44.7295205" lon="7.8490304"><ele>319.0</ele><time>2026-04-08T13:38:30.935Z</time></trkpt><trkpt lat="44.7294489" lon="7.8489874"><ele>319.0</ele><time>2026-04-08T13:38:31.935Z</time></trkpt><trkpt lat="44.7293857" lon="7.8489372"><ele>319.0</ele><time>2026-04-08T13:38:32.935Z</time></trkpt><trkpt lat="44.7293081" lon="7.8488932"><ele>319.66666666666663</ele><time>2026-04-08T13:38:33.935Z</time></trkpt><trkpt lat="44.7292413" lon="7.8488472"><ele>320.3333333333333</ele><time>2026-04-08T13:38:34.935Z</time></trkpt><trkpt lat="44.7291639" lon="7.8487989"><ele>321.0</ele><time>2026-04-08T13:38:35.935Z</time></trkpt><trkpt lat="44.7290857" lon="7.8487494"><ele>321.6666666666667</ele><time>2026-04-08T13:38:36.935Z</time></trkpt><trkpt lat="44.7289942" lon="7.8486974"><ele>322.33333333333337</ele><time>2026-04-08T13:38:37.935Z</time></trkpt><trkpt lat="44.728925" lon="7.8486665"><ele>323.0</ele><time>2026-04-08T13:38:38.935Z</time></trkpt><trkpt lat="44.7288533" lon="7.8486358"><ele>323.0</ele><time>2026-04-08T13:38:39.935Z</time></trkpt><trkpt lat="44.7287871" lon="7.8486084"><ele>323.0</ele><time>2026-04-08T13:38:40.935Z</time></trkpt><trkpt lat="44.7287067" lon="7.8486078"><ele>323.0</ele><time>2026-04-08T13:38:41.935Z</time></trkpt><trkpt lat="44.7286316" lon="7.8486408"><ele>323.0</ele><time>2026-04-08T13:38:42.935Z</time></trkpt><trkpt lat="44.7285745" lon="7.8485943"><ele>323.0</ele><time>2026-04-08T13:38:43.935Z</time></trkpt><trkpt lat="44.7285102" lon="7.8485948"><ele>323.0</ele><time>2026-04-08T13:38:44.935Z</time></trkpt><trkpt lat="44.7284213" lon="7.8486584"><ele>324.0</ele><time>2026-04-08T13:38:45.935Z</time></trkpt><trkpt lat="44.7283396" lon="7.8487057"><ele>325.0</ele><time>2026-04-08T13:38:46.935Z</time></trkpt><trkpt lat="44.7282643" lon="7.8487693"><ele>326.0</ele><time>2026-04-08T13:38:47.935Z</time></trkpt><trkpt lat="44.7281867" lon="7.8488303"><ele>327.0</ele><time>2026-04-08T13:38:48.935Z</time></trkpt><trkpt lat="44.728123" lon="7.8488713"><ele>328.0</ele><time>2026-04-08T13:38:49.935Z</time></trkpt><trkpt lat="44.7280566" lon="7.8489307"><ele>329.0</ele><time>2026-04-08T13:38:50.935Z</time></trkpt><trkpt lat="44.7280125" lon="7.8490002"><ele>329.0</ele><time>2026-04-08T13:38:51.935Z</time></trkpt><trkpt lat="44.7279644" lon="7.8490818"><ele>329.0</ele><time>2026-04-08T13:38:52.935Z</time></trkpt><trkpt lat="44.7279232" lon="7.8491489"><ele>329.0</ele><time>2026-04-08T13:38:53.935Z</time></trkpt><trkpt lat="44.7278816" lon="7.8492275"><ele>329.0</ele><time>2026-04-08T13:38:54.935Z</time></trkpt><trkpt lat="44.7278378" lon="7.8493059"><ele>329.0</ele><time>2026-04-08T13:38:55.935Z</time></trkpt><trkpt lat="44.7278008" lon="7.8493815"><ele>329.0</ele><time>2026-04-08T13:38:56.935Z</time></trkpt><trkpt lat="44.7277454" lon="7.8494402"><ele>329.0</ele><time>2026-04-08T13:38:57.935Z</time></trkpt><trkpt lat="44.7276384" lon="7.8494768"><ele>329.83333333333337</ele><time>2026-04-08T13:38:59.935Z</time></trkpt><trkpt lat="44.7275165" lon="7.8493779"><ele>330.6666666666667</ele><time>2026-04-08T13:39:01.935Z</time></trkpt><trkpt lat="44.7274545" lon="7.8493198"><ele>331.5</ele><time>2026-04-08T13:39:02.935Z</time></trkpt><trkpt lat="44.7273954" lon="7.8492563"><ele>332.3333333333333</ele><time>2026-04-08T13:39:03.935Z</time></trkpt><trkpt lat="44.7273449" lon="7.8491976"><ele>333.16666666666663</ele><time>2026-04-08T13:39:04.935Z</time></trkpt><trkpt lat="44.7272869" lon="7.8491478"><ele>334.0</ele><time>2026-04-08T13:39:05.935Z</time></trkpt><trkpt lat="44.7271911" lon="7.8490472"><ele>334.3333333333333</ele><time>2026-04-08T13:39:07.935Z</time></trkpt><trkpt lat="44.7271357" lon="7.8490018"><ele>334.66666666666663</ele><time>2026-04-08T13:39:08.935Z</time></trkpt><trkpt lat="44.7270728" lon="7.848939"><ele>335.0</ele><time>2026-04-08T13:39:09.935Z</time></trkpt><trkpt lat="44.7269984" lon="7.8488642"><ele>335.3333333333333</ele><time>2026-04-08T13:39:10.935Z</time></trkpt><trkpt lat="44.7269313" lon="7.8488011"><ele>335.6666666666667</ele><time>2026-04-08T13:39:11.935Z</time></trkpt><trkpt lat="44.7268412" lon="7.8487338"><ele>336.0</ele><time>2026-04-08T13:39:12.935Z</time></trkpt><trkpt lat="44.7267567" lon="7.8486569"><ele>336.5</ele><time>2026-04-08T13:39:13.935Z</time></trkpt><trkpt lat="44.726655" lon="7.8485698"><ele>337.0</ele><time>2026-04-08T13:39:14.935Z</time></trkpt><trkpt lat="44.7265562" lon="7.8484722"><ele>337.5</ele><time>2026-04-08T13:39:15.935Z</time></trkpt><trkpt lat="44.726467" lon="7.8483803"><ele>338.0</ele><time>2026-04-08T13:39:16.935Z</time></trkpt><trkpt lat="44.7263871" lon="7.8482968"><ele>338.59999999999997</ele><time>2026-04-08T13:39:17.935Z</time></trkpt><trkpt lat="44.726307" lon="7.8482099"><ele>339.2</ele><time>2026-04-08T13:39:18.935Z</time></trkpt><trkpt lat="44.726232" lon="7.8481102"><ele>339.8</ele><time>2026-04-08T13:39:19.935Z</time></trkpt><trkpt lat="44.7261622" lon="7.8480263"><ele>340.4</ele><time>2026-04-08T13:39:20.935Z</time></trkpt><trkpt lat="44.7260921" lon="7.8479425"><ele>341.0</ele><time>2026-04-08T13:39:21.935Z</time></trkpt><trkpt lat="44.7260213" lon="7.847848"><ele>341.0</ele><time>2026-04-08T13:39:22.935Z</time></trkpt><trkpt lat="44.7259521" lon="7.8477556"><ele>341.0</ele><time>2026-04-08T13:39:23.935Z</time></trkpt><trkpt lat="44.7258909" lon="7.8476768"><ele>341.0</ele><time>2026-04-08T13:39:24.935Z</time></trkpt><trkpt lat="44.7258373" lon="7.8476224"><ele>341.0</ele><time>2026-04-08T13:39:25.935Z</time></trkpt><trkpt lat="44.7257707" lon="7.8476097"><ele>341.0</ele><time>2026-04-08T13:39:26.935Z</time></trkpt><trkpt lat="44.7256963" lon="7.8476366"><ele>341.0</ele><time>2026-04-08T13:39:27.935Z</time></trkpt><trkpt lat="44.7256163" lon="7.8476761"><ele>341.0</ele><time>2026-04-08T13:39:28.935Z</time></trkpt><trkpt lat="44.7255196" lon="7.847713"><ele>341.0</ele><time>2026-04-08T13:39:29.935Z</time></trkpt><trkpt lat="44.7254299" lon="7.8477487"><ele>341.0</ele><time>2026-04-08T13:39:30.935Z</time></trkpt><trkpt lat="44.7253396" lon="7.8477781"><ele>341.0</ele><time>2026-04-08T13:39:31.935Z</time></trkpt><trkpt lat="44.725255" lon="7.8477984"><ele>341.0</ele><time>2026-04-08T13:39:32.935Z</time></trkpt><trkpt lat="44.7251633" lon="7.8477893"><ele>341.4</ele><time>2026-04-08T13:39:33.935Z</time></trkpt><trkpt lat="44.7250779" lon="7.847752"><ele>341.8</ele><time>2026-04-08T13:39:34.935Z</time></trkpt><trkpt lat="44.7249787" lon="7.8476949"><ele>342.2</ele><time>2026-04-08T13:39:35.935Z</time></trkpt><trkpt lat="44.724889" lon="7.8476243"><ele>342.59999999999997</ele><time>2026-04-08T13:39:36.935Z</time></trkpt><trkpt lat="44.7247923" lon="7.8475366"><ele>343.0</ele><time>2026-04-08T13:39:37.935Z</time></trkpt><trkpt lat="44.7246953" lon="7.8474528"><ele>343.0</ele><time>2026-04-08T13:39:38.935Z</time></trkpt><trkpt lat="44.7245915" lon="7.8473755"><ele>343.0</ele><time>2026-04-08T13:39:39.935Z</time></trkpt><trkpt lat="44.7245016" lon="7.8472965"><ele>343.0</ele><time>2026-04-08T13:39:40.935Z</time></trkpt><trkpt lat="44.7244191" lon="7.8472325"><ele>343.0</ele><time>2026-04-08T13:39:41.935Z</time></trkpt><trkpt lat="44.7243286" lon="7.8471784"><ele>343.0</ele><time>2026-04-08T13:39:42.935Z</time></trkpt><trkpt lat="44.7242372" lon="7.8471315"><ele>341.59999999999997</ele><time>2026-04-08T13:39:43.935Z</time></trkpt><trkpt lat="44.7241515" lon="7.8471146"><ele>340.2</ele><time>2026-04-08T13:39:44.935Z</time></trkpt><trkpt lat="44.7240575" lon="7.8470891"><ele>338.8</ele><time>2026-04-08T13:39:45.935Z</time></trkpt><trkpt lat="44.7239496" lon="7.8470429"><ele>337.4</ele><time>2026-04-08T13:39:46.935Z</time></trkpt><trkpt lat="44.7238438" lon="7.8470015"><ele>336.0</ele><time>2026-04-08T13:39:47.935Z</time></trkpt><trkpt lat="44.7237295" lon="7.8469556"><ele>336.0</ele><time>2026-04-08T13:39:48.935Z</time></trkpt><trkpt lat="44.7236267" lon="7.8469052"><ele>336.0</ele><time>2026-04-08T13:39:49.935Z</time></trkpt><trkpt lat="44.7235277" lon="7.8468715"><ele>336.0</ele><time>2026-04-08T13:39:50.935Z</time></trkpt><trkpt lat="44.7234373" lon="7.8468716"><ele>336.0</ele><time>2026-04-08T13:39:51.935Z</time></trkpt><trkpt lat="44.7233536" lon="7.8468994"><ele>336.0</ele><time>2026-04-08T13:39:52.935Z</time></trkpt><trkpt lat="44.7232707" lon="7.8469381"><ele>336.0</ele><time>2026-04-08T13:39:53.935Z</time></trkpt><trkpt lat="44.7231953" lon="7.8469219"><ele>336.0</ele><time>2026-04-08T13:39:54.935Z</time></trkpt><trkpt lat="44.723121" lon="7.8469159"><ele>336.0</ele><time>2026-04-08T13:39:55.935Z</time></trkpt><trkpt lat="44.7230357" lon="7.8468945"><ele>336.0</ele><time>2026-04-08T13:39:56.935Z</time></trkpt><trkpt lat="44.7229363" lon="7.8468401"><ele>336.0</ele><time>2026-04-08T13:39:57.935Z</time></trkpt><trkpt lat="44.7228399" lon="7.8467987"><ele>336.0</ele><time>2026-04-08T13:39:58.935Z</time></trkpt><trkpt lat="44.7227441" lon="7.8467487"><ele>337.20000000000005</ele><time>2026-04-08T13:39:59.935Z</time></trkpt><trkpt lat="44.7226457" lon="7.846702"><ele>338.40000000000003</ele><time>2026-04-08T13:40:00.935Z</time></trkpt><trkpt lat="44.7225574" lon="7.8466504"><ele>339.6</ele><time>2026-04-08T13:40:01.935Z</time></trkpt><trkpt lat="44.7224593" lon="7.8466028"><ele>340.8</ele><time>2026-04-08T13:40:02.935Z</time></trkpt><trkpt lat="44.7223703" lon="7.8465568"><ele>342.0</ele><time>2026-04-08T13:40:03.935Z</time></trkpt><trkpt lat="44.7222808" lon="7.8465115"><ele>342.0</ele><time>2026-04-08T13:40:04.935Z</time></trkpt><trkpt lat="44.7221889" lon="7.8464769"><ele>342.0</ele><time>2026-04-08T13:40:05.935Z</time></trkpt><trkpt lat="44.7220923" lon="7.8464315"><ele>342.0</ele><time>2026-04-08T13:40:06.935Z</time></trkpt><trkpt lat="44.7220049" lon="7.846393"><ele>342.0</ele><time>2026-04-08T13:40:07.935Z</time></trkpt><trkpt lat="44.7219203" lon="7.8463563"><ele>342.0</ele><time>2026-04-08T13:40:08.935Z</time></trkpt><trkpt lat="44.7218391" lon="7.8463104"><ele>341.8</ele><time>2026-04-08T13:40:09.935Z</time></trkpt><trkpt lat="44.7217614" lon="7.846269"><ele>341.6</ele><time>2026-04-08T13:40:10.935Z</time></trkpt><trkpt lat="44.7216694" lon="7.8462361"><ele>341.40000000000003</ele><time>2026-04-08T13:40:11.935Z</time></trkpt><trkpt lat="44.7215798" lon="7.8462048"><ele>341.20000000000005</ele><time>2026-04-08T13:40:12.935Z</time></trkpt><trkpt lat="44.7214855" lon="7.846174"><ele>341.0</ele><time>2026-04-08T13:40:13.935Z</time></trkpt><trkpt lat="44.7213868" lon="7.8461516"><ele>341.0</ele><time>2026-04-08T13:40:14.935Z</time></trkpt><trkpt lat="44.7212861" lon="7.8461255"><ele>341.0</ele><time>2026-04-08T13:40:15.935Z</time></trkpt><trkpt lat="44.7211862" lon="7.8461099"><ele>341.0</ele><time>2026-04-08T13:40:16.935Z</time></trkpt><trkpt lat="44.7210825" lon="7.8460966"><ele>341.0</ele><time>2026-04-08T13:40:17.934Z</time></trkpt><trkpt lat="44.7209742" lon="7.8460788"><ele>341.0</ele><time>2026-04-08T13:40:18.935Z</time></trkpt><trkpt lat="44.7208768" lon="7.8460555"><ele>341.6</ele><time>2026-04-08T13:40:19.935Z</time></trkpt><trkpt lat="44.720796" lon="7.8460198"><ele>342.20000000000005</ele><time>2026-04-08T13:40:20.935Z</time></trkpt><trkpt lat="44.7207005" lon="7.8459946"><ele>342.79999999999995</ele><time>2026-04-08T13:40:21.935Z</time></trkpt><trkpt lat="44.7205947" lon="7.8459546"><ele>343.4</ele><time>2026-04-08T13:40:22.935Z</time></trkpt><trkpt lat="44.7204814" lon="7.8459046"><ele>344.0</ele><time>2026-04-08T13:40:23.935Z</time></trkpt><trkpt lat="44.720359" lon="7.8458508"><ele>344.5</ele><time>2026-04-08T13:40:24.935Z</time></trkpt><trkpt lat="44.7202397" lon="7.845803"><ele>345.0</ele><time>2026-04-08T13:40:25.935Z</time></trkpt><trkpt lat="44.7201288" lon="7.8457587"><ele>345.5</ele><time>2026-04-08T13:40:26.935Z</time></trkpt><trkpt lat="44.7200176" lon="7.845724"><ele>346.0</ele><time>2026-04-08T13:40:27.935Z</time></trkpt><trkpt lat="44.7199151" lon="7.8456995"><ele>346.0</ele><time>2026-04-08T13:40:28.935Z</time></trkpt><trkpt lat="44.7198159" lon="7.845686"><ele>346.0</ele><time>2026-04-08T13:40:29.935Z</time></trkpt><trkpt lat="44.71972" lon="7.845672"><ele>346.0</ele><time>2026-04-08T13:40:30.935Z</time></trkpt><trkpt lat="44.7196228" lon="7.8456754"><ele>346.0</ele><time>2026-04-08T13:40:31.935Z</time></trkpt><trkpt lat="44.7195303" lon="7.8457029"><ele>346.0</ele><time>2026-04-08T13:40:32.935Z</time></trkpt><trkpt lat="44.7194378" lon="7.8457442"><ele>346.8</ele><time>2026-04-08T13:40:33.935Z</time></trkpt><trkpt lat="44.7193508" lon="7.845781"><ele>347.6</ele><time>2026-04-08T13:40:34.935Z</time></trkpt><trkpt lat="44.7192554" lon="7.8457971"><ele>348.4</ele><time>2026-04-08T13:40:35.935Z</time></trkpt><trkpt lat="44.7191525" lon="7.8457801"><ele>349.2</ele><time>2026-04-08T13:40:36.935Z</time></trkpt><trkpt lat="44.7190463" lon="7.8457561"><ele>350.0</ele><time>2026-04-08T13:40:37.935Z</time></trkpt><trkpt lat="44.7189461" lon="7.8457298"><ele>350.0</ele><time>2026-04-08T13:40:38.935Z</time></trkpt><trkpt lat="44.7188561" lon="7.8457296"><ele>350.0</ele><time>2026-04-08T13:40:39.935Z</time></trkpt><trkpt lat="44.7187678" lon="7.845767"><ele>350.0</ele><time>2026-04-08T13:40:40.935Z</time></trkpt><trkpt lat="44.7186707" lon="7.8458385"><ele>350.0</ele><time>2026-04-08T13:40:41.935Z</time></trkpt><trkpt lat="44.7185647" lon="7.8459054"><ele>350.0</ele><time>2026-04-08T13:40:42.935Z</time></trkpt><trkpt lat="44.7184496" lon="7.8459236"><ele>350.8</ele><time>2026-04-08T13:40:43.935Z</time></trkpt><trkpt lat="44.7183438" lon="7.8459079"><ele>351.6</ele><time>2026-04-08T13:40:44.935Z</time></trkpt><trkpt lat="44.7182429" lon="7.8458818"><ele>352.4</ele><time>2026-04-08T13:40:45.935Z</time></trkpt><trkpt lat="44.718146" lon="7.8458616"><ele>353.2</ele><time>2026-04-08T13:40:46.935Z</time></trkpt><trkpt lat="44.7180343" lon="7.8458418"><ele>354.0</ele><time>2026-04-08T13:40:47.935Z</time></trkpt><trkpt lat="44.7179161" lon="7.8458231"><ele>354.0</ele><time>2026-04-08T13:40:48.935Z</time></trkpt><trkpt lat="44.7177884" lon="7.8458035"><ele>354.0</ele><time>2026-04-08T13:40:49.935Z</time></trkpt><trkpt lat="44.7176498" lon="7.8457934"><ele>354.0</ele><time>2026-04-08T13:40:50.935Z</time></trkpt><trkpt lat="44.717498" lon="7.845781"><ele>354.0</ele><time>2026-04-08T13:40:51.935Z</time></trkpt><trkpt lat="44.7173424" lon="7.845784"><ele>355.0</ele><time>2026-04-08T13:40:52.935Z</time></trkpt><trkpt lat="44.7172014" lon="7.8457998"><ele>356.0</ele><time>2026-04-08T13:40:53.935Z</time></trkpt><trkpt lat="44.717067" lon="7.8458103"><ele>357.0</ele><time>2026-04-08T13:40:54.935Z</time></trkpt><trkpt lat="44.7169448" lon="7.8458101"><ele>358.0</ele><time>2026-04-08T13:40:55.935Z</time></trkpt><trkpt lat="44.7168337" lon="7.8457637"><ele>359.25</ele><time>2026-04-08T13:40:56.935Z</time></trkpt><trkpt lat="44.7167249" lon="7.8456868"><ele>360.5</ele><time>2026-04-08T13:40:57.935Z</time></trkpt><trkpt lat="44.7166124" lon="7.8456319"><ele>361.75</ele><time>2026-04-08T13:40:58.935Z</time></trkpt><trkpt lat="44.7164967" lon="7.8456081"><ele>363.0</ele><time>2026-04-08T13:40:59.935Z</time></trkpt><trkpt lat="44.7163839" lon="7.8455762"><ele>363.0</ele><time>2026-04-08T13:41:00.935Z</time></trkpt><trkpt lat="44.716287" lon="7.845527"><ele>363.0</ele><time>2026-04-08T13:41:01.935Z</time></trkpt><trkpt lat="44.716218" lon="7.8454352"><ele>363.0</ele><time>2026-04-08T13:41:02.935Z</time></trkpt><trkpt lat="44.716161" lon="7.8453495"><ele>363.0</ele><time>2026-04-08T13:41:03.935Z</time></trkpt><trkpt lat="44.7161279" lon="7.8452683"><ele>363.0</ele><time>2026-04-08T13:41:04.935Z</time></trkpt><trkpt lat="44.7161047" lon="7.8451202"><ele>362.3333333333333</ele><time>2026-04-08T13:41:06.935Z</time></trkpt><trkpt lat="44.7160947" lon="7.8450002"><ele>361.6666666666667</ele><time>2026-04-08T13:41:08.935Z</time></trkpt><trkpt lat="44.7160931" lon="7.8448976"><ele>361.0</ele><time>2026-04-08T13:41:10.935Z</time></trkpt><trkpt lat="44.7160913" lon="7.8448019"><ele>360.33333333333337</ele><time>2026-04-08T13:41:12.935Z</time></trkpt><trkpt lat="44.7160821" lon="7.8446931"><ele>359.6666666666667</ele><time>2026-04-08T13:41:15.935Z</time></trkpt><trkpt lat="44.7160692" lon="7.8445844"><ele>359.0</ele><time>2026-04-08T13:41:59.935Z</time></trkpt><trkpt lat="44.7160781" lon="7.8444358"><ele>356.0</ele><time>2026-04-08T13:42:01.935Z</time></trkpt><trkpt lat="44.7161003" lon="7.8443488"><ele>356.0</ele><time>2026-04-08T13:42:03.935Z</time></trkpt></trkseg></trk></gpx>